<?xml version='1.0' encoding='UTF-8'?><gpx version="1.1" creator="JPX - https://github.com/jenetics/jpx" xmlns="http://www.topografix.com/GPX/1/1"><trk><trkseg><trkpt lat="44.457848" lon="7.3741342"><ele>616.0</ele><time>2026-03-29T09:55:13.594Z</time></trkpt><trkpt lat="44.4579387" lon="7.3741604"><ele>616.0</ele><time>2026-03-29T09:55:17.594Z</time></trkpt><trkpt lat="44.4580059" lon="7.3741637"><ele>616.0</ele><time>2026-03-29T09:55:19.594Z</time></trkpt><trkpt lat="44.4580771" lon="7.3741065"><ele>616.0</ele><time>2026-03-29T09:55:22.594Z</time></trkpt><trkpt lat="44.4581391" lon="7.3741364"><ele>616.0</ele><time>2026-03-29T09:56:10.526Z</time></trkpt><trkpt lat="44.4582228" lon="7.3741282"><ele>616.0</ele><time>2026-03-29T09:56:12.502Z</time></trkpt><trkpt lat="44.4582906" lon="7.3741206"><ele>616.0</ele><time>2026-03-29T09:56:14.595Z</time></trkpt><trkpt lat="44.4583702" lon="7.3741154"><ele>616.0</ele><time>2026-03-29T09:56:16.585Z</time></trkpt><trkpt lat="44.4584389" lon="7.3740945"><ele>616.0</ele><time>2026-03-29T09:56:17.594Z</time></trkpt><trkpt lat="44.458564" lon="7.3740786"><ele>616.0</ele><time>2026-03-29T09:56:19.594Z</time></trkpt><trkpt lat="44.4586862" lon="7.374063"><ele>616.0</ele><time>2026-03-29T09:56:21.594Z</time></trkpt><trkpt lat="44.4588038" lon="7.3740167"><ele>615.8</ele><time>2026-03-29T09:56:23.594Z</time></trkpt><trkpt lat="44.4588911" lon="7.3738955"><ele>615.6</ele><time>2026-03-29T09:56:25.594Z</time></trkpt><trkpt lat="44.4588821" lon="7.3737444"><ele>615.4</ele><time>2026-03-29T09:56:27.594Z</time></trkpt><trkpt lat="44.4588778" lon="7.3736032"><ele>615.2</ele><time>2026-03-29T09:56:29.595Z</time></trkpt><trkpt lat="44.4589043" lon="7.3734817"><ele>615.0</ele><time>2026-03-29T09:56:31.594Z</time></trkpt><trkpt lat="44.4589807" lon="7.3734198"><ele>615.0</ele><time>2026-03-29T09:56:33.594Z</time></trkpt><trkpt lat="44.4590711" lon="7.3733979"><ele>615.0</ele><time>2026-03-29T09:56:35.594Z</time></trkpt><trkpt lat="44.4591643" lon="7.3733738"><ele>615.0</ele><time>2026-03-29T09:56:37.594Z</time></trkpt><trkpt lat="44.4592726" lon="7.3733531"><ele>615.0</ele><time>2026-03-29T09:56:39.594Z</time></trkpt><trkpt lat="44.459381" lon="7.3733415"><ele>615.0</ele><time>2026-03-29T09:56:41.594Z</time></trkpt><trkpt lat="44.4594956" lon="7.373333"><ele>615.0</ele><time>2026-03-29T09:56:43.594Z</time></trkpt><trkpt lat="44.4596107" lon="7.3733082"><ele>615.0</ele><time>2026-03-29T09:56:45.595Z</time></trkpt><trkpt lat="44.4597251" lon="7.3732858"><ele>615.0</ele><time>2026-03-29T09:56:47.594Z</time></trkpt><trkpt lat="44.4598448" lon="7.3732683"><ele>615.0</ele><time>2026-03-29T09:56:49.594Z</time></trkpt><trkpt lat="44.4599653" lon="7.3732535"><ele>615.0</ele><time>2026-03-29T09:56:51.594Z</time></trkpt><trkpt lat="44.460085" lon="7.3732354"><ele>615.0</ele><time>2026-03-29T09:56:53.595Z</time></trkpt><trkpt lat="44.4602037" lon="7.3732203"><ele>615.0</ele><time>2026-03-29T09:56:55.594Z</time></trkpt><trkpt lat="44.4602949" lon="7.3732132"><ele>615.0</ele><time>2026-03-29T09:56:57.594Z</time></trkpt><trkpt lat="44.4603589" lon="7.3731924"><ele>615.0</ele><time>2026-03-29T09:56:59.594Z</time></trkpt><trkpt lat="44.4604162" lon="7.373154"><ele>615.2857142857142</ele><time>2026-03-29T09:57:03.594Z</time></trkpt><trkpt lat="44.460486" lon="7.3731461"><ele>615.5714285714287</ele><time>2026-03-29T09:57:07.593Z</time></trkpt><trkpt lat="44.4605449" lon="7.3730678"><ele>615.8571428571429</ele><time>2026-03-29T09:57:10.593Z</time></trkpt><trkpt lat="44.4605861" lon="7.3729983"><ele>616.1428571428571</ele><time>2026-03-29T09:57:12.594Z</time></trkpt><trkpt lat="44.4606494" lon="7.3730298"><ele>616.4285714285713</ele><time>2026-03-29T09:57:14.594Z</time></trkpt><trkpt lat="44.4606795" lon="7.3731174"><ele>616.7142857142858</ele><time>2026-03-29T09:57:16.594Z</time></trkpt><trkpt lat="44.4607146" lon="7.3732185"><ele>617.0</ele><time>2026-03-29T09:57:18.595Z</time></trkpt><trkpt lat="44.4607559" lon="7.3733311"><ele>617.0</ele><time>2026-03-29T09:57:20.594Z</time></trkpt><trkpt lat="44.4607938" lon="7.3734461"><ele>617.0</ele><time>2026-03-29T09:57:22.594Z</time></trkpt><trkpt lat="44.4608293" lon="7.3735634"><ele>617.0</ele><time>2026-03-29T09:57:24.595Z</time></trkpt><trkpt lat="44.460913" lon="7.3736128"><ele>617.0</ele><time>2026-03-29T09:57:26.595Z</time></trkpt><trkpt lat="44.4609922" lon="7.3735844"><ele>617.0</ele><time>2026-03-29T09:57:28.594Z</time></trkpt><trkpt lat="44.4610639" lon="7.3735303"><ele>617.0</ele><time>2026-03-29T09:57:30.594Z</time></trkpt><trkpt lat="44.4611426" lon="7.3735112"><ele>617.0</ele><time>2026-03-29T09:57:33.594Z</time></trkpt><trkpt lat="44.4611875" lon="7.373608"><ele>617.0</ele><time>2026-03-29T09:57:36.594Z</time></trkpt><trkpt lat="44.4612157" lon="7.3736976"><ele>617.0</ele><time>2026-03-29T09:57:38.595Z</time></trkpt><trkpt lat="44.4612441" lon="7.3737986"><ele>617.0</ele><time>2026-03-29T09:57:40.595Z</time></trkpt><trkpt lat="44.4612837" lon="7.3739052"><ele>617.0</ele><time>2026-03-29T09:57:42.594Z</time></trkpt><trkpt lat="44.4613192" lon="7.3740219"><ele>617.0</ele><time>2026-03-29T09:57:44.594Z</time></trkpt><trkpt lat="44.4613442" lon="7.374148"><ele>616.6</ele><time>2026-03-29T09:57:46.595Z</time></trkpt><trkpt lat="44.4613804" lon="7.3742772"><ele>616.2</ele><time>2026-03-29T09:57:48.595Z</time></trkpt><trkpt lat="44.4614076" lon="7.3744195"><ele>615.8</ele><time>2026-03-29T09:57:50.594Z</time></trkpt><trkpt lat="44.4614261" lon="7.3745642"><ele>615.4</ele><time>2026-03-29T09:57:52.593Z</time></trkpt><trkpt lat="44.4614429" lon="7.3747202"><ele>615.0</ele><time>2026-03-29T09:57:54.595Z</time></trkpt><trkpt lat="44.4614571" lon="7.3748814"><ele>614.6666666666666</ele><time>2026-03-29T09:57:56.594Z</time></trkpt><trkpt lat="44.4614632" lon="7.3750504"><ele>614.3333333333334</ele><time>2026-03-29T09:57:58.594Z</time></trkpt><trkpt lat="44.4614633" lon="7.3751393"><ele>614.0</ele><time>2026-03-29T09:57:59.594Z</time></trkpt><trkpt lat="44.4614648" lon="7.3752281"><ele>613.6666666666667</ele><time>2026-03-29T09:58:00.595Z</time></trkpt><trkpt lat="44.4614693" lon="7.3753242"><ele>613.3333333333334</ele><time>2026-03-29T09:58:01.594Z</time></trkpt><trkpt lat="44.461476" lon="7.3754191"><ele>613.0</ele><time>2026-03-29T09:58:02.594Z</time></trkpt><trkpt lat="44.4614808" lon="7.375513"><ele>612.4</ele><time>2026-03-29T09:58:03.594Z</time></trkpt><trkpt lat="44.4614882" lon="7.375602"><ele>611.8</ele><time>2026-03-29T09:58:04.595Z</time></trkpt><trkpt lat="44.4615236" lon="7.3757548"><ele>611.2</ele><time>2026-03-29T09:58:06.594Z</time></trkpt><trkpt lat="44.4615914" lon="7.3758581"><ele>610.6</ele><time>2026-03-29T09:58:08.595Z</time></trkpt><trkpt lat="44.4616953" lon="7.3758507"><ele>610.0</ele><time>2026-03-29T09:58:10.594Z</time></trkpt><trkpt lat="44.4617929" lon="7.3757919"><ele>610.0</ele><time>2026-03-29T09:58:12.595Z</time></trkpt><trkpt lat="44.4619033" lon="7.3757222"><ele>610.0</ele><time>2026-03-29T09:58:14.594Z</time></trkpt><trkpt lat="44.4619626" lon="7.3756904"><ele>610.0</ele><time>2026-03-29T09:58:15.594Z</time></trkpt><trkpt lat="44.4620839" lon="7.3756463"><ele>610.0</ele><time>2026-03-29T09:58:17.594Z</time></trkpt><trkpt lat="44.4621465" lon="7.3756263"><ele>610.0</ele><time>2026-03-29T09:58:18.595Z</time></trkpt><trkpt lat="44.4622654" lon="7.3755963"><ele>609.5</ele><time>2026-03-29T09:58:20.595Z</time></trkpt><trkpt lat="44.4623745" lon="7.3755416"><ele>609.0</ele><time>2026-03-29T09:58:22.594Z</time></trkpt><trkpt lat="44.4624852" lon="7.3755047"><ele>608.5</ele><time>2026-03-29T09:58:24.594Z</time></trkpt><trkpt lat="44.4626003" lon="7.3754815"><ele>608.0</ele><time>2026-03-29T09:58:26.595Z</time></trkpt><trkpt lat="44.4627211" lon="7.375464"><ele>608.0</ele><time>2026-03-29T09:58:28.594Z</time></trkpt><trkpt lat="44.4628399" lon="7.3754453"><ele>608.0</ele><time>2026-03-29T09:58:30.595Z</time></trkpt><trkpt lat="44.4629616" lon="7.3754287"><ele>608.0</ele><time>2026-03-29T09:58:32.594Z</time></trkpt><trkpt lat="44.4630827" lon="7.3754104"><ele>608.0</ele><time>2026-03-29T09:58:34.594Z</time></trkpt><trkpt lat="44.4632006" lon="7.3753881"><ele>607.6</ele><time>2026-03-29T09:58:36.595Z</time></trkpt><trkpt lat="44.4632639" lon="7.375377"><ele>607.1999999999999</ele><time>2026-03-29T09:58:37.595Z</time></trkpt><trkpt lat="44.4633838" lon="7.3753575"><ele>606.8</ele><time>2026-03-29T09:58:39.594Z</time></trkpt><trkpt lat="44.4635014" lon="7.3753259"><ele>606.4</ele><time>2026-03-29T09:58:41.594Z</time></trkpt><trkpt lat="44.4636193" lon="7.3753003"><ele>606.0</ele><time>2026-03-29T09:58:43.594Z</time></trkpt><trkpt lat="44.4637326" lon="7.3752846"><ele>605.8333333333334</ele><time>2026-03-29T09:58:45.595Z</time></trkpt><trkpt lat="44.4638167" lon="7.375274"><ele>605.6666666666666</ele><time>2026-03-29T09:58:47.594Z</time></trkpt><trkpt lat="44.4638854" lon="7.3752557"><ele>605.5</ele><time>2026-03-29T09:58:49.594Z</time></trkpt><trkpt lat="44.4639421" lon="7.3751941"><ele>605.3333333333333</ele><time>2026-03-29T09:58:52.595Z</time></trkpt><trkpt lat="44.4639786" lon="7.3750647"><ele>605.1666666666666</ele><time>2026-03-29T09:58:55.595Z</time></trkpt><trkpt lat="44.4639879" lon="7.3749495"><ele>605.0</ele><time>2026-03-29T09:58:57.594Z</time></trkpt><trkpt lat="44.4640025" lon="7.3748285"><ele>605.2</ele><time>2026-03-29T09:58:59.595Z</time></trkpt><trkpt lat="44.464018" lon="7.3746871"><ele>605.4</ele><time>2026-03-29T09:59:01.594Z</time></trkpt><trkpt lat="44.4640356" lon="7.374558"><ele>605.6</ele><time>2026-03-29T09:59:03.594Z</time></trkpt><trkpt lat="44.4640466" lon="7.3744055"><ele>605.8</ele><time>2026-03-29T09:59:05.595Z</time></trkpt><trkpt lat="44.4640585" lon="7.3742582"><ele>606.0</ele><time>2026-03-29T09:59:07.594Z</time></trkpt><trkpt lat="44.4640762" lon="7.3741186"><ele>606.0</ele><time>2026-03-29T09:59:09.594Z</time></trkpt><trkpt lat="44.464086" lon="7.3739782"><ele>606.0</ele><time>2026-03-29T09:59:11.594Z</time></trkpt><trkpt lat="44.4641016" lon="7.3738387"><ele>606.0</ele><time>2026-03-29T09:59:13.594Z</time></trkpt><trkpt lat="44.4641143" lon="7.3737099"><ele>606.0</ele><time>2026-03-29T09:59:15.595Z</time></trkpt><trkpt lat="44.4641308" lon="7.373563"><ele>606.0</ele><time>2026-03-29T09:59:17.594Z</time></trkpt><trkpt lat="44.4641466" lon="7.3734327"><ele>606.2</ele><time>2026-03-29T09:59:19.594Z</time></trkpt><trkpt lat="44.4641614" lon="7.3732972"><ele>606.4000000000001</ele><time>2026-03-29T09:59:21.595Z</time></trkpt><trkpt lat="44.4641723" lon="7.3731684"><ele>606.6</ele><time>2026-03-29T09:59:23.594Z</time></trkpt><trkpt lat="44.4641864" lon="7.3730378"><ele>606.8000000000001</ele><time>2026-03-29T09:59:25.594Z</time></trkpt><trkpt lat="44.4641972" lon="7.3729178"><ele>607.0</ele><time>2026-03-29T09:59:27.594Z</time></trkpt><trkpt lat="44.4642128" lon="7.3727931"><ele>607.1666666666667</ele><time>2026-03-29T09:59:29.594Z</time></trkpt><trkpt lat="44.464227" lon="7.3726826"><ele>607.3333333333334</ele><time>2026-03-29T09:59:31.594Z</time></trkpt><trkpt lat="44.464248" lon="7.3725971"><ele>607.5</ele><time>2026-03-29T09:59:33.595Z</time></trkpt><trkpt lat="44.4643155" lon="7.372564"><ele>607.6666666666666</ele><time>2026-03-29T09:59:35.595Z</time></trkpt><trkpt lat="44.4643767" lon="7.3724906"><ele>607.8333333333333</ele><time>2026-03-29T09:59:37.594Z</time></trkpt><trkpt lat="44.4644166" lon="7.3723743"><ele>608.0</ele><time>2026-03-29T09:59:39.595Z</time></trkpt><trkpt lat="44.4644467" lon="7.3722529"><ele>608.1666666666666</ele><time>2026-03-29T09:59:41.595Z</time></trkpt><trkpt lat="44.4644698" lon="7.3721291"><ele>608.3333333333333</ele><time>2026-03-29T09:59:43.594Z</time></trkpt><trkpt lat="44.4644857" lon="7.3720109"><ele>608.5</ele><time>2026-03-29T09:59:45.595Z</time></trkpt><trkpt lat="44.4645028" lon="7.3718868"><ele>608.6666666666666</ele><time>2026-03-29T09:59:47.595Z</time></trkpt><trkpt lat="44.4645245" lon="7.3717749"><ele>608.8333333333334</ele><time>2026-03-29T09:59:49.595Z</time></trkpt><trkpt lat="44.46458" lon="7.3716669"><ele>609.0</ele><time>2026-03-29T09:59:51.594Z</time></trkpt><trkpt lat="44.4646442" lon="7.3715752"><ele>608.0</ele><time>2026-03-29T09:59:53.594Z</time></trkpt><trkpt lat="44.4647176" lon="7.3714878"><ele>607.0</ele><time>2026-03-29T09:59:55.595Z</time></trkpt><trkpt lat="44.4648063" lon="7.3713796"><ele>606.0</ele><time>2026-03-29T09:59:57.594Z</time></trkpt><trkpt lat="44.4649025" lon="7.3712808"><ele>605.0</ele><time>2026-03-29T09:59:59.593Z</time></trkpt><trkpt lat="44.4650073" lon="7.3711995"><ele>605.0</ele><time>2026-03-29T10:00:01.594Z</time></trkpt><trkpt lat="44.4650819" lon="7.3711384"><ele>605.0</ele><time>2026-03-29T10:00:03.595Z</time></trkpt><trkpt lat="44.4651556" lon="7.371088"><ele>605.0</ele><time>2026-03-29T10:00:06.594Z</time></trkpt><trkpt lat="44.46521" lon="7.3711368"><ele>605.0</ele><time>2026-03-29T10:00:09.594Z</time></trkpt><trkpt lat="44.4652431" lon="7.3712125"><ele>605.0</ele><time>2026-03-29T10:01:25.595Z</time></trkpt><trkpt lat="44.4652909" lon="7.3713162"><ele>605.0</ele><time>2026-03-29T10:01:29.595Z</time></trkpt><trkpt lat="44.465344" lon="7.3714047"><ele>605.0</ele><time>2026-03-29T10:01:32.594Z</time></trkpt><trkpt lat="44.4653847" lon="7.3714917"><ele>605.0</ele><time>2026-03-29T10:01:37.594Z</time></trkpt><trkpt lat="44.4653609" lon="7.3714075"><ele>605.0</ele><time>2026-03-29T10:01:45.594Z</time></trkpt><trkpt lat="44.4653008" lon="7.3713315"><ele>605.0</ele><time>2026-03-29T10:01:49.595Z</time></trkpt><trkpt lat="44.4652582" lon="7.3712509"><ele>605.0</ele><time>2026-03-29T10:01:52.594Z</time></trkpt><trkpt lat="44.4652105" lon="7.3711623"><ele>605.0</ele><time>2026-03-29T10:01:55.594Z</time></trkpt><trkpt lat="44.46515" lon="7.3711115"><ele>605.0</ele><time>2026-03-29T10:01:58.594Z</time></trkpt><trkpt lat="44.46508" lon="7.3711341"><ele>605.0</ele><time>2026-03-29T10:02:01.595Z</time></trkpt><trkpt lat="44.4650226" lon="7.3711799"><ele>605.0</ele><time>2026-03-29T10:02:03.594Z</time></trkpt><trkpt lat="44.464962" lon="7.371238"><ele>605.0</ele><time>2026-03-29T10:02:05.595Z</time></trkpt><trkpt lat="44.4648979" lon="7.3712915"><ele>605.0</ele><time>2026-03-29T10:02:07.595Z</time></trkpt><trkpt lat="44.464831" lon="7.371346"><ele>605.0</ele><time>2026-03-29T10:02:09.594Z</time></trkpt><trkpt lat="44.4647702" lon="7.3714036"><ele>605.0</ele><time>2026-03-29T10:02:11.594Z</time></trkpt><trkpt lat="44.4647076" lon="7.3714626"><ele>605.0</ele><time>2026-03-29T10:02:13.594Z</time></trkpt><trkpt lat="44.4646488" lon="7.3715319"><ele>605.5</ele><time>2026-03-29T10:02:15.594Z</time></trkpt><trkpt lat="44.4645951" lon="7.3716039"><ele>606.0</ele><time>2026-03-29T10:02:17.594Z</time></trkpt><trkpt lat="44.4645485" lon="7.3716885"><ele>606.5</ele><time>2026-03-29T10:02:19.595Z</time></trkpt><trkpt lat="44.4645066" lon="7.3717945"><ele>607.0</ele><time>2026-03-29T10:02:21.594Z</time></trkpt><trkpt lat="44.4644814" lon="7.371934"><ele>607.5</ele><time>2026-03-29T10:02:23.594Z</time></trkpt><trkpt lat="44.464457" lon="7.3720723"><ele>608.0</ele><time>2026-03-29T10:02:25.594Z</time></trkpt><trkpt lat="44.4644389" lon="7.3722175"><ele>608.0</ele><time>2026-03-29T10:02:27.594Z</time></trkpt><trkpt lat="44.4644097" lon="7.3723508"><ele>608.0</ele><time>2026-03-29T10:02:29.594Z</time></trkpt><trkpt lat="44.4643802" lon="7.372463"><ele>608.0</ele><time>2026-03-29T10:02:31.594Z</time></trkpt><trkpt lat="44.4643388" lon="7.3725539"><ele>608.0</ele><time>2026-03-29T10:02:33.594Z</time></trkpt><trkpt lat="44.4642688" lon="7.3726037"><ele>608.0</ele><time>2026-03-29T10:02:36.594Z</time></trkpt><trkpt lat="44.4642175" lon="7.3726714"><ele>608.0</ele><time>2026-03-29T10:02:43.594Z</time></trkpt><trkpt lat="44.464181" lon="7.3727914"><ele>608.0</ele><time>2026-03-29T10:02:46.594Z</time></trkpt><trkpt lat="44.4641759" lon="7.3729247"><ele>608.0</ele><time>2026-03-29T10:02:48.595Z</time></trkpt><trkpt lat="44.4641594" lon="7.3730679"><ele>608.0</ele><time>2026-03-29T10:02:50.594Z</time></trkpt><trkpt lat="44.4641451" lon="7.3732176"><ele>608.0</ele><time>2026-03-29T10:02:52.595Z</time></trkpt><trkpt lat="44.4641279" lon="7.3733808"><ele>608.0</ele><time>2026-03-29T10:02:54.594Z</time></trkpt><trkpt lat="44.4641076" lon="7.3735506"><ele>607.8571428571428</ele><time>2026-03-29T10:02:56.595Z</time></trkpt><trkpt lat="44.4640991" lon="7.3736402"><ele>607.7142857142858</ele><time>2026-03-29T10:02:57.594Z</time></trkpt><trkpt lat="44.4640875" lon="7.3737314"><ele>607.5714285714286</ele><time>2026-03-29T10:02:58.593Z</time></trkpt><trkpt lat="44.4640815" lon="7.3738233"><ele>607.4285714285713</ele><time>2026-03-29T10:02:59.595Z</time></trkpt><trkpt lat="44.4640729" lon="7.3739152"><ele>607.2857142857142</ele><time>2026-03-29T10:03:00.595Z</time></trkpt><trkpt lat="44.4640649" lon="7.374008"><ele>607.1428571428571</ele><time>2026-03-29T10:03:01.595Z</time></trkpt><trkpt lat="44.46405" lon="7.3741011"><ele>607.0</ele><time>2026-03-29T10:03:02.594Z</time></trkpt><trkpt lat="44.4640398" lon="7.3741933"><ele>606.8333333333334</ele><time>2026-03-29T10:03:03.595Z</time></trkpt><trkpt lat="44.4640186" lon="7.3743805"><ele>606.6666666666667</ele><time>2026-03-29T10:03:05.595Z</time></trkpt><trkpt lat="44.4640113" lon="7.374476"><ele>606.5</ele><time>2026-03-29T10:03:06.595Z</time></trkpt><trkpt lat="44.4639977" lon="7.3745671"><ele>606.3333333333334</ele><time>2026-03-29T10:03:07.594Z</time></trkpt><trkpt lat="44.4639866" lon="7.3746698"><ele>606.1666666666666</ele><time>2026-03-29T10:03:08.595Z</time></trkpt><trkpt lat="44.4639759" lon="7.3747671"><ele>606.0</ele><time>2026-03-29T10:03:09.593Z</time></trkpt><trkpt lat="44.463963" lon="7.3748686"><ele>605.8333333333334</ele><time>2026-03-29T10:03:10.595Z</time></trkpt><trkpt lat="44.463951" lon="7.3749742"><ele>605.6666666666666</ele><time>2026-03-29T10:03:11.595Z</time></trkpt><trkpt lat="44.4639449" lon="7.3750827"><ele>605.5</ele><time>2026-03-29T10:03:12.594Z</time></trkpt><trkpt lat="44.4639352" lon="7.3751883"><ele>605.3333333333333</ele><time>2026-03-29T10:03:13.594Z</time></trkpt><trkpt lat="44.4639313" lon="7.3752979"><ele>605.1666666666666</ele><time>2026-03-29T10:03:14.594Z</time></trkpt><trkpt lat="44.4639249" lon="7.3754064"><ele>605.0</ele><time>2026-03-29T10:03:15.595Z</time></trkpt><trkpt lat="44.4639213" lon="7.3755085"><ele>605.0</ele><time>2026-03-29T10:03:16.595Z</time></trkpt><trkpt lat="44.4639192" lon="7.3756152"><ele>605.0</ele><time>2026-03-29T10:03:17.595Z</time></trkpt><trkpt lat="44.4639143" lon="7.3757173"><ele>605.0</ele><time>2026-03-29T10:03:18.594Z</time></trkpt><trkpt lat="44.4639191" lon="7.3758237"><ele>605.0</ele><time>2026-03-29T10:03:19.594Z</time></trkpt><trkpt lat="44.4639159" lon="7.3759356"><ele>605.0</ele><time>2026-03-29T10:03:20.594Z</time></trkpt><trkpt lat="44.463911" lon="7.3760451"><ele>605.0</ele><time>2026-03-29T10:03:21.595Z</time></trkpt><trkpt lat="44.4639101" lon="7.3761597"><ele>605.0</ele><time>2026-03-29T10:03:22.594Z</time></trkpt><trkpt lat="44.4639043" lon="7.376273"><ele>605.0</ele><time>2026-03-29T10:03:23.594Z</time></trkpt><trkpt lat="44.4639017" lon="7.3763852"><ele>605.0</ele><time>2026-03-29T10:03:24.594Z</time></trkpt><trkpt lat="44.4638974" lon="7.3765012"><ele>605.0</ele><time>2026-03-29T10:03:25.594Z</time></trkpt><trkpt lat="44.4638965" lon="7.3766116"><ele>605.0</ele><time>2026-03-29T10:03:26.595Z</time></trkpt><trkpt lat="44.4638967" lon="7.3767235"><ele>605.0</ele><time>2026-03-29T10:03:27.593Z</time></trkpt><trkpt lat="44.4638935" lon="7.3768354"><ele>604.8333333333333</ele><time>2026-03-29T10:03:28.594Z</time></trkpt><trkpt lat="44.4638899" lon="7.3769464"><ele>604.6666666666666</ele><time>2026-03-29T10:03:29.593Z</time></trkpt><trkpt lat="44.463884" lon="7.3770573"><ele>604.5</ele><time>2026-03-29T10:03:30.593Z</time></trkpt><trkpt lat="44.463878" lon="7.3771691"><ele>604.3333333333334</ele><time>2026-03-29T10:03:31.593Z</time></trkpt><trkpt lat="44.4638703" lon="7.3772783"><ele>604.1666666666667</ele><time>2026-03-29T10:03:32.594Z</time></trkpt><trkpt lat="44.4638629" lon="7.3773877"><ele>604.0</ele><time>2026-03-29T10:03:33.594Z</time></trkpt><trkpt lat="44.4638583" lon="7.3774952"><ele>603.8571428571429</ele><time>2026-03-29T10:03:34.593Z</time></trkpt><trkpt lat="44.4638531" lon="7.3776025"><ele>603.7142857142858</ele><time>2026-03-29T10:03:35.593Z</time></trkpt><trkpt lat="44.4638489" lon="7.37771"><ele>603.5714285714287</ele><time>2026-03-29T10:03:36.593Z</time></trkpt><trkpt lat="44.4638461" lon="7.3778121"><ele>603.4285714285714</ele><time>2026-03-29T10:03:37.593Z</time></trkpt><trkpt lat="44.4638414" lon="7.3779143"><ele>603.2857142857142</ele><time>2026-03-29T10:03:38.594Z</time></trkpt><trkpt lat="44.4638346" lon="7.3780163"><ele>603.1428571428572</ele><time>2026-03-29T10:03:39.593Z</time></trkpt><trkpt lat="44.4638319" lon="7.3781203"><ele>603.0</ele><time>2026-03-29T10:03:40.594Z</time></trkpt><trkpt lat="44.4638269" lon="7.3782213"><ele>603.0</ele><time>2026-03-29T10:03:41.594Z</time></trkpt><trkpt lat="44.4638204" lon="7.3783208"><ele>603.0</ele><time>2026-03-29T10:03:42.593Z</time></trkpt><trkpt lat="44.4638162" lon="7.3784161"><ele>603.0</ele><time>2026-03-29T10:03:43.594Z</time></trkpt><trkpt lat="44.4638073" lon="7.3785152"><ele>603.0</ele><time>2026-03-29T10:03:44.594Z</time></trkpt><trkpt lat="44.4638007" lon="7.3786084"><ele>603.0</ele><time>2026-03-29T10:03:45.594Z</time></trkpt><trkpt lat="44.4637972" lon="7.3787006"><ele>603.0</ele><time>2026-03-29T10:03:46.593Z</time></trkpt><trkpt lat="44.463797" lon="7.3788691"><ele>603.0</ele><time>2026-03-29T10:03:48.593Z</time></trkpt><trkpt lat="44.4638051" lon="7.3790405"><ele>603.0</ele><time>2026-03-29T10:03:50.594Z</time></trkpt><trkpt lat="44.4638031" lon="7.3792123"><ele>603.0</ele><time>2026-03-29T10:03:52.593Z</time></trkpt><trkpt lat="44.4638069" lon="7.3793869"><ele>603.0</ele><time>2026-03-29T10:03:54.593Z</time></trkpt><trkpt lat="44.4638185" lon="7.3794823"><ele>603.0</ele><time>2026-03-29T10:03:55.593Z</time></trkpt><trkpt lat="44.4638313" lon="7.3795763"><ele>603.0</ele><time>2026-03-29T10:03:56.594Z</time></trkpt><trkpt lat="44.4638349" lon="7.3796811"><ele>603.0</ele><time>2026-03-29T10:03:57.594Z</time></trkpt><trkpt lat="44.4638426" lon="7.379785"><ele>603.0</ele><time>2026-03-29T10:03:58.593Z</time></trkpt><trkpt lat="44.4638512" lon="7.3798911"><ele>603.0</ele><time>2026-03-29T10:03:59.594Z</time></trkpt><trkpt lat="44.4638563" lon="7.3799945"><ele>603.0</ele><time>2026-03-29T10:04:00.594Z</time></trkpt><trkpt lat="44.4638616" lon="7.3800991"><ele>603.0</ele><time>2026-03-29T10:04:01.593Z</time></trkpt><trkpt lat="44.4638661" lon="7.3802062"><ele>603.0</ele><time>2026-03-29T10:04:02.594Z</time></trkpt><trkpt lat="44.463869" lon="7.38031"><ele>603.0</ele><time>2026-03-29T10:04:03.593Z</time></trkpt><trkpt lat="44.4638721" lon="7.3804111"><ele>603.0</ele><time>2026-03-29T10:04:04.594Z</time></trkpt><trkpt lat="44.4638763" lon="7.3805157"><ele>603.0</ele><time>2026-03-29T10:04:05.594Z</time></trkpt><trkpt lat="44.4638796" lon="7.3806208"><ele>603.0</ele><time>2026-03-29T10:04:06.593Z</time></trkpt><trkpt lat="44.4638819" lon="7.3807278"><ele>603.0</ele><time>2026-03-29T10:04:07.593Z</time></trkpt><trkpt lat="44.4638847" lon="7.380832"><ele>603.0</ele><time>2026-03-29T10:04:08.593Z</time></trkpt><trkpt lat="44.463889" lon="7.380935"><ele>602.7142857142858</ele><time>2026-03-29T10:04:09.593Z</time></trkpt><trkpt lat="44.4638927" lon="7.3810368"><ele>602.4285714285713</ele><time>2026-03-29T10:04:10.593Z</time></trkpt><trkpt lat="44.4638974" lon="7.38114"><ele>602.1428571428571</ele><time>2026-03-29T10:04:11.593Z</time></trkpt><trkpt lat="44.463907" lon="7.3812427"><ele>601.8571428571429</ele><time>2026-03-29T10:04:12.593Z</time></trkpt><trkpt lat="44.4639144" lon="7.3813456"><ele>601.5714285714287</ele><time>2026-03-29T10:04:13.593Z</time></trkpt><trkpt lat="44.4639223" lon="7.3814487"><ele>601.2857142857142</ele><time>2026-03-29T10:04:14.593Z</time></trkpt><trkpt lat="44.46393" lon="7.3815528"><ele>601.0</ele><time>2026-03-29T10:04:15.594Z</time></trkpt><trkpt lat="44.4639311" lon="7.3816528"><ele>601.0</ele><time>2026-03-29T10:04:16.593Z</time></trkpt><trkpt lat="44.463935" lon="7.3817548"><ele>601.0</ele><time>2026-03-29T10:04:17.593Z</time></trkpt><trkpt lat="44.4639398" lon="7.3818626"><ele>601.0</ele><time>2026-03-29T10:04:18.594Z</time></trkpt><trkpt lat="44.4639449" lon="7.3819699"><ele>601.0</ele><time>2026-03-29T10:04:19.594Z</time></trkpt><trkpt lat="44.4639478" lon="7.3820703"><ele>601.0</ele><time>2026-03-29T10:04:20.594Z</time></trkpt><trkpt lat="44.4639457" lon="7.3821674"><ele>601.0</ele><time>2026-03-29T10:04:21.593Z</time></trkpt><trkpt lat="44.4639405" lon="7.3822715"><ele>601.0</ele><time>2026-03-29T10:04:22.594Z</time></trkpt><trkpt lat="44.4639302" lon="7.3823748"><ele>600.8571428571428</ele><time>2026-03-29T10:04:23.592Z</time></trkpt><trkpt lat="44.4639173" lon="7.3824795"><ele>600.7142857142858</ele><time>2026-03-29T10:04:24.594Z</time></trkpt><trkpt lat="44.4639" lon="7.3825783"><ele>600.5714285714286</ele><time>2026-03-29T10:04:25.594Z</time></trkpt><trkpt lat="44.4638832" lon="7.3826804"><ele>600.4285714285713</ele><time>2026-03-29T10:04:26.594Z</time></trkpt><trkpt lat="44.463869" lon="7.3827847"><ele>600.2857142857142</ele><time>2026-03-29T10:04:27.593Z</time></trkpt><trkpt lat="44.4638532" lon="7.382885"><ele>600.1428571428571</ele><time>2026-03-29T10:04:28.594Z</time></trkpt><trkpt lat="44.4638353" lon="7.3829848"><ele>600.0</ele><time>2026-03-29T10:04:29.594Z</time></trkpt><trkpt lat="44.4638144" lon="7.3830828"><ele>599.8</ele><time>2026-03-29T10:04:30.594Z</time></trkpt><trkpt lat="44.4637947" lon="7.3831788"><ele>599.6</ele><time>2026-03-29T10:04:31.593Z</time></trkpt><trkpt lat="44.4637763" lon="7.3832682"><ele>599.4</ele><time>2026-03-29T10:04:32.592Z</time></trkpt><trkpt lat="44.463755" lon="7.3834236"><ele>599.2</ele><time>2026-03-29T10:04:34.592Z</time></trkpt><trkpt lat="44.4637894" lon="7.3835522"><ele>599.0</ele><time>2026-03-29T10:04:36.593Z</time></trkpt><trkpt lat="44.4638862" lon="7.3836138"><ele>599.0</ele><time>2026-03-29T10:04:38.594Z</time></trkpt><trkpt lat="44.4639994" lon="7.3836219"><ele>599.0</ele><time>2026-03-29T10:04:40.593Z</time></trkpt><trkpt lat="44.4641061" lon="7.3836201"><ele>599.0</ele><time>2026-03-29T10:04:42.593Z</time></trkpt><trkpt lat="44.4642068" lon="7.3836207"><ele>599.0</ele><time>2026-03-29T10:04:44.593Z</time></trkpt><trkpt lat="44.4643129" lon="7.383616"><ele>599.0</ele><time>2026-03-29T10:04:46.594Z</time></trkpt><trkpt lat="44.4644131" lon="7.3836091"><ele>599.0</ele><time>2026-03-29T10:04:48.593Z</time></trkpt><trkpt lat="44.4645174" lon="7.3836322"><ele>599.0</ele><time>2026-03-29T10:04:50.593Z</time></trkpt><trkpt lat="44.4645842" lon="7.3837443"><ele>599.0</ele><time>2026-03-29T10:04:52.594Z</time></trkpt><trkpt lat="44.4646017" lon="7.3838993"><ele>599.0</ele><time>2026-03-29T10:04:54.594Z</time></trkpt><trkpt lat="44.4646215" lon="7.3840624"><ele>599.0</ele><time>2026-03-29T10:04:56.593Z</time></trkpt><trkpt lat="44.4646315" lon="7.38415"><ele>598.6666666666666</ele><time>2026-03-29T10:04:57.594Z</time></trkpt><trkpt lat="44.4646547" lon="7.3843239"><ele>598.3333333333333</ele><time>2026-03-29T10:04:59.594Z</time></trkpt><trkpt lat="44.464668" lon="7.3844138"><ele>598.0</ele><time>2026-03-29T10:05:00.593Z</time></trkpt><trkpt lat="44.4646787" lon="7.3845036"><ele>597.6666666666666</ele><time>2026-03-29T10:05:01.594Z</time></trkpt><trkpt lat="44.4646872" lon="7.3845992"><ele>597.3333333333334</ele><time>2026-03-29T10:05:02.594Z</time></trkpt><trkpt lat="44.4646959" lon="7.3846929"><ele>597.0</ele><time>2026-03-29T10:05:03.593Z</time></trkpt><trkpt lat="44.4647074" lon="7.3847867"><ele>596.8571428571429</ele><time>2026-03-29T10:05:04.594Z</time></trkpt><trkpt lat="44.4647155" lon="7.3848843"><ele>596.7142857142858</ele><time>2026-03-29T10:05:05.594Z</time></trkpt><trkpt lat="44.4647219" lon="7.3849806"><ele>596.5714285714286</ele><time>2026-03-29T10:05:06.594Z</time></trkpt><trkpt lat="44.4647314" lon="7.3850774"><ele>596.4285714285714</ele><time>2026-03-29T10:05:07.594Z</time></trkpt><trkpt lat="44.4647461" lon="7.3851732"><ele>596.2857142857142</ele><time>2026-03-29T10:05:08.593Z</time></trkpt><trkpt lat="44.4647572" lon="7.3852712"><ele>596.1428571428571</ele><time>2026-03-29T10:05:09.593Z</time></trkpt><trkpt lat="44.4647701" lon="7.3853691"><ele>596.0</ele><time>2026-03-29T10:05:10.593Z</time></trkpt><trkpt lat="44.4647844" lon="7.3854683"><ele>596.1666666666666</ele><time>2026-03-29T10:05:11.594Z</time></trkpt><trkpt lat="44.4648015" lon="7.3855682"><ele>596.3333333333333</ele><time>2026-03-29T10:05:12.593Z</time></trkpt><trkpt lat="44.4648145" lon="7.3856689"><ele>596.5</ele><time>2026-03-29T10:05:13.593Z</time></trkpt><trkpt lat="44.4648233" lon="7.3857715"><ele>596.6666666666666</ele><time>2026-03-29T10:05:14.593Z</time></trkpt><trkpt lat="44.4648354" lon="7.385875"><ele>596.8333333333334</ele><time>2026-03-29T10:05:15.594Z</time></trkpt><trkpt lat="44.4648474" lon="7.3859812"><ele>597.0</ele><time>2026-03-29T10:05:16.593Z</time></trkpt><trkpt lat="44.4648594" lon="7.386092"><ele>597.0</ele><time>2026-03-29T10:05:17.594Z</time></trkpt><trkpt lat="44.4648717" lon="7.386203"><ele>597.0</ele><time>2026-03-29T10:05:18.594Z</time></trkpt><trkpt lat="44.4648819" lon="7.3863146"><ele>597.0</ele><time>2026-03-29T10:05:19.593Z</time></trkpt><trkpt lat="44.4648918" lon="7.386426"><ele>597.0</ele><time>2026-03-29T10:05:20.593Z</time></trkpt><trkpt lat="44.4649041" lon="7.3865381"><ele>597.0</ele><time>2026-03-29T10:05:21.593Z</time></trkpt><trkpt lat="44.4649157" lon="7.3866523"><ele>597.0</ele><time>2026-03-29T10:05:22.593Z</time></trkpt><trkpt lat="44.4649287" lon="7.3867701"><ele>596.8333333333334</ele><time>2026-03-29T10:05:23.594Z</time></trkpt><trkpt lat="44.4649421" lon="7.386884"><ele>596.6666666666666</ele><time>2026-03-29T10:05:24.593Z</time></trkpt><trkpt lat="44.4649543" lon="7.386997"><ele>596.5</ele><time>2026-03-29T10:05:25.593Z</time></trkpt><trkpt lat="44.4649688" lon="7.3871123"><ele>596.3333333333333</ele><time>2026-03-29T10:05:26.593Z</time></trkpt><trkpt lat="44.4649806" lon="7.3872226"><ele>596.1666666666666</ele><time>2026-03-29T10:05:27.594Z</time></trkpt><trkpt lat="44.4649926" lon="7.3873329"><ele>596.0</ele><time>2026-03-29T10:05:28.593Z</time></trkpt><trkpt lat="44.4650034" lon="7.387444"><ele>595.5714285714286</ele><time>2026-03-29T10:05:29.594Z</time></trkpt><trkpt lat="44.4650146" lon="7.3875511"><ele>595.1428571428571</ele><time>2026-03-29T10:05:30.594Z</time></trkpt><trkpt lat="44.4650249" lon="7.3876563"><ele>594.7142857142857</ele><time>2026-03-29T10:05:31.593Z</time></trkpt><trkpt lat="44.4650392" lon="7.3877575"><ele>594.2857142857142</ele><time>2026-03-29T10:05:32.594Z</time></trkpt><trkpt lat="44.465052" lon="7.3878571"><ele>593.8571428571429</ele><time>2026-03-29T10:05:33.593Z</time></trkpt><trkpt lat="44.4650647" lon="7.3879563"><ele>593.4285714285713</ele><time>2026-03-29T10:05:34.592Z</time></trkpt><trkpt lat="44.4650774" lon="7.3880554"><ele>593.0</ele><time>2026-03-29T10:05:35.593Z</time></trkpt><trkpt lat="44.4650847" lon="7.3881538"><ele>592.9999999999999</ele><time>2026-03-29T10:05:36.593Z</time></trkpt><trkpt lat="44.46509" lon="7.3882523"><ele>593.0</ele><time>2026-03-29T10:05:37.593Z</time></trkpt><trkpt lat="44.4650917" lon="7.3883518"><ele>593.0</ele><time>2026-03-29T10:05:38.593Z</time></trkpt><trkpt lat="44.4650927" lon="7.3884513"><ele>593.0</ele><time>2026-03-29T10:05:39.593Z</time></trkpt><trkpt lat="44.4650948" lon="7.388549"><ele>593.0</ele><time>2026-03-29T10:05:40.593Z</time></trkpt><trkpt lat="44.4650929" lon="7.3886469"><ele>592.9999999999999</ele><time>2026-03-29T10:05:41.594Z</time></trkpt><trkpt lat="44.4650942" lon="7.3887451"><ele>593.0</ele><time>2026-03-29T10:05:42.593Z</time></trkpt><trkpt lat="44.4650938" lon="7.3888441"><ele>592.8571428571428</ele><time>2026-03-29T10:05:43.594Z</time></trkpt><trkpt lat="44.4650895" lon="7.3889413"><ele>592.7142857142857</ele><time>2026-03-29T10:05:44.593Z</time></trkpt><trkpt lat="44.4650831" lon="7.389037"><ele>592.5714285714286</ele><time>2026-03-29T10:05:45.594Z</time></trkpt><trkpt lat="44.4650789" lon="7.3891314"><ele>592.4285714285713</ele><time>2026-03-29T10:05:46.594Z</time></trkpt><trkpt lat="44.4650792" lon="7.389226"><ele>592.2857142857142</ele><time>2026-03-29T10:05:47.593Z</time></trkpt><trkpt lat="44.4650817" lon="7.3893213"><ele>592.1428571428571</ele><time>2026-03-29T10:05:48.594Z</time></trkpt><trkpt lat="44.4650775" lon="7.3894169"><ele>592.0</ele><time>2026-03-29T10:05:49.593Z</time></trkpt><trkpt lat="44.4650739" lon="7.38951"><ele>592.0</ele><time>2026-03-29T10:05:50.593Z</time></trkpt><trkpt lat="44.4650723" lon="7.3896008"><ele>592.0</ele><time>2026-03-29T10:05:51.594Z</time></trkpt><trkpt lat="44.4650673" lon="7.3896939"><ele>592.0</ele><time>2026-03-29T10:05:52.594Z</time></trkpt><trkpt lat="44.4650648" lon="7.3897852"><ele>592.0</ele><time>2026-03-29T10:05:53.593Z</time></trkpt><trkpt lat="44.4650628" lon="7.3898794"><ele>592.0</ele><time>2026-03-29T10:05:54.593Z</time></trkpt><trkpt lat="44.4650624" lon="7.3899714"><ele>592.0</ele><time>2026-03-29T10:05:55.592Z</time></trkpt><trkpt lat="44.465069" lon="7.3900626"><ele>592.0</ele><time>2026-03-29T10:05:56.593Z</time></trkpt><trkpt lat="44.4650742" lon="7.3901595"><ele>591.5</ele><time>2026-03-29T10:05:57.593Z</time></trkpt><trkpt lat="44.4650793" lon="7.3902618"><ele>591.0</ele><time>2026-03-29T10:05:58.593Z</time></trkpt><trkpt lat="44.4650836" lon="7.3903677"><ele>590.5</ele><time>2026-03-29T10:05:59.593Z</time></trkpt><trkpt lat="44.4650888" lon="7.3904743"><ele>590.0</ele><time>2026-03-29T10:06:00.594Z</time></trkpt><trkpt lat="44.4650967" lon="7.3905796"><ele>589.5</ele><time>2026-03-29T10:06:01.594Z</time></trkpt><trkpt lat="44.4651008" lon="7.3906884"><ele>589.0</ele><time>2026-03-29T10:06:02.594Z</time></trkpt><trkpt lat="44.4651089" lon="7.3907953"><ele>589.0</ele><time>2026-03-29T10:06:03.592Z</time></trkpt><trkpt lat="44.4651214" lon="7.3909042"><ele>589.0</ele><time>2026-03-29T10:06:04.592Z</time></trkpt><trkpt lat="44.4651421" lon="7.3910112"><ele>589.0</ele><time>2026-03-29T10:06:05.593Z</time></trkpt><trkpt lat="44.4651701" lon="7.3911228"><ele>589.0</ele><time>2026-03-29T10:06:06.594Z</time></trkpt><trkpt lat="44.4652002" lon="7.3912348"><ele>589.0</ele><time>2026-03-29T10:06:07.594Z</time></trkpt><trkpt lat="44.4652335" lon="7.3913485"><ele>589.0</ele><time>2026-03-29T10:06:08.594Z</time></trkpt><trkpt lat="44.4652683" lon="7.3914614"><ele>589.1666666666667</ele><time>2026-03-29T10:06:09.594Z</time></trkpt><trkpt lat="44.4652999" lon="7.3915749"><ele>589.3333333333334</ele><time>2026-03-29T10:06:10.594Z</time></trkpt><trkpt lat="44.465332" lon="7.3916896"><ele>589.5</ele><time>2026-03-29T10:06:11.593Z</time></trkpt><trkpt lat="44.465363" lon="7.3917998"><ele>589.6666666666666</ele><time>2026-03-29T10:06:12.594Z</time></trkpt><trkpt lat="44.4653923" lon="7.3919098"><ele>589.8333333333333</ele><time>2026-03-29T10:06:13.594Z</time></trkpt><trkpt lat="44.4654223" lon="7.3920166"><ele>590.0</ele><time>2026-03-29T10:06:14.593Z</time></trkpt><trkpt lat="44.4654501" lon="7.3921223"><ele>590.0</ele><time>2026-03-29T10:06:15.594Z</time></trkpt><trkpt lat="44.4654776" lon="7.3922235"><ele>590.0</ele><time>2026-03-29T10:06:16.593Z</time></trkpt><trkpt lat="44.4655075" lon="7.3923201"><ele>590.0</ele><time>2026-03-29T10:06:17.593Z</time></trkpt><trkpt lat="44.4655356" lon="7.3924161"><ele>590.0</ele><time>2026-03-29T10:06:18.592Z</time></trkpt><trkpt lat="44.465565" lon="7.3925107"><ele>590.0</ele><time>2026-03-29T10:06:19.594Z</time></trkpt><trkpt lat="44.4655945" lon="7.3926074"><ele>590.0</ele><time>2026-03-29T10:06:20.594Z</time></trkpt><trkpt lat="44.4656226" lon="7.3927051"><ele>590.0000000000001</ele><time>2026-03-29T10:06:21.592Z</time></trkpt><trkpt lat="44.4656415" lon="7.3928045"><ele>590.0</ele><time>2026-03-29T10:06:22.593Z</time></trkpt><trkpt lat="44.4656611" lon="7.3929043"><ele>590.0</ele><time>2026-03-29T10:06:23.593Z</time></trkpt><trkpt lat="44.4656817" lon="7.3930003"><ele>590.0</ele><time>2026-03-29T10:06:24.593Z</time></trkpt><trkpt lat="44.4657003" lon="7.3930971"><ele>590.0</ele><time>2026-03-29T10:06:25.593Z</time></trkpt><trkpt lat="44.4657183" lon="7.3931936"><ele>590.0000000000001</ele><time>2026-03-29T10:06:26.593Z</time></trkpt><trkpt lat="44.4657367" lon="7.3932883"><ele>590.0</ele><time>2026-03-29T10:06:27.593Z</time></trkpt><trkpt lat="44.4657558" lon="7.3933829"><ele>589.6666666666666</ele><time>2026-03-29T10:06:28.593Z</time></trkpt><trkpt lat="44.4657734" lon="7.3934749"><ele>589.3333333333333</ele><time>2026-03-29T10:06:29.593Z</time></trkpt><trkpt lat="44.4657901" lon="7.3935645"><ele>589.0</ele><time>2026-03-29T10:06:30.593Z</time></trkpt><trkpt lat="44.465817" lon="7.3937243"><ele>588.6666666666666</ele><time>2026-03-29T10:06:32.594Z</time></trkpt><trkpt lat="44.4658556" lon="7.3938456"><ele>588.3333333333334</ele><time>2026-03-29T10:06:34.593Z</time></trkpt><trkpt lat="44.4659473" lon="7.3938797"><ele>588.0</ele><time>2026-03-29T10:06:36.593Z</time></trkpt><trkpt lat="44.4660374" lon="7.3938635"><ele>587.6</ele><time>2026-03-29T10:06:38.593Z</time></trkpt><trkpt lat="44.4661243" lon="7.3938567"><ele>587.1999999999999</ele><time>2026-03-29T10:06:40.594Z</time></trkpt><trkpt lat="44.4662175" lon="7.3938545"><ele>586.8</ele><time>2026-03-29T10:06:42.593Z</time></trkpt><trkpt lat="44.4663128" lon="7.3938394"><ele>586.4</ele><time>2026-03-29T10:06:44.594Z</time></trkpt><trkpt lat="44.4664144" lon="7.3938197"><ele>586.0</ele><time>2026-03-29T10:06:46.594Z</time></trkpt><trkpt lat="44.4665379" lon="7.3938063"><ele>586.0</ele><time>2026-03-29T10:06:48.594Z</time></trkpt><trkpt lat="44.4666014" lon="7.3938045"><ele>586.0</ele><time>2026-03-29T10:06:49.593Z</time></trkpt><trkpt lat="44.4667112" lon="7.3938003"><ele>586.0</ele><time>2026-03-29T10:06:51.594Z</time></trkpt><trkpt lat="44.4668008" lon="7.3937987"><ele>586.0</ele><time>2026-03-29T10:06:53.594Z</time></trkpt><trkpt lat="44.466863" lon="7.3938162"><ele>586.0</ele><time>2026-03-29T10:06:55.594Z</time></trkpt><trkpt lat="44.466893" lon="7.3939053"><ele>586.0</ele><time>2026-03-29T10:06:57.593Z</time></trkpt><trkpt lat="44.466891" lon="7.3940261"><ele>585.8</ele><time>2026-03-29T10:06:59.593Z</time></trkpt><trkpt lat="44.4668778" lon="7.3941671"><ele>585.6</ele><time>2026-03-29T10:07:01.592Z</time></trkpt><trkpt lat="44.4668614" lon="7.3943138"><ele>585.4</ele><time>2026-03-29T10:07:03.593Z</time></trkpt><trkpt lat="44.466847" lon="7.3944691"><ele>585.2</ele><time>2026-03-29T10:07:05.593Z</time></trkpt><trkpt lat="44.4668287" lon="7.3946285"><ele>585.0</ele><time>2026-03-29T10:07:07.594Z</time></trkpt><trkpt lat="44.4668184" lon="7.3947189"><ele>585.0</ele><time>2026-03-29T10:07:08.593Z</time></trkpt><trkpt lat="44.4668123" lon="7.3948069"><ele>585.0</ele><time>2026-03-29T10:07:09.593Z</time></trkpt><trkpt lat="44.4667975" lon="7.3949827"><ele>585.0</ele><time>2026-03-29T10:07:11.594Z</time></trkpt><trkpt lat="44.4667784" lon="7.3951539"><ele>585.0</ele><time>2026-03-29T10:07:13.594Z</time></trkpt><trkpt lat="44.4667644" lon="7.3953234"><ele>585.0</ele><time>2026-03-29T10:07:15.594Z</time></trkpt><trkpt lat="44.4667536" lon="7.3954892"><ele>584.6</ele><time>2026-03-29T10:07:17.593Z</time></trkpt><trkpt lat="44.4667344" lon="7.3956554"><ele>584.2</ele><time>2026-03-29T10:07:19.594Z</time></trkpt><trkpt lat="44.4667176" lon="7.3958284"><ele>583.8</ele><time>2026-03-29T10:07:21.593Z</time></trkpt><trkpt lat="44.4667094" lon="7.3959176"><ele>583.4</ele><time>2026-03-29T10:07:22.594Z</time></trkpt><trkpt lat="44.4666848" lon="7.3960827"><ele>583.0</ele><time>2026-03-29T10:07:24.593Z</time></trkpt><trkpt lat="44.4666532" lon="7.3962304"><ele>583.0</ele><time>2026-03-29T10:07:26.593Z</time></trkpt><trkpt lat="44.4666624" lon="7.3963709"><ele>583.0</ele><time>2026-03-29T10:07:28.594Z</time></trkpt><trkpt lat="44.4667009" lon="7.3964772"><ele>583.0</ele><time>2026-03-29T10:07:30.593Z</time></trkpt><trkpt lat="44.4666935" lon="7.3965922"><ele>583.0</ele><time>2026-03-29T10:07:32.594Z</time></trkpt><trkpt lat="44.4666692" lon="7.3966986"><ele>583.0</ele><time>2026-03-29T10:07:34.594Z</time></trkpt><trkpt lat="44.4666456" lon="7.3967912"><ele>583.0</ele><time>2026-03-29T10:07:36.593Z</time></trkpt><trkpt lat="44.4666158" lon="7.3968774"><ele>583.0</ele><time>2026-03-29T10:07:38.593Z</time></trkpt><trkpt lat="44.466585" lon="7.3969811"><ele>583.0</ele><time>2026-03-29T10:07:40.594Z</time></trkpt><trkpt lat="44.466573" lon="7.397107"><ele>583.0</ele><time>2026-03-29T10:07:42.594Z</time></trkpt><trkpt lat="44.4665795" lon="7.3972361"><ele>583.0</ele><time>2026-03-29T10:07:44.592Z</time></trkpt><trkpt lat="44.4665911" lon="7.3973718"><ele>583.0</ele><time>2026-03-29T10:07:46.594Z</time></trkpt><trkpt lat="44.4665838" lon="7.3975176"><ele>582.4</ele><time>2026-03-29T10:07:48.594Z</time></trkpt><trkpt lat="44.4665592" lon="7.3976623"><ele>581.8</ele><time>2026-03-29T10:07:50.594Z</time></trkpt><trkpt lat="44.4664967" lon="7.397793"><ele>581.2</ele><time>2026-03-29T10:07:52.593Z</time></trkpt><trkpt lat="44.4664386" lon="7.3979281"><ele>580.6</ele><time>2026-03-29T10:07:54.594Z</time></trkpt><trkpt lat="44.4663931" lon="7.3980688"><ele>580.0</ele><time>2026-03-29T10:07:56.593Z</time></trkpt><trkpt lat="44.4663595" lon="7.3982023"><ele>579.6</ele><time>2026-03-29T10:07:58.593Z</time></trkpt><trkpt lat="44.4663386" lon="7.3983485"><ele>579.2</ele><time>2026-03-29T10:08:00.594Z</time></trkpt><trkpt lat="44.4663372" lon="7.3984958"><ele>578.8</ele><time>2026-03-29T10:08:02.594Z</time></trkpt><trkpt lat="44.466322" lon="7.3986473"><ele>578.4</ele><time>2026-03-29T10:08:04.593Z</time></trkpt><trkpt lat="44.4663359" lon="7.3987349"><ele>578.0</ele><time>2026-03-29T10:08:05.593Z</time></trkpt><trkpt lat="44.466324" lon="7.3988789"><ele>577.8</ele><time>2026-03-29T10:08:07.594Z</time></trkpt><trkpt lat="44.4663087" lon="7.399023"><ele>577.5999999999999</ele><time>2026-03-29T10:08:09.593Z</time></trkpt><trkpt lat="44.466284" lon="7.3991638"><ele>577.4000000000001</ele><time>2026-03-29T10:08:11.593Z</time></trkpt><trkpt lat="44.466262" lon="7.3993046"><ele>577.2</ele><time>2026-03-29T10:08:13.594Z</time></trkpt><trkpt lat="44.4662389" lon="7.3994337"><ele>577.0</ele><time>2026-03-29T10:08:15.594Z</time></trkpt><trkpt lat="44.4662348" lon="7.3995693"><ele>577.8333333333334</ele><time>2026-03-29T10:08:17.594Z</time></trkpt><trkpt lat="44.466212" lon="7.3997327"><ele>578.6666666666667</ele><time>2026-03-29T10:08:19.593Z</time></trkpt><trkpt lat="44.4661983" lon="7.3998197"><ele>579.5</ele><time>2026-03-29T10:08:20.594Z</time></trkpt><trkpt lat="44.4661886" lon="7.3999119"><ele>580.3333333333334</ele><time>2026-03-29T10:08:21.593Z</time></trkpt><trkpt lat="44.4661874" lon="7.4000138"><ele>581.1666666666666</ele><time>2026-03-29T10:08:22.594Z</time></trkpt><trkpt lat="44.4661991" lon="7.4001122"><ele>582.0</ele><time>2026-03-29T10:08:23.593Z</time></trkpt><trkpt lat="44.4662239" lon="7.4002039"><ele>582.0</ele><time>2026-03-29T10:08:24.594Z</time></trkpt><trkpt lat="44.4662484" lon="7.4002928"><ele>582.0</ele><time>2026-03-29T10:08:25.594Z</time></trkpt><trkpt lat="44.4663024" lon="7.4004345"><ele>582.0</ele><time>2026-03-29T10:08:27.594Z</time></trkpt><trkpt lat="44.4663534" lon="7.4005611"><ele>582.0</ele><time>2026-03-29T10:08:29.594Z</time></trkpt><trkpt lat="44.4663975" lon="7.4006882"><ele>582.0</ele><time>2026-03-29T10:08:31.593Z</time></trkpt><trkpt lat="44.4664433" lon="7.4008123"><ele>581.0</ele><time>2026-03-29T10:08:33.594Z</time></trkpt><trkpt lat="44.4664961" lon="7.4009376"><ele>580.0</ele><time>2026-03-29T10:08:35.593Z</time></trkpt><trkpt lat="44.4665395" lon="7.4010757"><ele>579.0</ele><time>2026-03-29T10:08:37.594Z</time></trkpt><trkpt lat="44.466573" lon="7.4012153"><ele>578.0</ele><time>2026-03-29T10:08:39.593Z</time></trkpt><trkpt lat="44.4665834" lon="7.4013665"><ele>577.0</ele><time>2026-03-29T10:08:41.594Z</time></trkpt><trkpt lat="44.4666037" lon="7.4015302"><ele>576.8333333333334</ele><time>2026-03-29T10:08:43.593Z</time></trkpt><trkpt lat="44.4666157" lon="7.4017065"><ele>576.6666666666667</ele><time>2026-03-29T10:08:45.593Z</time></trkpt><trkpt lat="44.466625" lon="7.4018002"><ele>576.5</ele><time>2026-03-29T10:08:46.593Z</time></trkpt><trkpt lat="44.4666374" lon="7.4018871"><ele>576.3333333333334</ele><time>2026-03-29T10:08:47.593Z</time></trkpt><trkpt lat="44.4666462" lon="7.4019789"><ele>576.1666666666666</ele><time>2026-03-29T10:08:48.594Z</time></trkpt><trkpt lat="44.4666581" lon="7.4020697"><ele>576.0</ele><time>2026-03-29T10:08:49.594Z</time></trkpt><trkpt lat="44.4666714" lon="7.4021605"><ele>576.0000000000001</ele><time>2026-03-29T10:08:50.593Z</time></trkpt><trkpt lat="44.4666848" lon="7.4022505"><ele>576.0</ele><time>2026-03-29T10:08:51.593Z</time></trkpt><trkpt lat="44.4666966" lon="7.4023406"><ele>576.0</ele><time>2026-03-29T10:08:52.594Z</time></trkpt><trkpt lat="44.4667082" lon="7.4024289"><ele>576.0</ele><time>2026-03-29T10:08:53.593Z</time></trkpt><trkpt lat="44.4667199" lon="7.4025173"><ele>576.0</ele><time>2026-03-29T10:08:54.592Z</time></trkpt><trkpt lat="44.4667306" lon="7.4026045"><ele>576.0000000000001</ele><time>2026-03-29T10:08:55.593Z</time></trkpt><trkpt lat="44.4667409" lon="7.4026944"><ele>576.0</ele><time>2026-03-29T10:08:56.594Z</time></trkpt><trkpt lat="44.4667497" lon="7.4027832"><ele>576.0</ele><time>2026-03-29T10:08:57.593Z</time></trkpt><trkpt lat="44.4667683" lon="7.4029625"><ele>576.0</ele><time>2026-03-29T10:08:59.594Z</time></trkpt><trkpt lat="44.4667773" lon="7.4030513"><ele>576.0</ele><time>2026-03-29T10:09:00.594Z</time></trkpt><trkpt lat="44.4667854" lon="7.4031446"><ele>576.0</ele><time>2026-03-29T10:09:01.594Z</time></trkpt><trkpt lat="44.4667942" lon="7.4032346"><ele>576.0</ele><time>2026-03-29T10:09:02.593Z</time></trkpt><trkpt lat="44.4668028" lon="7.4033235"><ele>576.0</ele><time>2026-03-29T10:09:03.594Z</time></trkpt><trkpt lat="44.4668144" lon="7.4034121"><ele>576.2</ele><time>2026-03-29T10:09:04.593Z</time></trkpt><trkpt lat="44.4668325" lon="7.4035774"><ele>576.4000000000001</ele><time>2026-03-29T10:09:06.594Z</time></trkpt><trkpt lat="44.4668462" lon="7.4037242"><ele>576.6</ele><time>2026-03-29T10:09:08.594Z</time></trkpt><trkpt lat="44.4668515" lon="7.4038588"><ele>576.8000000000001</ele><time>2026-03-29T10:09:10.593Z</time></trkpt><trkpt lat="44.4668496" lon="7.4040057"><ele>577.0</ele><time>2026-03-29T10:09:12.594Z</time></trkpt><trkpt lat="44.4668359" lon="7.404163"><ele>577.0</ele><time>2026-03-29T10:09:14.594Z</time></trkpt><trkpt lat="44.4668065" lon="7.4043292"><ele>577.0</ele><time>2026-03-29T10:09:16.593Z</time></trkpt><trkpt lat="44.4667895" lon="7.4044841"><ele>577.0</ele><time>2026-03-29T10:09:18.593Z</time></trkpt><trkpt lat="44.4667699" lon="7.4046387"><ele>577.0</ele><time>2026-03-29T10:09:20.593Z</time></trkpt><trkpt lat="44.4667502" lon="7.4048161"><ele>577.0</ele><time>2026-03-29T10:09:22.594Z</time></trkpt><trkpt lat="44.4667385" lon="7.4049061"><ele>577.0</ele><time>2026-03-29T10:09:23.592Z</time></trkpt><trkpt lat="44.4667263" lon="7.4049964"><ele>577.0</ele><time>2026-03-29T10:09:24.593Z</time></trkpt><trkpt lat="44.4667172" lon="7.4050882"><ele>577.0</ele><time>2026-03-29T10:09:25.593Z</time></trkpt><trkpt lat="44.4667131" lon="7.4051837"><ele>577.0</ele><time>2026-03-29T10:09:26.593Z</time></trkpt><trkpt lat="44.46671" lon="7.4052798"><ele>577.0</ele><time>2026-03-29T10:09:27.593Z</time></trkpt><trkpt lat="44.4667106" lon="7.4053781"><ele>577.0</ele><time>2026-03-29T10:09:28.593Z</time></trkpt><trkpt lat="44.4667078" lon="7.4054743"><ele>576.8571428571429</ele><time>2026-03-29T10:09:29.593Z</time></trkpt><trkpt lat="44.4667082" lon="7.4055694"><ele>576.7142857142858</ele><time>2026-03-29T10:09:30.593Z</time></trkpt><trkpt lat="44.4667074" lon="7.4056721"><ele>576.5714285714287</ele><time>2026-03-29T10:09:31.593Z</time></trkpt><trkpt lat="44.4667065" lon="7.405772"><ele>576.4285714285714</ele><time>2026-03-29T10:09:32.593Z</time></trkpt><trkpt lat="44.4667031" lon="7.4058742"><ele>576.2857142857143</ele><time>2026-03-29T10:09:33.594Z</time></trkpt><trkpt lat="44.4667013" lon="7.4059766"><ele>576.1428571428572</ele><time>2026-03-29T10:09:34.593Z</time></trkpt><trkpt lat="44.4667064" lon="7.40608"><ele>576.0</ele><time>2026-03-29T10:09:35.594Z</time></trkpt><trkpt lat="44.4667175" lon="7.4061796"><ele>576.0</ele><time>2026-03-29T10:09:36.593Z</time></trkpt><trkpt lat="44.4667262" lon="7.4062845"><ele>576.0</ele><time>2026-03-29T10:09:37.594Z</time></trkpt><trkpt lat="44.4667382" lon="7.4063866"><ele>576.0</ele><time>2026-03-29T10:09:38.593Z</time></trkpt><trkpt lat="44.4667487" lon="7.4064901"><ele>576.0</ele><time>2026-03-29T10:09:39.593Z</time></trkpt><trkpt lat="44.4667574" lon="7.4065971"><ele>576.0</ele><time>2026-03-29T10:09:40.592Z</time></trkpt><trkpt lat="44.4667673" lon="7.4067037"><ele>576.0</ele><time>2026-03-29T10:09:41.593Z</time></trkpt><trkpt lat="44.4667797" lon="7.4068121"><ele>575.8333333333334</ele><time>2026-03-29T10:09:42.594Z</time></trkpt><trkpt lat="44.4667894" lon="7.4069244"><ele>575.6666666666666</ele><time>2026-03-29T10:09:43.593Z</time></trkpt><trkpt lat="44.4668026" lon="7.4070317"><ele>575.5</ele><time>2026-03-29T10:09:44.594Z</time></trkpt><trkpt lat="44.4668161" lon="7.4071398"><ele>575.3333333333333</ele><time>2026-03-29T10:09:45.593Z</time></trkpt><trkpt lat="44.4668283" lon="7.4072464"><ele>575.1666666666666</ele><time>2026-03-29T10:09:46.593Z</time></trkpt><trkpt lat="44.4668382" lon="7.4073527"><ele>575.0</ele><time>2026-03-29T10:09:47.593Z</time></trkpt><trkpt lat="44.4668389" lon="7.4074605"><ele>574.8333333333333</ele><time>2026-03-29T10:09:48.593Z</time></trkpt><trkpt lat="44.4668392" lon="7.4075701"><ele>574.6666666666666</ele><time>2026-03-29T10:09:49.593Z</time></trkpt><trkpt lat="44.4668389" lon="7.407681"><ele>574.5</ele><time>2026-03-29T10:09:50.593Z</time></trkpt><trkpt lat="44.4668373" lon="7.4077932"><ele>574.3333333333334</ele><time>2026-03-29T10:09:51.594Z</time></trkpt><trkpt lat="44.4668373" lon="7.4079029"><ele>574.1666666666667</ele><time>2026-03-29T10:09:52.593Z</time></trkpt><trkpt lat="44.4668443" lon="7.4080105"><ele>574.0</ele><time>2026-03-29T10:09:53.594Z</time></trkpt><trkpt lat="44.4668535" lon="7.4081121"><ele>574.0</ele><time>2026-03-29T10:09:54.593Z</time></trkpt><trkpt lat="44.4668702" lon="7.4082069"><ele>574.0</ele><time>2026-03-29T10:09:55.592Z</time></trkpt><trkpt lat="44.4668929" lon="7.4083005"><ele>574.0</ele><time>2026-03-29T10:09:56.594Z</time></trkpt><trkpt lat="44.4669144" lon="7.4083891"><ele>574.0</ele><time>2026-03-29T10:09:57.593Z</time></trkpt><trkpt lat="44.46694" lon="7.408473"><ele>574.0</ele><time>2026-03-29T10:09:58.594Z</time></trkpt><trkpt lat="44.4669632" lon="7.4085559"><ele>574.0</ele><time>2026-03-29T10:09:59.593Z</time></trkpt><trkpt lat="44.4669856" lon="7.4087264"><ele>574.0</ele><time>2026-03-29T10:10:01.594Z</time></trkpt><trkpt lat="44.4669962" lon="7.4088143"><ele>574.0</ele><time>2026-03-29T10:10:02.592Z</time></trkpt><trkpt lat="44.4670044" lon="7.4089022"><ele>574.0</ele><time>2026-03-29T10:10:03.593Z</time></trkpt><trkpt lat="44.467019" lon="7.4089952"><ele>574.0</ele><time>2026-03-29T10:10:04.594Z</time></trkpt><trkpt lat="44.4670295" lon="7.409088"><ele>574.0</ele><time>2026-03-29T10:10:05.593Z</time></trkpt><trkpt lat="44.4670412" lon="7.4091892"><ele>574.0</ele><time>2026-03-29T10:10:06.593Z</time></trkpt><trkpt lat="44.4670524" lon="7.4092897"><ele>574.0</ele><time>2026-03-29T10:10:07.593Z</time></trkpt><trkpt lat="44.4670677" lon="7.4093835"><ele>574.1428571428571</ele><time>2026-03-29T10:10:08.594Z</time></trkpt><trkpt lat="44.4670823" lon="7.409476"><ele>574.2857142857142</ele><time>2026-03-29T10:10:09.593Z</time></trkpt><trkpt lat="44.4670968" lon="7.4095686"><ele>574.4285714285714</ele><time>2026-03-29T10:10:10.593Z</time></trkpt><trkpt lat="44.4671055" lon="7.4096635"><ele>574.5714285714286</ele><time>2026-03-29T10:10:11.594Z</time></trkpt><trkpt lat="44.4671159" lon="7.4097577"><ele>574.7142857142857</ele><time>2026-03-29T10:10:12.594Z</time></trkpt><trkpt lat="44.4671283" lon="7.4098526"><ele>574.8571428571429</ele><time>2026-03-29T10:10:13.594Z</time></trkpt><trkpt lat="44.4671455" lon="7.4099423"><ele>575.0</ele><time>2026-03-29T10:10:14.593Z</time></trkpt><trkpt lat="44.4671611" lon="7.4100298"><ele>574.4285714285714</ele><time>2026-03-29T10:10:15.594Z</time></trkpt><trkpt lat="44.467184" lon="7.4101184"><ele>573.8571428571428</ele><time>2026-03-29T10:10:16.593Z</time></trkpt><trkpt lat="44.4672093" lon="7.4102079"><ele>573.2857142857142</ele><time>2026-03-29T10:10:17.594Z</time></trkpt><trkpt lat="44.4672332" lon="7.4102989"><ele>572.7142857142857</ele><time>2026-03-29T10:10:18.594Z</time></trkpt><trkpt lat="44.4672607" lon="7.4103895"><ele>572.1428571428571</ele><time>2026-03-29T10:10:19.594Z</time></trkpt><trkpt lat="44.467291" lon="7.4104772"><ele>571.5714285714286</ele><time>2026-03-29T10:10:20.594Z</time></trkpt><trkpt lat="44.467322" lon="7.41056"><ele>571.0</ele><time>2026-03-29T10:10:21.593Z</time></trkpt><trkpt lat="44.4673556" lon="7.4106431"><ele>571.0</ele><time>2026-03-29T10:10:22.593Z</time></trkpt><trkpt lat="44.4673947" lon="7.4107155"><ele>571.0</ele><time>2026-03-29T10:10:23.593Z</time></trkpt><trkpt lat="44.4674316" lon="7.4107931"><ele>571.0</ele><time>2026-03-29T10:10:24.594Z</time></trkpt><trkpt lat="44.4674745" lon="7.4108659"><ele>571.0</ele><time>2026-03-29T10:10:25.593Z</time></trkpt><trkpt lat="44.4675142" lon="7.4109363"><ele>571.0</ele><time>2026-03-29T10:10:26.593Z</time></trkpt><trkpt lat="44.4675537" lon="7.4110081"><ele>571.0</ele><time>2026-03-29T10:10:27.593Z</time></trkpt><trkpt lat="44.467601" lon="7.411071"><ele>571.0</ele><time>2026-03-29T10:10:28.593Z</time></trkpt><trkpt lat="44.4676514" lon="7.4111322"><ele>571.0</ele><time>2026-03-29T10:10:29.594Z</time></trkpt><trkpt lat="44.467703" lon="7.4111929"><ele>571.0</ele><time>2026-03-29T10:10:30.594Z</time></trkpt><trkpt lat="44.4677513" lon="7.4112576"><ele>571.0</ele><time>2026-03-29T10:10:31.594Z</time></trkpt><trkpt lat="44.4677987" lon="7.4113298"><ele>571.0</ele><time>2026-03-29T10:10:32.593Z</time></trkpt><trkpt lat="44.4678424" lon="7.4114012"><ele>571.0</ele><time>2026-03-29T10:10:33.594Z</time></trkpt><trkpt lat="44.4678856" lon="7.4114769"><ele>571.0</ele><time>2026-03-29T10:10:34.593Z</time></trkpt><trkpt lat="44.4679298" lon="7.4115524"><ele>571.0</ele><time>2026-03-29T10:10:35.593Z</time></trkpt><trkpt lat="44.4679702" lon="7.4116303"><ele>570.7142857142858</ele><time>2026-03-29T10:10:36.593Z</time></trkpt><trkpt lat="44.4680072" lon="7.4117109"><ele>570.4285714285714</ele><time>2026-03-29T10:10:37.594Z</time></trkpt><trkpt lat="44.4680422" lon="7.4117975"><ele>570.1428571428571</ele><time>2026-03-29T10:10:38.592Z</time></trkpt><trkpt lat="44.4680777" lon="7.4118758"><ele>569.8571428571429</ele><time>2026-03-29T10:10:39.593Z</time></trkpt><trkpt lat="44.4681134" lon="7.4119599"><ele>569.5714285714286</ele><time>2026-03-29T10:10:40.593Z</time></trkpt><trkpt lat="44.4681471" lon="7.4120423"><ele>569.2857142857143</ele><time>2026-03-29T10:10:41.592Z</time></trkpt><trkpt lat="44.4681834" lon="7.4121289"><ele>569.0</ele><time>2026-03-29T10:10:42.593Z</time></trkpt><trkpt lat="44.4682153" lon="7.4122192"><ele>569.0</ele><time>2026-03-29T10:10:43.592Z</time></trkpt><trkpt lat="44.4682469" lon="7.4123099"><ele>569.0</ele><time>2026-03-29T10:10:44.594Z</time></trkpt><trkpt lat="44.4682785" lon="7.4124074"><ele>569.0</ele><time>2026-03-29T10:10:45.592Z</time></trkpt><trkpt lat="44.4683097" lon="7.412511"><ele>569.0</ele><time>2026-03-29T10:10:46.593Z</time></trkpt><trkpt lat="44.4683407" lon="7.4126165"><ele>569.0</ele><time>2026-03-29T10:10:47.594Z</time></trkpt><trkpt lat="44.4683676" lon="7.4127188"><ele>569.0</ele><time>2026-03-29T10:10:48.593Z</time></trkpt><trkpt lat="44.4683928" lon="7.412822"><ele>569.0</ele><time>2026-03-29T10:10:49.594Z</time></trkpt><trkpt lat="44.4684195" lon="7.4129248"><ele>569.0</ele><time>2026-03-29T10:10:50.594Z</time></trkpt><trkpt lat="44.4684517" lon="7.4130256"><ele>569.0</ele><time>2026-03-29T10:10:51.593Z</time></trkpt><trkpt lat="44.4684813" lon="7.413126"><ele>569.0</ele><time>2026-03-29T10:10:52.593Z</time></trkpt><trkpt lat="44.4685121" lon="7.4132249"><ele>569.0</ele><time>2026-03-29T10:10:53.593Z</time></trkpt><trkpt lat="44.468546" lon="7.4133274"><ele>569.0</ele><time>2026-03-29T10:10:54.594Z</time></trkpt><trkpt lat="44.4685817" lon="7.4134287"><ele>568.8333333333333</ele><time>2026-03-29T10:10:55.594Z</time></trkpt><trkpt lat="44.4686191" lon="7.4135244"><ele>568.6666666666666</ele><time>2026-03-29T10:10:56.594Z</time></trkpt><trkpt lat="44.4686549" lon="7.4136221"><ele>568.5</ele><time>2026-03-29T10:10:57.593Z</time></trkpt><trkpt lat="44.4686909" lon="7.4137218"><ele>568.3333333333334</ele><time>2026-03-29T10:10:58.593Z</time></trkpt><trkpt lat="44.4687285" lon="7.4138177"><ele>568.1666666666667</ele><time>2026-03-29T10:10:59.593Z</time></trkpt><trkpt lat="44.4687656" lon="7.4139134"><ele>568.0</ele><time>2026-03-29T10:11:00.594Z</time></trkpt><trkpt lat="44.4687986" lon="7.4140093"><ele>567.5714285714286</ele><time>2026-03-29T10:11:01.593Z</time></trkpt><trkpt lat="44.4688325" lon="7.4141004"><ele>567.1428571428571</ele><time>2026-03-29T10:11:02.594Z</time></trkpt><trkpt lat="44.4688682" lon="7.4141895"><ele>566.7142857142857</ele><time>2026-03-29T10:11:03.593Z</time></trkpt><trkpt lat="44.4689031" lon="7.4142777"><ele>566.2857142857142</ele><time>2026-03-29T10:11:04.594Z</time></trkpt><trkpt lat="44.4689384" lon="7.4143635"><ele>565.8571428571429</ele><time>2026-03-29T10:11:05.593Z</time></trkpt><trkpt lat="44.4689729" lon="7.4144493"><ele>565.4285714285713</ele><time>2026-03-29T10:11:06.594Z</time></trkpt><trkpt lat="44.4690102" lon="7.4145341"><ele>565.0</ele><time>2026-03-29T10:11:07.594Z</time></trkpt><trkpt lat="44.4690521" lon="7.4146149"><ele>565.1428571428571</ele><time>2026-03-29T10:11:08.593Z</time></trkpt><trkpt lat="44.4690954" lon="7.4146911"><ele>565.2857142857142</ele><time>2026-03-29T10:11:09.594Z</time></trkpt><trkpt lat="44.4691415" lon="7.4147697"><ele>565.4285714285714</ele><time>2026-03-29T10:11:10.593Z</time></trkpt><trkpt lat="44.4691843" lon="7.4148453"><ele>565.5714285714286</ele><time>2026-03-29T10:11:11.593Z</time></trkpt><trkpt lat="44.4692275" lon="7.4149217"><ele>565.7142857142858</ele><time>2026-03-29T10:11:12.594Z</time></trkpt><trkpt lat="44.4692712" lon="7.4149949"><ele>565.8571428571429</ele><time>2026-03-29T10:11:13.593Z</time></trkpt><trkpt lat="44.4693134" lon="7.4150702"><ele>566.0</ele><time>2026-03-29T10:11:14.594Z</time></trkpt><trkpt lat="44.4693544" lon="7.4151448"><ele>566.0</ele><time>2026-03-29T10:11:15.593Z</time></trkpt><trkpt lat="44.4693953" lon="7.4152224"><ele>566.0</ele><time>2026-03-29T10:11:16.593Z</time></trkpt><trkpt lat="44.4694375" lon="7.4153007"><ele>566.0</ele><time>2026-03-29T10:11:17.593Z</time></trkpt><trkpt lat="44.4694817" lon="7.4153768"><ele>566.0</ele><time>2026-03-29T10:11:18.594Z</time></trkpt><trkpt lat="44.4695274" lon="7.415455"><ele>566.0</ele><time>2026-03-29T10:11:19.593Z</time></trkpt><trkpt lat="44.4695738" lon="7.4155314"><ele>566.0</ele><time>2026-03-29T10:11:20.594Z</time></trkpt><trkpt lat="44.4696194" lon="7.4156087"><ele>566.0</ele><time>2026-03-29T10:11:21.592Z</time></trkpt><trkpt lat="44.4696643" lon="7.4156843"><ele>566.0</ele><time>2026-03-29T10:11:22.593Z</time></trkpt><trkpt lat="44.4697104" lon="7.4157613"><ele>566.0</ele><time>2026-03-29T10:11:23.594Z</time></trkpt><trkpt lat="44.4697552" lon="7.4158398"><ele>566.0</ele><time>2026-03-29T10:11:24.593Z</time></trkpt><trkpt lat="44.4698008" lon="7.4159165"><ele>566.0</ele><time>2026-03-29T10:11:25.593Z</time></trkpt><trkpt lat="44.4698475" lon="7.415996"><ele>566.0</ele><time>2026-03-29T10:11:26.594Z</time></trkpt><trkpt lat="44.4698934" lon="7.4160757"><ele>566.0</ele><time>2026-03-29T10:11:27.593Z</time></trkpt><trkpt lat="44.4699428" lon="7.4161538"><ele>566.0</ele><time>2026-03-29T10:11:28.593Z</time></trkpt><trkpt lat="44.4699877" lon="7.4162312"><ele>566.0</ele><time>2026-03-29T10:11:29.594Z</time></trkpt><trkpt lat="44.470035" lon="7.4163048"><ele>566.0</ele><time>2026-03-29T10:11:30.593Z</time></trkpt><trkpt lat="44.4700875" lon="7.416376"><ele>566.0</ele><time>2026-03-29T10:11:31.594Z</time></trkpt><trkpt lat="44.4701374" lon="7.4164483"><ele>566.0</ele><time>2026-03-29T10:11:32.594Z</time></trkpt><trkpt lat="44.4701865" lon="7.4165228"><ele>566.0</ele><time>2026-03-29T10:11:33.593Z</time></trkpt><trkpt lat="44.4702379" lon="7.4165933"><ele>566.0</ele><time>2026-03-29T10:11:34.594Z</time></trkpt><trkpt lat="44.4702898" lon="7.4166624"><ele>566.0</ele><time>2026-03-29T10:11:35.593Z</time></trkpt><trkpt lat="44.4703414" lon="7.4167322"><ele>565.8571428571429</ele><time>2026-03-29T10:11:36.593Z</time></trkpt><trkpt lat="44.4703925" lon="7.4168035"><ele>565.7142857142858</ele><time>2026-03-29T10:11:37.594Z</time></trkpt><trkpt lat="44.470439" lon="7.4168767"><ele>565.5714285714286</ele><time>2026-03-29T10:11:38.593Z</time></trkpt><trkpt lat="44.4704867" lon="7.4169453"><ele>565.4285714285714</ele><time>2026-03-29T10:11:39.593Z</time></trkpt><trkpt lat="44.4705331" lon="7.4170116"><ele>565.2857142857142</ele><time>2026-03-29T10:11:40.593Z</time></trkpt><trkpt lat="44.4705789" lon="7.4170739"><ele>565.1428571428571</ele><time>2026-03-29T10:11:41.593Z</time></trkpt><trkpt lat="44.4706271" lon="7.4171352"><ele>565.0</ele><time>2026-03-29T10:11:42.593Z</time></trkpt><trkpt lat="44.4707045" lon="7.4172631"><ele>564.6</ele><time>2026-03-29T10:11:44.593Z</time></trkpt><trkpt lat="44.4707786" lon="7.4173938"><ele>564.2</ele><time>2026-03-29T10:11:46.593Z</time></trkpt><trkpt lat="44.4708325" lon="7.417551"><ele>563.8</ele><time>2026-03-29T10:11:48.593Z</time></trkpt><trkpt lat="44.470852" lon="7.4176369"><ele>563.4</ele><time>2026-03-29T10:11:49.593Z</time></trkpt><trkpt lat="44.4708672" lon="7.4177233"><ele>563.0</ele><time>2026-03-29T10:11:50.593Z</time></trkpt><trkpt lat="44.4709039" lon="7.4178826"><ele>563.25</ele><time>2026-03-29T10:11:52.593Z</time></trkpt><trkpt lat="44.4709358" lon="7.4180398"><ele>563.5</ele><time>2026-03-29T10:11:54.593Z</time></trkpt><trkpt lat="44.4709656" lon="7.418198"><ele>563.75</ele><time>2026-03-29T10:11:56.594Z</time></trkpt><trkpt lat="44.4710012" lon="7.4183637"><ele>564.0</ele><time>2026-03-29T10:11:58.593Z</time></trkpt><trkpt lat="44.4710353" lon="7.4185333"><ele>564.0</ele><time>2026-03-29T10:12:00.593Z</time></trkpt><trkpt lat="44.4710511" lon="7.4186195"><ele>564.0</ele><time>2026-03-29T10:12:01.594Z</time></trkpt><trkpt lat="44.4710827" lon="7.4187884"><ele>564.0</ele><time>2026-03-29T10:12:03.593Z</time></trkpt><trkpt lat="44.4711142" lon="7.4189566"><ele>564.0</ele><time>2026-03-29T10:12:05.594Z</time></trkpt><trkpt lat="44.4711251" lon="7.4190464"><ele>564.0</ele><time>2026-03-29T10:12:06.594Z</time></trkpt><trkpt lat="44.4711534" lon="7.4192182"><ele>563.8571428571429</ele><time>2026-03-29T10:12:08.593Z</time></trkpt><trkpt lat="44.4711678" lon="7.4193071"><ele>563.7142857142857</ele><time>2026-03-29T10:12:09.594Z</time></trkpt><trkpt lat="44.4711815" lon="7.4193975"><ele>563.5714285714286</ele><time>2026-03-29T10:12:10.593Z</time></trkpt><trkpt lat="44.4711951" lon="7.4194888"><ele>563.4285714285714</ele><time>2026-03-29T10:12:11.593Z</time></trkpt><trkpt lat="44.4712158" lon="7.4195782"><ele>563.2857142857143</ele><time>2026-03-29T10:12:12.593Z</time></trkpt><trkpt lat="44.4712385" lon="7.4196653"><ele>563.1428571428571</ele><time>2026-03-29T10:12:13.592Z</time></trkpt><trkpt lat="44.4712548" lon="7.419752"><ele>563.0</ele><time>2026-03-29T10:12:14.593Z</time></trkpt><trkpt lat="44.4712739" lon="7.4198379"><ele>562.1428571428571</ele><time>2026-03-29T10:12:15.593Z</time></trkpt><trkpt lat="44.4712905" lon="7.4199238"><ele>561.2857142857143</ele><time>2026-03-29T10:12:16.594Z</time></trkpt><trkpt lat="44.4713121" lon="7.4200099"><ele>560.4285714285714</ele><time>2026-03-29T10:12:17.594Z</time></trkpt><trkpt lat="44.4713324" lon="7.4200937"><ele>559.5714285714286</ele><time>2026-03-29T10:12:18.593Z</time></trkpt><trkpt lat="44.4713545" lon="7.42018"><ele>558.7142857142857</ele><time>2026-03-29T10:12:19.593Z</time></trkpt><trkpt lat="44.4713768" lon="7.420263"><ele>557.8571428571429</ele><time>2026-03-29T10:12:20.593Z</time></trkpt><trkpt lat="44.4714137" lon="7.4204265"><ele>557.0</ele><time>2026-03-29T10:12:22.593Z</time></trkpt><trkpt lat="44.4714562" lon="7.4205886"><ele>557.0</ele><time>2026-03-29T10:12:24.593Z</time></trkpt><trkpt lat="44.4714942" lon="7.4207468"><ele>557.0</ele><time>2026-03-29T10:12:26.594Z</time></trkpt><trkpt lat="44.4715224" lon="7.4208932"><ele>557.0</ele><time>2026-03-29T10:12:28.593Z</time></trkpt><trkpt lat="44.4715512" lon="7.4210175"><ele>557.0</ele><time>2026-03-29T10:12:30.594Z</time></trkpt><trkpt lat="44.4715959" lon="7.421124"><ele>557.0</ele><time>2026-03-29T10:12:32.593Z</time></trkpt><trkpt lat="44.4716527" lon="7.4212483"><ele>557.6</ele><time>2026-03-29T10:12:34.593Z</time></trkpt><trkpt lat="44.4717275" lon="7.421392"><ele>558.2</ele><time>2026-03-29T10:12:36.593Z</time></trkpt><trkpt lat="44.4718006" lon="7.421512"><ele>558.8</ele><time>2026-03-29T10:12:38.593Z</time></trkpt><trkpt lat="44.4718904" lon="7.4215835"><ele>559.4</ele><time>2026-03-29T10:12:40.594Z</time></trkpt><trkpt lat="44.4719746" lon="7.4216278"><ele>560.0</ele><time>2026-03-29T10:12:42.593Z</time></trkpt><trkpt lat="44.4720497" lon="7.4216575"><ele>558.5</ele><time>2026-03-29T10:12:44.594Z</time></trkpt><trkpt lat="44.4721388" lon="7.4216608"><ele>557.0</ele><time>2026-03-29T10:12:47.594Z</time></trkpt><trkpt lat="44.472209" lon="7.4216209"><ele>555.5</ele><time>2026-03-29T10:12:50.593Z</time></trkpt><trkpt lat="44.4722099" lon="7.4215229"><ele>554.0</ele><time>2026-03-29T10:12:54.593Z</time></trkpt><trkpt lat="44.4721356" lon="7.4214631"><ele>552.5</ele><time>2026-03-29T10:12:58.594Z</time></trkpt><trkpt lat="44.4721585" lon="7.4213761"><ele>551.0</ele><time>2026-03-29T10:13:18.594Z</time></trkpt><trkpt lat="44.4722006" lon="7.4213082"><ele>550.7142857142857</ele><time>2026-03-29T10:13:27.593Z</time></trkpt><trkpt lat="44.4722455" lon="7.4212363"><ele>550.4285714285714</ele><time>2026-03-29T10:13:35.594Z</time></trkpt><trkpt lat="44.4722842" lon="7.4211617"><ele>550.1428571428571</ele><time>2026-03-29T10:13:42.594Z</time></trkpt><trkpt lat="44.4723316" lon="7.4210837"><ele>549.8571428571429</ele><time>2026-03-29T10:13:49.594Z</time></trkpt><trkpt lat="44.4723738" lon="7.4210117"><ele>549.5714285714286</ele><time>2026-03-29T10:13:55.593Z</time></trkpt><trkpt lat="44.4724162" lon="7.4209393"><ele>549.2857142857142</ele><time>2026-03-29T10:14:01.594Z</time></trkpt><trkpt lat="44.4724639" lon="7.4208703"><ele>549.0</ele><time>2026-03-29T10:14:07.593Z</time></trkpt><trkpt lat="44.472512" lon="7.4208102"><ele>549.0</ele><time>2026-03-29T10:14:13.594Z</time></trkpt><trkpt lat="44.4725642" lon="7.4207437"><ele>549.0</ele><time>2026-03-29T10:14:21.592Z</time></trkpt><trkpt lat="44.4726152" lon="7.4206722"><ele>549.0</ele><time>2026-03-29T10:14:32.593Z</time></trkpt><trkpt lat="44.4726667" lon="7.4206164"><ele>549.0</ele><time>2026-03-29T10:14:35.593Z</time></trkpt><trkpt lat="44.4727552" lon="7.4205099"><ele>549.0</ele><time>2026-03-29T10:14:39.593Z</time></trkpt><trkpt lat="44.4728081" lon="7.4204526"><ele>549.0</ele><time>2026-03-29T10:14:41.594Z</time></trkpt><trkpt lat="44.4728666" lon="7.4203801"><ele>549.0</ele><time>2026-03-29T10:14:43.594Z</time></trkpt><trkpt lat="44.4729311" lon="7.4203028"><ele>549.0</ele><time>2026-03-29T10:14:45.593Z</time></trkpt><trkpt lat="44.4729944" lon="7.4202263"><ele>549.0</ele><time>2026-03-29T10:14:47.593Z</time></trkpt><trkpt lat="44.4730604" lon="7.4201524"><ele>549.0</ele><time>2026-03-29T10:14:49.593Z</time></trkpt><trkpt lat="44.4731272" lon="7.4200769"><ele>549.0</ele><time>2026-03-29T10:14:51.592Z</time></trkpt><trkpt lat="44.4731914" lon="7.4200005"><ele>549.0</ele><time>2026-03-29T10:14:53.594Z</time></trkpt><trkpt lat="44.4732553" lon="7.4199292"><ele>549.1666666666666</ele><time>2026-03-29T10:14:55.594Z</time></trkpt><trkpt lat="44.4733162" lon="7.4198645"><ele>549.3333333333334</ele><time>2026-03-29T10:14:57.594Z</time></trkpt><trkpt lat="44.4733798" lon="7.4197992"><ele>549.5</ele><time>2026-03-29T10:14:59.593Z</time></trkpt><trkpt lat="44.4734474" lon="7.4197393"><ele>549.6666666666667</ele><time>2026-03-29T10:15:01.594Z</time></trkpt><trkpt lat="44.4735135" lon="7.4196745"><ele>549.8333333333334</ele><time>2026-03-29T10:15:03.594Z</time></trkpt><trkpt lat="44.4735882" lon="7.4195982"><ele>550.0</ele><time>2026-03-29T10:15:05.593Z</time></trkpt><trkpt lat="44.4736722" lon="7.419525"><ele>550.0</ele><time>2026-03-29T10:15:07.594Z</time></trkpt><trkpt lat="44.4737484" lon="7.4194524"><ele>550.0</ele><time>2026-03-29T10:15:09.593Z</time></trkpt><trkpt lat="44.4738182" lon="7.4193795"><ele>550.0</ele><time>2026-03-29T10:15:11.593Z</time></trkpt><trkpt lat="44.473883" lon="7.4193089"><ele>550.0</ele><time>2026-03-29T10:15:13.593Z</time></trkpt><trkpt lat="44.4739417" lon="7.4192408"><ele>550.0</ele><time>2026-03-29T10:15:15.593Z</time></trkpt><trkpt lat="44.4739985" lon="7.4191736"><ele>550.0</ele><time>2026-03-29T10:15:17.594Z</time></trkpt><trkpt lat="44.4740675" lon="7.4190986"><ele>550.8333333333334</ele><time>2026-03-29T10:15:19.593Z</time></trkpt><trkpt lat="44.4741342" lon="7.4190095"><ele>551.6666666666667</ele><time>2026-03-29T10:15:21.593Z</time></trkpt><trkpt lat="44.4742031" lon="7.4189194"><ele>552.5</ele><time>2026-03-29T10:15:23.594Z</time></trkpt><trkpt lat="44.4742733" lon="7.4188285"><ele>553.3333333333334</ele><time>2026-03-29T10:15:25.593Z</time></trkpt><trkpt lat="44.474342" lon="7.4187538"><ele>554.1666666666666</ele><time>2026-03-29T10:15:27.594Z</time></trkpt><trkpt lat="44.4744092" lon="7.4186941"><ele>555.0</ele><time>2026-03-29T10:15:29.594Z</time></trkpt><trkpt lat="44.4744736" lon="7.4186444"><ele>555.3333333333334</ele><time>2026-03-29T10:15:31.594Z</time></trkpt><trkpt lat="44.4745378" lon="7.4185966"><ele>555.6666666666666</ele><time>2026-03-29T10:15:33.593Z</time></trkpt><trkpt lat="44.4746101" lon="7.4185348"><ele>556.0</ele><time>2026-03-29T10:15:36.593Z</time></trkpt><trkpt lat="44.4746555" lon="7.4184548"><ele>556.3333333333333</ele><time>2026-03-29T10:15:38.594Z</time></trkpt><trkpt lat="44.4747088" lon="7.418362"><ele>556.6666666666666</ele><time>2026-03-29T10:15:40.593Z</time></trkpt><trkpt lat="44.4747591" lon="7.4182676"><ele>557.0</ele><time>2026-03-29T10:15:42.546Z</time></trkpt><trkpt lat="44.4748083" lon="7.4181621"><ele>557.1666666666666</ele><time>2026-03-29T10:15:44.594Z</time></trkpt><trkpt lat="44.4748431" lon="7.4180489"><ele>557.3333333333333</ele><time>2026-03-29T10:15:46.593Z</time></trkpt><trkpt lat="44.4748737" lon="7.4179319"><ele>557.5</ele><time>2026-03-29T10:15:48.593Z</time></trkpt><trkpt lat="44.4749089" lon="7.4178147"><ele>557.6666666666666</ele><time>2026-03-29T10:15:50.594Z</time></trkpt><trkpt lat="44.4749467" lon="7.417703"><ele>557.8333333333334</ele><time>2026-03-29T10:15:52.593Z</time></trkpt><trkpt lat="44.4749924" lon="7.4175976"><ele>558.0</ele><time>2026-03-29T10:15:54.593Z</time></trkpt><trkpt lat="44.4750312" lon="7.417487"><ele>558.1666666666666</ele><time>2026-03-29T10:15:56.594Z</time></trkpt><trkpt lat="44.4750717" lon="7.4173831"><ele>558.3333333333334</ele><time>2026-03-29T10:15:58.593Z</time></trkpt><trkpt lat="44.4751203" lon="7.4172869"><ele>558.5</ele><time>2026-03-29T10:16:00.593Z</time></trkpt><trkpt lat="44.4751675" lon="7.4171912"><ele>558.6666666666667</ele><time>2026-03-29T10:16:02.593Z</time></trkpt><trkpt lat="44.4752137" lon="7.4170952"><ele>558.8333333333334</ele><time>2026-03-29T10:16:04.593Z</time></trkpt><trkpt lat="44.4752619" lon="7.417002"><ele>559.0</ele><time>2026-03-29T10:16:06.593Z</time></trkpt><trkpt lat="44.4753141" lon="7.4169095"><ele>559.3333333333334</ele><time>2026-03-29T10:16:08.592Z</time></trkpt><trkpt lat="44.4753624" lon="7.4168121"><ele>559.6666666666667</ele><time>2026-03-29T10:16:10.594Z</time></trkpt><trkpt lat="44.4754045" lon="7.4167134"><ele>560.0</ele><time>2026-03-29T10:16:12.599Z</time></trkpt><trkpt lat="44.4754401" lon="7.4166051"><ele>560.3333333333334</ele><time>2026-03-29T10:16:14.608Z</time></trkpt><trkpt lat="44.4754717" lon="7.4165026"><ele>560.6666666666666</ele><time>2026-03-29T10:16:16.594Z</time></trkpt><trkpt lat="44.4755039" lon="7.4163999"><ele>561.0</ele><time>2026-03-29T10:16:18.592Z</time></trkpt><trkpt lat="44.4755366" lon="7.4162989"><ele>562.5714285714286</ele><time>2026-03-29T10:16:20.594Z</time></trkpt><trkpt lat="44.4755812" lon="7.4162225"><ele>564.1428571428571</ele><time>2026-03-29T10:16:22.593Z</time></trkpt><trkpt lat="44.4756393" lon="7.4161865"><ele>565.7142857142857</ele><time>2026-03-29T10:16:24.593Z</time></trkpt><trkpt lat="44.4757178" lon="7.4162158"><ele>567.2857142857142</ele><time>2026-03-29T10:16:27.594Z</time></trkpt><trkpt lat="44.4757858" lon="7.4162589"><ele>568.8571428571429</ele><time>2026-03-29T10:16:30.593Z</time></trkpt><trkpt lat="44.4758582" lon="7.416293"><ele>570.4285714285713</ele><time>2026-03-29T10:16:33.593Z</time></trkpt><trkpt lat="44.4759336" lon="7.4162878"><ele>572.0</ele><time>2026-03-29T10:16:36.593Z</time></trkpt><trkpt lat="44.4759841" lon="7.416234"><ele>572.0</ele><time>2026-03-29T10:16:39.593Z</time></trkpt><trkpt lat="44.4759845" lon="7.4161316"><ele>572.0</ele><time>2026-03-29T10:16:42.593Z</time></trkpt><trkpt lat="44.4759568" lon="7.4160401"><ele>572.0</ele><time>2026-03-29T10:16:45.593Z</time></trkpt><trkpt lat="44.4759169" lon="7.4159427"><ele>572.0</ele><time>2026-03-29T10:16:48.592Z</time></trkpt><trkpt lat="44.4758726" lon="7.4158344"><ele>572.0</ele><time>2026-03-29T10:16:51.593Z</time></trkpt><trkpt lat="44.4758815" lon="7.4157346"><ele>572.0</ele><time>2026-03-29T10:16:54.593Z</time></trkpt><trkpt lat="44.4759371" lon="7.4156617"><ele>571.9999999999999</ele><time>2026-03-29T10:16:57.593Z</time></trkpt><trkpt lat="44.4760094" lon="7.4155772"><ele>572.0</ele><time>2026-03-29T10:17:00.594Z</time></trkpt><trkpt lat="44.476058" lon="7.4155097"><ele>572.0</ele><time>2026-03-29T10:17:02.593Z</time></trkpt><trkpt lat="44.47611" lon="7.4154446"><ele>572.0</ele><time>2026-03-29T10:17:04.594Z</time></trkpt><trkpt lat="44.4761619" lon="7.415378"><ele>572.0</ele><time>2026-03-29T10:17:06.593Z</time></trkpt><trkpt lat="44.4762137" lon="7.4153079"><ele>571.9999999999999</ele><time>2026-03-29T10:17:08.593Z</time></trkpt><trkpt lat="44.4762655" lon="7.4152373"><ele>572.0</ele><time>2026-03-29T10:17:10.593Z</time></trkpt><trkpt lat="44.4763172" lon="7.4151638"><ele>572.5</ele><time>2026-03-29T10:17:12.593Z</time></trkpt><trkpt lat="44.4763711" lon="7.4150907"><ele>573.0</ele><time>2026-03-29T10:17:14.593Z</time></trkpt><trkpt lat="44.4764284" lon="7.4150166"><ele>573.5</ele><time>2026-03-29T10:17:16.593Z</time></trkpt><trkpt lat="44.4764901" lon="7.4149451"><ele>574.0</ele><time>2026-03-29T10:17:18.593Z</time></trkpt><trkpt lat="44.4765544" lon="7.4148748"><ele>574.5</ele><time>2026-03-29T10:17:20.594Z</time></trkpt><trkpt lat="44.4766196" lon="7.4148035"><ele>575.0</ele><time>2026-03-29T10:17:22.593Z</time></trkpt><trkpt lat="44.4766836" lon="7.4147352"><ele>575.0</ele><time>2026-03-29T10:17:24.594Z</time></trkpt><trkpt lat="44.4767407" lon="7.414656"><ele>575.0</ele><time>2026-03-29T10:17:26.594Z</time></trkpt><trkpt lat="44.476794" lon="7.4145743"><ele>575.0</ele><time>2026-03-29T10:17:28.593Z</time></trkpt><trkpt lat="44.476849" lon="7.4144949"><ele>575.0</ele><time>2026-03-29T10:17:30.593Z</time></trkpt><trkpt lat="44.4769021" lon="7.4144107"><ele>575.0</ele><time>2026-03-29T10:17:32.594Z</time></trkpt><trkpt lat="44.4769555" lon="7.4143265"><ele>575.0</ele><time>2026-03-29T10:17:34.594Z</time></trkpt><trkpt lat="44.4770108" lon="7.4142404"><ele>574.8333333333333</ele><time>2026-03-29T10:17:36.593Z</time></trkpt><trkpt lat="44.4770708" lon="7.4141608"><ele>574.6666666666666</ele><time>2026-03-29T10:17:38.594Z</time></trkpt><trkpt lat="44.4771239" lon="7.4140748"><ele>574.5</ele><time>2026-03-29T10:17:40.593Z</time></trkpt><trkpt lat="44.4771784" lon="7.4139942"><ele>574.3333333333334</ele><time>2026-03-29T10:17:42.594Z</time></trkpt><trkpt lat="44.4772384" lon="7.4139116"><ele>574.1666666666667</ele><time>2026-03-29T10:17:44.593Z</time></trkpt><trkpt lat="44.4772946" lon="7.4138211"><ele>574.0</ele><time>2026-03-29T10:17:46.593Z</time></trkpt><trkpt lat="44.4773554" lon="7.413735"><ele>574.5</ele><time>2026-03-29T10:17:48.594Z</time></trkpt><trkpt lat="44.477413" lon="7.4136432"><ele>575.0</ele><time>2026-03-29T10:17:50.594Z</time></trkpt><trkpt lat="44.4774702" lon="7.4135523"><ele>575.5</ele><time>2026-03-29T10:17:52.594Z</time></trkpt><trkpt lat="44.4775237" lon="7.4134636"><ele>576.0</ele><time>2026-03-29T10:17:54.593Z</time></trkpt><trkpt lat="44.4775763" lon="7.4133823"><ele>576.5</ele><time>2026-03-29T10:17:56.593Z</time></trkpt><trkpt lat="44.4776224" lon="7.4133081"><ele>577.0</ele><time>2026-03-29T10:17:58.593Z</time></trkpt><trkpt lat="44.4776847" lon="7.4132337"><ele>577.0</ele><time>2026-03-29T10:18:01.594Z</time></trkpt><trkpt lat="44.4777491" lon="7.413171"><ele>577.0</ele><time>2026-03-29T10:18:05.594Z</time></trkpt><trkpt lat="44.4778074" lon="7.4131207"><ele>577.0</ele><time>2026-03-29T10:18:09.593Z</time></trkpt><trkpt lat="44.4778624" lon="7.4130697"><ele>577.0</ele><time>2026-03-29T10:18:15.594Z</time></trkpt><trkpt lat="44.4779234" lon="7.4130142"><ele>577.0</ele><time>2026-03-29T10:18:18.593Z</time></trkpt><trkpt lat="44.4779887" lon="7.412965"><ele>577.0</ele><time>2026-03-29T10:18:20.594Z</time></trkpt><trkpt lat="44.47806" lon="7.4129199"><ele>577.0</ele><time>2026-03-29T10:18:22.593Z</time></trkpt><trkpt lat="44.4781294" lon="7.4128629"><ele>577.0</ele><time>2026-03-29T10:18:24.594Z</time></trkpt><trkpt lat="44.4781999" lon="7.4128024"><ele>577.0</ele><time>2026-03-29T10:18:26.594Z</time></trkpt><trkpt lat="44.4782717" lon="7.4127378"><ele>577.0</ele><time>2026-03-29T10:18:28.593Z</time></trkpt><trkpt lat="44.4783449" lon="7.4126721"><ele>577.0</ele><time>2026-03-29T10:18:30.594Z</time></trkpt><trkpt lat="44.4784181" lon="7.4126097"><ele>577.0</ele><time>2026-03-29T10:18:32.593Z</time></trkpt><trkpt lat="44.4784895" lon="7.412545"><ele>577.0</ele><time>2026-03-29T10:18:34.592Z</time></trkpt><trkpt lat="44.4785642" lon="7.4124874"><ele>577.0</ele><time>2026-03-29T10:18:36.593Z</time></trkpt><trkpt lat="44.4786408" lon="7.4124343"><ele>577.0</ele><time>2026-03-29T10:18:38.592Z</time></trkpt><trkpt lat="44.4787245" lon="7.412398"><ele>577.0</ele><time>2026-03-29T10:18:40.592Z</time></trkpt><trkpt lat="44.4788222" lon="7.4123894"><ele>577.0</ele><time>2026-03-29T10:18:42.592Z</time></trkpt><trkpt lat="44.4789173" lon="7.4123682"><ele>577.0</ele><time>2026-03-29T10:18:44.592Z</time></trkpt><trkpt lat="44.4790129" lon="7.4123487"><ele>576.4</ele><time>2026-03-29T10:18:46.592Z</time></trkpt><trkpt lat="44.4791082" lon="7.4123336"><ele>575.8000000000001</ele><time>2026-03-29T10:18:48.592Z</time></trkpt><trkpt lat="44.4792062" lon="7.412303"><ele>575.2</ele><time>2026-03-29T10:18:50.593Z</time></trkpt><trkpt lat="44.4792996" lon="7.4122695"><ele>574.6</ele><time>2026-03-29T10:18:52.593Z</time></trkpt><trkpt lat="44.4793817" lon="7.4122265"><ele>574.0</ele><time>2026-03-29T10:18:54.593Z</time></trkpt><trkpt lat="44.4794591" lon="7.4121621"><ele>574.0</ele><time>2026-03-29T10:18:56.592Z</time></trkpt><trkpt lat="44.4795359" lon="7.4120791"><ele>574.0</ele><time>2026-03-29T10:18:58.592Z</time></trkpt><trkpt lat="44.4795911" lon="7.4120212"><ele>574.0</ele><time>2026-03-29T10:19:00.593Z</time></trkpt><trkpt lat="44.4796453" lon="7.4119634"><ele>574.0</ele><time>2026-03-29T10:19:02.592Z</time></trkpt><trkpt lat="44.4797051" lon="7.4119072"><ele>574.0</ele><time>2026-03-29T10:19:05.592Z</time></trkpt><trkpt lat="44.4797329" lon="7.4118116"><ele>574.0</ele><time>2026-03-29T10:19:08.591Z</time></trkpt><trkpt lat="44.4797809" lon="7.4117463"><ele>574.0</ele><time>2026-03-29T10:19:10.593Z</time></trkpt><trkpt lat="44.4798465" lon="7.4116971"><ele>574.0</ele><time>2026-03-29T10:19:12.592Z</time></trkpt><trkpt lat="44.4799076" lon="7.4116445"><ele>574.0</ele><time>2026-03-29T10:19:14.592Z</time></trkpt><trkpt lat="44.4799639" lon="7.4115795"><ele>574.0</ele><time>2026-03-29T10:19:16.592Z</time></trkpt><trkpt lat="44.4799939" lon="7.4114826"><ele>574.0</ele><time>2026-03-29T10:19:18.593Z</time></trkpt><trkpt lat="44.4800213" lon="7.4113824"><ele>574.0</ele><time>2026-03-29T10:19:20.592Z</time></trkpt><trkpt lat="44.4800683" lon="7.4112922"><ele>574.0</ele><time>2026-03-29T10:19:22.591Z</time></trkpt><trkpt lat="44.4801291" lon="7.4112219"><ele>574.3333333333334</ele><time>2026-03-29T10:19:24.593Z</time></trkpt><trkpt lat="44.4801984" lon="7.4111659"><ele>574.6666666666667</ele><time>2026-03-29T10:19:26.592Z</time></trkpt><trkpt lat="44.4802708" lon="7.4111185"><ele>575.0</ele><time>2026-03-29T10:19:28.592Z</time></trkpt><trkpt lat="44.48034" lon="7.4110659"><ele>575.3333333333334</ele><time>2026-03-29T10:19:30.593Z</time></trkpt><trkpt lat="44.4804076" lon="7.4110122"><ele>575.6666666666666</ele><time>2026-03-29T10:19:32.592Z</time></trkpt><trkpt lat="44.4804765" lon="7.4109659"><ele>576.0</ele><time>2026-03-29T10:19:34.593Z</time></trkpt><trkpt lat="44.4805428" lon="7.410922"><ele>576.5</ele><time>2026-03-29T10:19:36.593Z</time></trkpt><trkpt lat="44.4806142" lon="7.4108802"><ele>577.0</ele><time>2026-03-29T10:19:38.593Z</time></trkpt><trkpt lat="44.4806803" lon="7.4108262"><ele>577.5</ele><time>2026-03-29T10:19:40.592Z</time></trkpt><trkpt lat="44.4807303" lon="7.4107503"><ele>578.0</ele><time>2026-03-29T10:19:42.592Z</time></trkpt><trkpt lat="44.480766" lon="7.410654"><ele>578.5</ele><time>2026-03-29T10:19:44.592Z</time></trkpt><trkpt lat="44.4808023" lon="7.4105527"><ele>579.0</ele><time>2026-03-29T10:19:46.592Z</time></trkpt><trkpt lat="44.4808359" lon="7.4104498"><ele>579.0</ele><time>2026-03-29T10:19:48.592Z</time></trkpt><trkpt lat="44.4808838" lon="7.4103569"><ele>579.0</ele><time>2026-03-29T10:19:50.592Z</time></trkpt><trkpt lat="44.4809457" lon="7.4102735"><ele>579.0</ele><time>2026-03-29T10:19:52.592Z</time></trkpt><trkpt lat="44.4810148" lon="7.4101977"><ele>579.0</ele><time>2026-03-29T10:19:54.592Z</time></trkpt><trkpt lat="44.4810853" lon="7.4101252"><ele>579.0</ele><time>2026-03-29T10:19:56.593Z</time></trkpt><trkpt lat="44.4811534" lon="7.4100467"><ele>579.0</ele><time>2026-03-29T10:19:58.592Z</time></trkpt><trkpt lat="44.4812201" lon="7.4099616"><ele>579.1666666666666</ele><time>2026-03-29T10:20:00.592Z</time></trkpt><trkpt lat="44.4812802" lon="7.40987"><ele>579.3333333333334</ele><time>2026-03-29T10:20:02.593Z</time></trkpt><trkpt lat="44.4813306" lon="7.4097718"><ele>579.5</ele><time>2026-03-29T10:20:04.593Z</time></trkpt><trkpt lat="44.4813846" lon="7.4096737"><ele>579.6666666666667</ele><time>2026-03-29T10:20:06.592Z</time></trkpt><trkpt lat="44.481441" lon="7.4095805"><ele>579.8333333333334</ele><time>2026-03-29T10:20:08.592Z</time></trkpt><trkpt lat="44.4814965" lon="7.4094938"><ele>580.0</ele><time>2026-03-29T10:20:10.592Z</time></trkpt><trkpt lat="44.4815529" lon="7.4094175"><ele>580.0</ele><time>2026-03-29T10:20:12.593Z</time></trkpt><trkpt lat="44.4816114" lon="7.4093498"><ele>580.0</ele><time>2026-03-29T10:20:14.593Z</time></trkpt><trkpt lat="44.4816655" lon="7.409279"><ele>580.0</ele><time>2026-03-29T10:20:16.592Z</time></trkpt><trkpt lat="44.4817173" lon="7.4092108"><ele>580.0</ele><time>2026-03-29T10:20:18.593Z</time></trkpt><trkpt lat="44.4817661" lon="7.4091337"><ele>580.0</ele><time>2026-03-29T10:20:20.593Z</time></trkpt><trkpt lat="44.4818126" lon="7.4090491"><ele>580.0</ele><time>2026-03-29T10:20:22.592Z</time></trkpt><trkpt lat="44.481853" lon="7.4089601"><ele>580.0</ele><time>2026-03-29T10:20:24.592Z</time></trkpt><trkpt lat="44.4818887" lon="7.4088594"><ele>580.0</ele><time>2026-03-29T10:20:26.592Z</time></trkpt><trkpt lat="44.4819173" lon="7.4087532"><ele>580.0</ele><time>2026-03-29T10:20:28.592Z</time></trkpt><trkpt lat="44.4819358" lon="7.4086409"><ele>580.0</ele><time>2026-03-29T10:20:30.592Z</time></trkpt><trkpt lat="44.4819588" lon="7.4085315"><ele>580.0</ele><time>2026-03-29T10:20:32.592Z</time></trkpt><trkpt lat="44.4819879" lon="7.4084216"><ele>580.0</ele><time>2026-03-29T10:20:34.593Z</time></trkpt><trkpt lat="44.4820155" lon="7.4083066"><ele>580.0</ele><time>2026-03-29T10:20:36.593Z</time></trkpt><trkpt lat="44.4820394" lon="7.408198"><ele>580.0</ele><time>2026-03-29T10:20:38.593Z</time></trkpt><trkpt lat="44.4820627" lon="7.408097"><ele>580.0</ele><time>2026-03-29T10:20:40.592Z</time></trkpt><trkpt lat="44.4820915" lon="7.4079891"><ele>580.0</ele><time>2026-03-29T10:20:42.593Z</time></trkpt><trkpt lat="44.482118" lon="7.4078763"><ele>580.0</ele><time>2026-03-29T10:20:44.592Z</time></trkpt><trkpt lat="44.4821466" lon="7.4077652"><ele>580.0</ele><time>2026-03-29T10:20:46.593Z</time></trkpt><trkpt lat="44.4821729" lon="7.4076509"><ele>580.0</ele><time>2026-03-29T10:20:48.592Z</time></trkpt><trkpt lat="44.4821952" lon="7.4075367"><ele>579.8333333333334</ele><time>2026-03-29T10:20:50.592Z</time></trkpt><trkpt lat="44.4822176" lon="7.407424"><ele>579.6666666666667</ele><time>2026-03-29T10:20:52.592Z</time></trkpt><trkpt lat="44.4822343" lon="7.4073105"><ele>579.5</ele><time>2026-03-29T10:20:54.592Z</time></trkpt><trkpt lat="44.4822465" lon="7.4071937"><ele>579.3333333333334</ele><time>2026-03-29T10:20:56.593Z</time></trkpt><trkpt lat="44.482268" lon="7.4070792"><ele>579.1666666666666</ele><time>2026-03-29T10:20:58.592Z</time></trkpt><trkpt lat="44.4822955" lon="7.4069625"><ele>579.0</ele><time>2026-03-29T10:21:00.592Z</time></trkpt><trkpt lat="44.4823302" lon="7.4068533"><ele>578.6666666666666</ele><time>2026-03-29T10:21:02.593Z</time></trkpt><trkpt lat="44.4823613" lon="7.4067419"><ele>578.3333333333334</ele><time>2026-03-29T10:21:04.592Z</time></trkpt><trkpt lat="44.4823891" lon="7.4066287"><ele>578.0</ele><time>2026-03-29T10:21:06.593Z</time></trkpt><trkpt lat="44.4824208" lon="7.4065196"><ele>577.6666666666667</ele><time>2026-03-29T10:21:08.592Z</time></trkpt><trkpt lat="44.4824506" lon="7.4064069"><ele>577.3333333333334</ele><time>2026-03-29T10:21:10.592Z</time></trkpt><trkpt lat="44.4824776" lon="7.4062928"><ele>577.0</ele><time>2026-03-29T10:21:12.592Z</time></trkpt><trkpt lat="44.4825058" lon="7.406177"><ele>577.0</ele><time>2026-03-29T10:21:14.593Z</time></trkpt><trkpt lat="44.4825344" lon="7.4060678"><ele>577.0</ele><time>2026-03-29T10:21:16.592Z</time></trkpt><trkpt lat="44.4825648" lon="7.4059644"><ele>577.0</ele><time>2026-03-29T10:21:18.593Z</time></trkpt><trkpt lat="44.4825945" lon="7.4058584"><ele>577.0</ele><time>2026-03-29T10:21:20.592Z</time></trkpt><trkpt lat="44.4826202" lon="7.4057505"><ele>577.0</ele><time>2026-03-29T10:21:22.592Z</time></trkpt><trkpt lat="44.482644" lon="7.4056424"><ele>577.0</ele><time>2026-03-29T10:21:24.592Z</time></trkpt><trkpt lat="44.4826654" lon="7.4055375"><ele>577.1666666666667</ele><time>2026-03-29T10:21:26.592Z</time></trkpt><trkpt lat="44.4826795" lon="7.405428"><ele>577.3333333333334</ele><time>2026-03-29T10:21:28.592Z</time></trkpt><trkpt lat="44.4826961" lon="7.4053165"><ele>577.5</ele><time>2026-03-29T10:21:30.593Z</time></trkpt><trkpt lat="44.4827128" lon="7.4052009"><ele>577.6666666666666</ele><time>2026-03-29T10:21:32.592Z</time></trkpt><trkpt lat="44.4827248" lon="7.4050755"><ele>577.8333333333333</ele><time>2026-03-29T10:21:34.562Z</time></trkpt><trkpt lat="44.4827334" lon="7.4049602"><ele>578.0</ele><time>2026-03-29T10:21:36.592Z</time></trkpt><trkpt lat="44.4827495" lon="7.4048442"><ele>578.0</ele><time>2026-03-29T10:21:38.593Z</time></trkpt><trkpt lat="44.4827735" lon="7.4047305"><ele>578.0</ele><time>2026-03-29T10:21:40.593Z</time></trkpt><trkpt lat="44.482809" lon="7.4046273"><ele>578.0</ele><time>2026-03-29T10:21:42.593Z</time></trkpt><trkpt lat="44.4828626" lon="7.4045418"><ele>578.0</ele><time>2026-03-29T10:21:44.592Z</time></trkpt><trkpt lat="44.4829266" lon="7.4044714"><ele>578.0</ele><time>2026-03-29T10:21:46.593Z</time></trkpt><trkpt lat="44.4829918" lon="7.4044084"><ele>578.0</ele><time>2026-03-29T10:21:48.591Z</time></trkpt><trkpt lat="44.4830614" lon="7.4043551"><ele>578.3333333333333</ele><time>2026-03-29T10:21:50.593Z</time></trkpt><trkpt lat="44.4831328" lon="7.4042971"><ele>578.6666666666666</ele><time>2026-03-29T10:21:52.592Z</time></trkpt><trkpt lat="44.4831914" lon="7.4042115"><ele>579.0</ele><time>2026-03-29T10:21:54.592Z</time></trkpt><trkpt lat="44.4832423" lon="7.4041209"><ele>579.3333333333334</ele><time>2026-03-29T10:21:56.593Z</time></trkpt><trkpt lat="44.4832969" lon="7.4040382"><ele>579.6666666666667</ele><time>2026-03-29T10:21:58.592Z</time></trkpt><trkpt lat="44.4833437" lon="7.403954"><ele>580.0</ele><time>2026-03-29T10:22:00.592Z</time></trkpt><trkpt lat="44.4833875" lon="7.4038794"><ele>580.0</ele><time>2026-03-29T10:22:02.593Z</time></trkpt><trkpt lat="44.4834387" lon="7.4038259"><ele>580.0</ele><time>2026-03-29T10:22:04.593Z</time></trkpt><trkpt lat="44.4835044" lon="7.4037904"><ele>580.0</ele><time>2026-03-29T10:22:06.592Z</time></trkpt><trkpt lat="44.483576" lon="7.403765"><ele>580.0</ele><time>2026-03-29T10:22:08.592Z</time></trkpt><trkpt lat="44.4836477" lon="7.4037349"><ele>580.0</ele><time>2026-03-29T10:22:10.592Z</time></trkpt><trkpt lat="44.4837205" lon="7.4037022"><ele>580.0</ele><time>2026-03-29T10:22:12.592Z</time></trkpt><trkpt lat="44.4837919" lon="7.4036616"><ele>580.0</ele><time>2026-03-29T10:22:14.592Z</time></trkpt><trkpt lat="44.4838632" lon="7.4036202"><ele>580.6666666666667</ele><time>2026-03-29T10:22:16.592Z</time></trkpt><trkpt lat="44.4839323" lon="7.4035717"><ele>581.3333333333334</ele><time>2026-03-29T10:22:18.592Z</time></trkpt><trkpt lat="44.4839998" lon="7.4035169"><ele>582.0</ele><time>2026-03-29T10:22:20.592Z</time></trkpt><trkpt lat="44.4840591" lon="7.4034676"><ele>582.6666666666666</ele><time>2026-03-29T10:22:22.593Z</time></trkpt><trkpt lat="44.484124" lon="7.4033713"><ele>583.3333333333333</ele><time>2026-03-29T10:22:25.592Z</time></trkpt><trkpt lat="44.4841649" lon="7.4032926"><ele>584.0</ele><time>2026-03-29T10:22:27.592Z</time></trkpt><trkpt lat="44.4841944" lon="7.4032045"><ele>584.0</ele><time>2026-03-29T10:22:29.592Z</time></trkpt><trkpt lat="44.484234" lon="7.4030848"><ele>584.0</ele><time>2026-03-29T10:22:32.592Z</time></trkpt><trkpt lat="44.4842639" lon="7.4029931"><ele>584.0</ele><time>2026-03-29T10:22:34.592Z</time></trkpt><trkpt lat="44.4842916" lon="7.4028978"><ele>584.0</ele><time>2026-03-29T10:22:36.593Z</time></trkpt><trkpt lat="44.4843242" lon="7.4028065"><ele>584.0</ele><time>2026-03-29T10:22:38.592Z</time></trkpt><trkpt lat="44.4843426" lon="7.4027089"><ele>584.0</ele><time>2026-03-29T10:22:40.593Z</time></trkpt><trkpt lat="44.484355" lon="7.4026099"><ele>583.8571428571429</ele><time>2026-03-29T10:22:42.593Z</time></trkpt><trkpt lat="44.4843672" lon="7.4025111"><ele>583.7142857142858</ele><time>2026-03-29T10:22:44.592Z</time></trkpt><trkpt lat="44.4843796" lon="7.402412"><ele>583.5714285714287</ele><time>2026-03-29T10:22:46.592Z</time></trkpt><trkpt lat="44.4843955" lon="7.4023192"><ele>583.4285714285714</ele><time>2026-03-29T10:22:48.593Z</time></trkpt><trkpt lat="44.484414" lon="7.4022272"><ele>583.2857142857143</ele><time>2026-03-29T10:22:50.592Z</time></trkpt><trkpt lat="44.4844402" lon="7.4021388"><ele>583.1428571428572</ele><time>2026-03-29T10:22:52.592Z</time></trkpt><trkpt lat="44.4844648" lon="7.4020551"><ele>583.0</ele><time>2026-03-29T10:22:54.593Z</time></trkpt><trkpt lat="44.4844971" lon="7.4019774"><ele>583.0000000000001</ele><time>2026-03-29T10:22:56.592Z</time></trkpt><trkpt lat="44.4845306" lon="7.4018953"><ele>583.0</ele><time>2026-03-29T10:22:58.593Z</time></trkpt><trkpt lat="44.4845633" lon="7.401809"><ele>583.0</ele><time>2026-03-29T10:23:00.592Z</time></trkpt><trkpt lat="44.4846013" lon="7.4017265"><ele>583.0</ele><time>2026-03-29T10:23:02.592Z</time></trkpt><trkpt lat="44.4846398" lon="7.401642"><ele>583.0</ele><time>2026-03-29T10:23:04.593Z</time></trkpt><trkpt lat="44.4846743" lon="7.4015578"><ele>583.0000000000001</ele><time>2026-03-29T10:23:06.593Z</time></trkpt><trkpt lat="44.4847109" lon="7.4014727"><ele>583.0</ele><time>2026-03-29T10:23:08.593Z</time></trkpt><trkpt lat="44.4847403" lon="7.4013874"><ele>583.4285714285714</ele><time>2026-03-29T10:23:10.592Z</time></trkpt><trkpt lat="44.4847672" lon="7.4013027"><ele>583.8571428571429</ele><time>2026-03-29T10:23:12.592Z</time></trkpt><trkpt lat="44.4847964" lon="7.4012208"><ele>584.2857142857142</ele><time>2026-03-29T10:23:14.593Z</time></trkpt><trkpt lat="44.4848266" lon="7.4011427"><ele>584.7142857142858</ele><time>2026-03-29T10:23:16.593Z</time></trkpt><trkpt lat="44.4848844" lon="7.4010375"><ele>585.1428571428571</ele><time>2026-03-29T10:23:19.592Z</time></trkpt><trkpt lat="44.4849293" lon="7.4009679"><ele>585.5714285714286</ele><time>2026-03-29T10:23:21.592Z</time></trkpt><trkpt lat="44.4849832" lon="7.4009119"><ele>586.0</ele><time>2026-03-29T10:23:23.592Z</time></trkpt><trkpt lat="44.4850398" lon="7.4008634"><ele>585.9999999999999</ele><time>2026-03-29T10:23:25.593Z</time></trkpt><trkpt lat="44.4850964" lon="7.4008185"><ele>586.0</ele><time>2026-03-29T10:23:27.593Z</time></trkpt><trkpt lat="44.4851552" lon="7.4007822"><ele>586.0</ele><time>2026-03-29T10:23:29.593Z</time></trkpt><trkpt lat="44.485219" lon="7.4007545"><ele>586.0</ele><time>2026-03-29T10:23:31.593Z</time></trkpt><trkpt lat="44.4852815" lon="7.4007297"><ele>586.0</ele><time>2026-03-29T10:23:33.593Z</time></trkpt><trkpt lat="44.4853481" lon="7.4007079"><ele>585.9999999999999</ele><time>2026-03-29T10:23:35.593Z</time></trkpt><trkpt lat="44.4854161" lon="7.4006879"><ele>586.0</ele><time>2026-03-29T10:23:37.592Z</time></trkpt><trkpt lat="44.4854823" lon="7.400679"><ele>586.7142857142857</ele><time>2026-03-29T10:23:39.592Z</time></trkpt><trkpt lat="44.4855487" lon="7.4006737"><ele>587.4285714285714</ele><time>2026-03-29T10:23:41.592Z</time></trkpt><trkpt lat="44.485616" lon="7.4006737"><ele>588.1428571428571</ele><time>2026-03-29T10:23:43.593Z</time></trkpt><trkpt lat="44.485683" lon="7.4006948"><ele>588.8571428571429</ele><time>2026-03-29T10:23:45.592Z</time></trkpt><trkpt lat="44.4857519" lon="7.4007106"><ele>589.5714285714286</ele><time>2026-03-29T10:23:47.593Z</time></trkpt><trkpt lat="44.4858176" lon="7.4007322"><ele>590.2857142857142</ele><time>2026-03-29T10:23:49.592Z</time></trkpt><trkpt lat="44.4858862" lon="7.4007359"><ele>591.0</ele><time>2026-03-29T10:23:51.592Z</time></trkpt><trkpt lat="44.4859554" lon="7.4007405"><ele>591.0</ele><time>2026-03-29T10:23:53.593Z</time></trkpt><trkpt lat="44.4860245" lon="7.4007372"><ele>591.0</ele><time>2026-03-29T10:23:55.592Z</time></trkpt><trkpt lat="44.4860924" lon="7.400723"><ele>591.0</ele><time>2026-03-29T10:23:57.592Z</time></trkpt><trkpt lat="44.4861512" lon="7.400684"><ele>591.0</ele><time>2026-03-29T10:23:59.592Z</time></trkpt><trkpt lat="44.4861867" lon="7.4006066"><ele>591.0</ele><time>2026-03-29T10:24:01.593Z</time></trkpt><trkpt lat="44.4861903" lon="7.4005144"><ele>591.0</ele><time>2026-03-29T10:24:03.592Z</time></trkpt><trkpt lat="44.4861765" lon="7.4004195"><ele>591.0</ele><time>2026-03-29T10:24:05.592Z</time></trkpt><trkpt lat="44.4861589" lon="7.4003306"><ele>590.5714285714286</ele><time>2026-03-29T10:24:07.593Z</time></trkpt><trkpt lat="44.48614" lon="7.400246"><ele>590.1428571428571</ele><time>2026-03-29T10:24:09.592Z</time></trkpt><trkpt lat="44.4861269" lon="7.4001588"><ele>589.7142857142858</ele><time>2026-03-29T10:24:11.592Z</time></trkpt><trkpt lat="44.4861042" lon="7.4000314"><ele>589.2857142857142</ele><time>2026-03-29T10:24:14.592Z</time></trkpt><trkpt lat="44.4860943" lon="7.3999439"><ele>588.8571428571429</ele><time>2026-03-29T10:24:16.592Z</time></trkpt><trkpt lat="44.4860777" lon="7.3998566"><ele>588.4285714285714</ele><time>2026-03-29T10:24:18.592Z</time></trkpt><trkpt lat="44.4860639" lon="7.3997648"><ele>588.0</ele><time>2026-03-29T10:24:20.592Z</time></trkpt><trkpt lat="44.4860497" lon="7.3996594"><ele>588.0</ele><time>2026-03-29T10:24:22.593Z</time></trkpt><trkpt lat="44.4860398" lon="7.3995468"><ele>588.0</ele><time>2026-03-29T10:24:24.592Z</time></trkpt><trkpt lat="44.4860374" lon="7.3994287"><ele>588.0</ele><time>2026-03-29T10:24:26.592Z</time></trkpt><trkpt lat="44.486029" lon="7.3993072"><ele>588.0</ele><time>2026-03-29T10:24:28.593Z</time></trkpt><trkpt lat="44.4860264" lon="7.3991877"><ele>588.0</ele><time>2026-03-29T10:24:30.592Z</time></trkpt><trkpt lat="44.4860189" lon="7.3990711"><ele>588.0</ele><time>2026-03-29T10:24:32.593Z</time></trkpt><trkpt lat="44.4860117" lon="7.3989558"><ele>588.0</ele><time>2026-03-29T10:24:34.592Z</time></trkpt><trkpt lat="44.4860068" lon="7.3988419"><ele>588.0</ele><time>2026-03-29T10:24:36.592Z</time></trkpt><trkpt lat="44.4860033" lon="7.3987278"><ele>588.0</ele><time>2026-03-29T10:24:38.592Z</time></trkpt><trkpt lat="44.4859995" lon="7.3986148"><ele>588.0</ele><time>2026-03-29T10:24:40.593Z</time></trkpt><trkpt lat="44.4859951" lon="7.3985039"><ele>588.0</ele><time>2026-03-29T10:24:42.593Z</time></trkpt><trkpt lat="44.4859984" lon="7.3984021"><ele>588.0</ele><time>2026-03-29T10:24:44.592Z</time></trkpt><trkpt lat="44.4859949" lon="7.3983117"><ele>588.1666666666666</ele><time>2026-03-29T10:24:46.593Z</time></trkpt><trkpt lat="44.4859971" lon="7.3981964"><ele>588.3333333333334</ele><time>2026-03-29T10:24:49.592Z</time></trkpt><trkpt lat="44.4859957" lon="7.3980864"><ele>588.5</ele><time>2026-03-29T10:24:52.592Z</time></trkpt><trkpt lat="44.4859939" lon="7.3979769"><ele>588.6666666666667</ele><time>2026-03-29T10:24:55.592Z</time></trkpt><trkpt lat="44.4859977" lon="7.3978626"><ele>588.8333333333334</ele><time>2026-03-29T10:24:58.593Z</time></trkpt><trkpt lat="44.4859887" lon="7.397741"><ele>589.0</ele><time>2026-03-29T10:25:01.592Z</time></trkpt><trkpt lat="44.4859825" lon="7.3976137"><ele>589.0</ele><time>2026-03-29T10:25:04.592Z</time></trkpt><trkpt lat="44.4859775" lon="7.3974829"><ele>589.0</ele><time>2026-03-29T10:25:07.592Z</time></trkpt><trkpt lat="44.4859728" lon="7.3973526"><ele>589.0</ele><time>2026-03-29T10:25:10.592Z</time></trkpt><trkpt lat="44.4859677" lon="7.3972236"><ele>589.0</ele><time>2026-03-29T10:25:13.592Z</time></trkpt><trkpt lat="44.4859605" lon="7.3970955"><ele>589.0</ele><time>2026-03-29T10:25:16.592Z</time></trkpt><trkpt lat="44.4859558" lon="7.3970061"><ele>589.0</ele><time>2026-03-29T10:25:18.593Z</time></trkpt><trkpt lat="44.485953" lon="7.3969164"><ele>589.1666666666667</ele><time>2026-03-29T10:25:20.593Z</time></trkpt><trkpt lat="44.4859537" lon="7.3967872"><ele>589.3333333333334</ele><time>2026-03-29T10:25:23.592Z</time></trkpt><trkpt lat="44.4859453" lon="7.3966997"><ele>589.5</ele><time>2026-03-29T10:25:25.592Z</time></trkpt><trkpt lat="44.4859297" lon="7.3965997"><ele>589.6666666666666</ele><time>2026-03-29T10:25:27.593Z</time></trkpt><trkpt lat="44.4859172" lon="7.3964906"><ele>589.8333333333333</ele><time>2026-03-29T10:25:29.592Z</time></trkpt><trkpt lat="44.4858967" lon="7.396379"><ele>590.0</ele><time>2026-03-29T10:25:31.593Z</time></trkpt><trkpt lat="44.4858788" lon="7.3962633"><ele>590.0</ele><time>2026-03-29T10:25:33.592Z</time></trkpt><trkpt lat="44.485865" lon="7.396145"><ele>590.0</ele><time>2026-03-29T10:25:35.592Z</time></trkpt><trkpt lat="44.4858478" lon="7.3960225"><ele>590.0</ele><time>2026-03-29T10:25:37.593Z</time></trkpt><trkpt lat="44.4858345" lon="7.3958981"><ele>590.0</ele><time>2026-03-29T10:25:39.592Z</time></trkpt><trkpt lat="44.4858242" lon="7.3957745"><ele>590.0</ele><time>2026-03-29T10:25:41.591Z</time></trkpt><trkpt lat="44.4858206" lon="7.3956452"><ele>590.0</ele><time>2026-03-29T10:25:43.592Z</time></trkpt><trkpt lat="44.4858144" lon="7.395516"><ele>590.0</ele><time>2026-03-29T10:25:45.592Z</time></trkpt><trkpt lat="44.4858181" lon="7.3953913"><ele>590.0</ele><time>2026-03-29T10:25:47.592Z</time></trkpt><trkpt lat="44.4858187" lon="7.3952776"><ele>590.0</ele><time>2026-03-29T10:25:49.592Z</time></trkpt><trkpt lat="44.4858215" lon="7.3951706"><ele>590.0</ele><time>2026-03-29T10:25:51.592Z</time></trkpt><trkpt lat="44.4858244" lon="7.3950664"><ele>590.0</ele><time>2026-03-29T10:25:53.592Z</time></trkpt><trkpt lat="44.4858271" lon="7.3949667"><ele>590.0</ele><time>2026-03-29T10:25:55.592Z</time></trkpt><trkpt lat="44.4858282" lon="7.3948659"><ele>590.0000000000001</ele><time>2026-03-29T10:25:57.592Z</time></trkpt><trkpt lat="44.4858309" lon="7.3947654"><ele>590.0</ele><time>2026-03-29T10:25:59.592Z</time></trkpt><trkpt lat="44.4858311" lon="7.3946641"><ele>590.0</ele><time>2026-03-29T10:26:01.592Z</time></trkpt><trkpt lat="44.4858321" lon="7.3945595"><ele>590.0</ele><time>2026-03-29T10:26:03.591Z</time></trkpt><trkpt lat="44.4858356" lon="7.3944535"><ele>590.0</ele><time>2026-03-29T10:26:05.592Z</time></trkpt><trkpt lat="44.4858339" lon="7.3943465"><ele>590.0000000000001</ele><time>2026-03-29T10:26:07.592Z</time></trkpt><trkpt lat="44.4858335" lon="7.3942394"><ele>590.0</ele><time>2026-03-29T10:26:09.592Z</time></trkpt><trkpt lat="44.4858303" lon="7.3941344"><ele>589.8571428571429</ele><time>2026-03-29T10:26:11.593Z</time></trkpt><trkpt lat="44.4858222" lon="7.3940354"><ele>589.7142857142858</ele><time>2026-03-29T10:26:13.593Z</time></trkpt><trkpt lat="44.4858144" lon="7.393938"><ele>589.5714285714286</ele><time>2026-03-29T10:26:15.592Z</time></trkpt><trkpt lat="44.4858056" lon="7.3938391"><ele>589.4285714285714</ele><time>2026-03-29T10:26:17.592Z</time></trkpt><trkpt lat="44.4857963" lon="7.3937385"><ele>589.2857142857142</ele><time>2026-03-29T10:26:19.593Z</time></trkpt><trkpt lat="44.4857896" lon="7.3936354"><ele>589.1428571428571</ele><time>2026-03-29T10:26:21.592Z</time></trkpt><trkpt lat="44.4857898" lon="7.393533"><ele>589.0</ele><time>2026-03-29T10:26:23.593Z</time></trkpt><trkpt lat="44.4857952" lon="7.3934353"><ele>589.2857142857142</ele><time>2026-03-29T10:26:25.593Z</time></trkpt><trkpt lat="44.4858012" lon="7.3933399"><ele>589.5714285714286</ele><time>2026-03-29T10:26:27.593Z</time></trkpt><trkpt lat="44.4858082" lon="7.3932428"><ele>589.8571428571429</ele><time>2026-03-29T10:26:29.593Z</time></trkpt><trkpt lat="44.4858201" lon="7.3931428"><ele>590.1428571428571</ele><time>2026-03-29T10:26:31.593Z</time></trkpt><trkpt lat="44.4858287" lon="7.3930426"><ele>590.4285714285714</ele><time>2026-03-29T10:26:33.592Z</time></trkpt><trkpt lat="44.4858363" lon="7.3929456"><ele>590.7142857142857</ele><time>2026-03-29T10:26:35.592Z</time></trkpt><trkpt lat="44.4858458" lon="7.3928497"><ele>591.0</ele><time>2026-03-29T10:26:37.592Z</time></trkpt><trkpt lat="44.4858581" lon="7.3927533"><ele>591.2857142857142</ele><time>2026-03-29T10:26:39.593Z</time></trkpt><trkpt lat="44.485869" lon="7.3926547"><ele>591.5714285714286</ele><time>2026-03-29T10:26:41.592Z</time></trkpt><trkpt lat="44.4858797" lon="7.3925541"><ele>591.8571428571429</ele><time>2026-03-29T10:26:43.593Z</time></trkpt><trkpt lat="44.4858929" lon="7.3924577"><ele>592.1428571428571</ele><time>2026-03-29T10:26:45.592Z</time></trkpt><trkpt lat="44.485903" lon="7.3923629"><ele>592.4285714285714</ele><time>2026-03-29T10:26:47.592Z</time></trkpt><trkpt lat="44.4859144" lon="7.3922661"><ele>592.7142857142857</ele><time>2026-03-29T10:26:49.592Z</time></trkpt><trkpt lat="44.4859278" lon="7.3921705"><ele>593.0</ele><time>2026-03-29T10:26:51.593Z</time></trkpt><trkpt lat="44.485944" lon="7.3920714"><ele>593.2857142857142</ele><time>2026-03-29T10:26:53.592Z</time></trkpt><trkpt lat="44.4859602" lon="7.3919738"><ele>593.5714285714286</ele><time>2026-03-29T10:26:55.593Z</time></trkpt><trkpt lat="44.4859736" lon="7.3918752"><ele>593.8571428571429</ele><time>2026-03-29T10:26:57.592Z</time></trkpt><trkpt lat="44.4859892" lon="7.3917781"><ele>594.1428571428571</ele><time>2026-03-29T10:26:59.592Z</time></trkpt><trkpt lat="44.4859961" lon="7.3916846"><ele>594.4285714285714</ele><time>2026-03-29T10:27:01.592Z</time></trkpt><trkpt lat="44.4860013" lon="7.3915963"><ele>594.7142857142857</ele><time>2026-03-29T10:27:03.593Z</time></trkpt><trkpt lat="44.4860047" lon="7.3914753"><ele>595.0</ele><time>2026-03-29T10:27:06.593Z</time></trkpt><trkpt lat="44.4860162" lon="7.3913636"><ele>595.3333333333334</ele><time>2026-03-29T10:27:09.591Z</time></trkpt><trkpt lat="44.4860404" lon="7.3912494"><ele>595.6666666666667</ele><time>2026-03-29T10:27:12.592Z</time></trkpt><trkpt lat="44.4860874" lon="7.3911368"><ele>596.0</ele><time>2026-03-29T10:27:15.592Z</time></trkpt><trkpt lat="44.4861294" lon="7.3910706"><ele>596.3333333333334</ele><time>2026-03-29T10:27:17.592Z</time></trkpt><trkpt lat="44.4861918" lon="7.3909785"><ele>596.6666666666666</ele><time>2026-03-29T10:27:20.593Z</time></trkpt><trkpt lat="44.4862533" lon="7.3908938"><ele>597.0</ele><time>2026-03-29T10:27:23.592Z</time></trkpt><trkpt lat="44.4863133" lon="7.3908061"><ele>597.1666666666666</ele><time>2026-03-29T10:27:26.592Z</time></trkpt><trkpt lat="44.4863799" lon="7.3907214"><ele>597.3333333333334</ele><time>2026-03-29T10:27:29.592Z</time></trkpt><trkpt lat="44.4864455" lon="7.390636"><ele>597.5</ele><time>2026-03-29T10:27:32.593Z</time></trkpt><trkpt lat="44.4865177" lon="7.3905599"><ele>597.6666666666667</ele><time>2026-03-29T10:27:35.592Z</time></trkpt><trkpt lat="44.4865893" lon="7.3904862"><ele>597.8333333333334</ele><time>2026-03-29T10:27:38.593Z</time></trkpt><trkpt lat="44.4866545" lon="7.3904089"><ele>598.0</ele><time>2026-03-29T10:27:41.593Z</time></trkpt><trkpt lat="44.4867274" lon="7.3903517"><ele>598.2857142857142</ele><time>2026-03-29T10:27:44.591Z</time></trkpt><trkpt lat="44.4867941" lon="7.3902841"><ele>598.5714285714286</ele><time>2026-03-29T10:27:47.592Z</time></trkpt><trkpt lat="44.4868571" lon="7.3902143"><ele>598.8571428571429</ele><time>2026-03-29T10:27:50.593Z</time></trkpt><trkpt lat="44.486908" lon="7.3901378"><ele>599.1428571428571</ele><time>2026-03-29T10:27:53.593Z</time></trkpt><trkpt lat="44.4869476" lon="7.3900637"><ele>599.4285714285714</ele><time>2026-03-29T10:27:56.592Z</time></trkpt><trkpt lat="44.4869764" lon="7.3899831"><ele>599.7142857142857</ele><time>2026-03-29T10:27:59.593Z</time></trkpt><trkpt lat="44.4870012" lon="7.389888"><ele>600.0</ele><time>2026-03-29T10:28:02.593Z</time></trkpt><trkpt lat="44.487017" lon="7.3897801"><ele>600.1666666666666</ele><time>2026-03-29T10:28:05.593Z</time></trkpt><trkpt lat="44.4870056" lon="7.3896733"><ele>600.3333333333334</ele><time>2026-03-29T10:28:08.593Z</time></trkpt><trkpt lat="44.4869501" lon="7.3895855"><ele>600.5</ele><time>2026-03-29T10:28:11.593Z</time></trkpt><trkpt lat="44.4868882" lon="7.38949"><ele>600.6666666666667</ele><time>2026-03-29T10:28:14.592Z</time></trkpt><trkpt lat="44.4868514" lon="7.3894131"><ele>600.8333333333334</ele><time>2026-03-29T10:28:16.592Z</time></trkpt><trkpt lat="44.4868138" lon="7.3893363"><ele>601.0</ele><time>2026-03-29T10:28:18.593Z</time></trkpt><trkpt lat="44.4867674" lon="7.3892634"><ele>601.0</ele><time>2026-03-29T10:28:20.593Z</time></trkpt><trkpt lat="44.486726" lon="7.3891897"><ele>601.0</ele><time>2026-03-29T10:28:22.592Z</time></trkpt><trkpt lat="44.4866815" lon="7.3891171"><ele>601.0</ele><time>2026-03-29T10:28:24.593Z</time></trkpt><trkpt lat="44.486634" lon="7.3890482"><ele>601.0</ele><time>2026-03-29T10:28:26.593Z</time></trkpt><trkpt lat="44.4865878" lon="7.3889763"><ele>601.0</ele><time>2026-03-29T10:28:28.592Z</time></trkpt><trkpt lat="44.4865351" lon="7.3889139"><ele>601.0</ele><time>2026-03-29T10:28:30.592Z</time></trkpt><trkpt lat="44.4864835" lon="7.3888491"><ele>601.0</ele><time>2026-03-29T10:28:32.593Z</time></trkpt><trkpt lat="44.4864307" lon="7.388787"><ele>601.3333333333334</ele><time>2026-03-29T10:28:34.593Z</time></trkpt><trkpt lat="44.4863796" lon="7.3887262"><ele>601.6666666666667</ele><time>2026-03-29T10:28:36.592Z</time></trkpt><trkpt lat="44.4863289" lon="7.3886695"><ele>602.0</ele><time>2026-03-29T10:28:38.593Z</time></trkpt><trkpt lat="44.48626" lon="7.388593"><ele>602.3333333333334</ele><time>2026-03-29T10:28:41.592Z</time></trkpt><trkpt lat="44.4861908" lon="7.3885245"><ele>602.6666666666666</ele><time>2026-03-29T10:28:44.593Z</time></trkpt><trkpt lat="44.4861131" lon="7.3884556"><ele>603.0</ele><time>2026-03-29T10:28:47.592Z</time></trkpt><trkpt lat="44.4860622" lon="7.3884034"><ele>603.0</ele><time>2026-03-29T10:28:49.591Z</time></trkpt><trkpt lat="44.4860101" lon="7.3883479"><ele>603.0</ele><time>2026-03-29T10:28:51.592Z</time></trkpt><trkpt lat="44.4859508" lon="7.3882914"><ele>603.0</ele><time>2026-03-29T10:28:53.593Z</time></trkpt><trkpt lat="44.4858874" lon="7.3882335"><ele>603.0</ele><time>2026-03-29T10:28:55.593Z</time></trkpt><trkpt lat="44.4858202" lon="7.3881744"><ele>603.0</ele><time>2026-03-29T10:28:57.593Z</time></trkpt><trkpt lat="44.4857517" lon="7.3881136"><ele>603.0</ele><time>2026-03-29T10:28:59.592Z</time></trkpt><trkpt lat="44.4856842" lon="7.3880533"><ele>603.0</ele><time>2026-03-29T10:29:01.592Z</time></trkpt><trkpt lat="44.4856184" lon="7.3879899"><ele>603.0</ele><time>2026-03-29T10:29:03.593Z</time></trkpt><trkpt lat="44.4855422" lon="7.3879327"><ele>603.0</ele><time>2026-03-29T10:29:05.592Z</time></trkpt><trkpt lat="44.4854588" lon="7.3878627"><ele>603.0</ele><time>2026-03-29T10:29:07.592Z</time></trkpt><trkpt lat="44.4853767" lon="7.3877943"><ele>603.0</ele><time>2026-03-29T10:29:09.592Z</time></trkpt><trkpt lat="44.4852858" lon="7.3877457"><ele>603.0</ele><time>2026-03-29T10:29:11.592Z</time></trkpt><trkpt lat="44.4851919" lon="7.3877183"><ele>603.0</ele><time>2026-03-29T10:29:13.591Z</time></trkpt><trkpt lat="44.4850978" lon="7.3877171"><ele>603.0</ele><time>2026-03-29T10:29:15.592Z</time></trkpt><trkpt lat="44.4850081" lon="7.3877032"><ele>603.0</ele><time>2026-03-29T10:29:17.592Z</time></trkpt><trkpt lat="44.4849297" lon="7.3876478"><ele>603.0</ele><time>2026-03-29T10:29:19.592Z</time></trkpt><trkpt lat="44.4848664" lon="7.3875774"><ele>603.0</ele><time>2026-03-29T10:29:21.592Z</time></trkpt><trkpt lat="44.4848146" lon="7.3874912"><ele>603.0</ele><time>2026-03-29T10:29:23.593Z</time></trkpt><trkpt lat="44.484773" lon="7.3873966"><ele>603.0</ele><time>2026-03-29T10:29:25.592Z</time></trkpt><trkpt lat="44.4847386" lon="7.387302"><ele>603.0</ele><time>2026-03-29T10:29:27.593Z</time></trkpt><trkpt lat="44.4847036" lon="7.3872152"><ele>603.0</ele><time>2026-03-29T10:29:29.593Z</time></trkpt><trkpt lat="44.4846623" lon="7.3871385"><ele>603.0</ele><time>2026-03-29T10:29:31.593Z</time></trkpt><trkpt lat="44.4846188" lon="7.3870592"><ele>603.0</ele><time>2026-03-29T10:29:33.592Z</time></trkpt><trkpt lat="44.4845765" lon="7.3869846"><ele>603.0</ele><time>2026-03-29T10:29:35.593Z</time></trkpt><trkpt lat="44.4845352" lon="7.3869097"><ele>603.0</ele><time>2026-03-29T10:29:37.593Z</time></trkpt><trkpt lat="44.4844924" lon="7.386828"><ele>603.0</ele><time>2026-03-29T10:29:39.593Z</time></trkpt><trkpt lat="44.4844518" lon="7.3867408"><ele>603.0</ele><time>2026-03-29T10:29:41.592Z</time></trkpt><trkpt lat="44.4844084" lon="7.386647"><ele>603.0</ele><time>2026-03-29T10:29:43.593Z</time></trkpt><trkpt lat="44.4843563" lon="7.3865604"><ele>603.0</ele><time>2026-03-29T10:29:45.592Z</time></trkpt><trkpt lat="44.4843061" lon="7.3864715"><ele>603.0</ele><time>2026-03-29T10:29:47.592Z</time></trkpt><trkpt lat="44.4842623" lon="7.3863824"><ele>603.0</ele><time>2026-03-29T10:29:49.592Z</time></trkpt><trkpt lat="44.484222" lon="7.3862888"><ele>603.0</ele><time>2026-03-29T10:29:51.593Z</time></trkpt><trkpt lat="44.4841972" lon="7.386185"><ele>603.0</ele><time>2026-03-29T10:29:53.593Z</time></trkpt><trkpt lat="44.4841808" lon="7.3860783"><ele>603.0</ele><time>2026-03-29T10:29:55.593Z</time></trkpt><trkpt lat="44.4841589" lon="7.3859756"><ele>603.0</ele><time>2026-03-29T10:29:57.592Z</time></trkpt><trkpt lat="44.4841305" lon="7.3858707"><ele>603.0</ele><time>2026-03-29T10:29:59.592Z</time></trkpt><trkpt lat="44.4840826" lon="7.3857796"><ele>603.0</ele><time>2026-03-29T10:30:01.592Z</time></trkpt><trkpt lat="44.4840287" lon="7.3856958"><ele>603.0</ele><time>2026-03-29T10:30:03.592Z</time></trkpt><trkpt lat="44.4839711" lon="7.3856275"><ele>603.0</ele><time>2026-03-29T10:30:05.593Z</time></trkpt><trkpt lat="44.483915" lon="7.3855656"><ele>603.0</ele><time>2026-03-29T10:30:07.592Z</time></trkpt><trkpt lat="44.4838629" lon="7.3855075"><ele>603.0</ele><time>2026-03-29T10:30:09.593Z</time></trkpt><trkpt lat="44.483789" lon="7.3854397"><ele>603.0</ele><time>2026-03-29T10:30:12.591Z</time></trkpt><trkpt lat="44.4837307" lon="7.3853732"><ele>603.1428571428572</ele><time>2026-03-29T10:30:14.592Z</time></trkpt><trkpt lat="44.4836769" lon="7.3853064"><ele>603.2857142857142</ele><time>2026-03-29T10:30:16.592Z</time></trkpt><trkpt lat="44.4836176" lon="7.38525"><ele>603.4285714285714</ele><time>2026-03-29T10:30:18.592Z</time></trkpt><trkpt lat="44.4835549" lon="7.3851908"><ele>603.5714285714287</ele><time>2026-03-29T10:30:20.592Z</time></trkpt><trkpt lat="44.4834942" lon="7.3851334"><ele>603.7142857142858</ele><time>2026-03-29T10:30:22.592Z</time></trkpt><trkpt lat="44.4834347" lon="7.3850781"><ele>603.8571428571429</ele><time>2026-03-29T10:30:24.593Z</time></trkpt><trkpt lat="44.4833723" lon="7.3850141"><ele>604.0</ele><time>2026-03-29T10:30:26.593Z</time></trkpt><trkpt lat="44.4833056" lon="7.3849502"><ele>604.0</ele><time>2026-03-29T10:30:28.593Z</time></trkpt><trkpt lat="44.4832383" lon="7.384885"><ele>604.0</ele><time>2026-03-29T10:30:30.592Z</time></trkpt><trkpt lat="44.4831705" lon="7.384821"><ele>604.0</ele><time>2026-03-29T10:30:32.592Z</time></trkpt><trkpt lat="44.4831058" lon="7.384762"><ele>604.0</ele><time>2026-03-29T10:30:34.593Z</time></trkpt><trkpt lat="44.4830467" lon="7.3847041"><ele>604.0</ele><time>2026-03-29T10:30:36.592Z</time></trkpt><trkpt lat="44.4829953" lon="7.3846514"><ele>604.0</ele><time>2026-03-29T10:30:38.593Z</time></trkpt><trkpt lat="44.4829168" lon="7.3845803"><ele>604.2857142857143</ele><time>2026-03-29T10:30:41.593Z</time></trkpt><trkpt lat="44.482857" lon="7.38453"><ele>604.5714285714286</ele><time>2026-03-29T10:30:43.593Z</time></trkpt><trkpt lat="44.4827917" lon="7.3844831"><ele>604.8571428571429</ele><time>2026-03-29T10:30:45.592Z</time></trkpt><trkpt lat="44.4827253" lon="7.3844381"><ele>605.1428571428571</ele><time>2026-03-29T10:30:47.592Z</time></trkpt><trkpt lat="44.482654" lon="7.3844075"><ele>605.4285714285714</ele><time>2026-03-29T10:30:49.593Z</time></trkpt><trkpt lat="44.4825891" lon="7.3843761"><ele>605.7142857142858</ele><time>2026-03-29T10:30:51.592Z</time></trkpt><trkpt lat="44.4825303" lon="7.3843443"><ele>606.0</ele><time>2026-03-29T10:30:53.592Z</time></trkpt><trkpt lat="44.482467" lon="7.38431"><ele>606.0</ele><time>2026-03-29T10:30:55.592Z</time></trkpt><trkpt lat="44.4823993" lon="7.3842704"><ele>606.0</ele><time>2026-03-29T10:30:57.593Z</time></trkpt><trkpt lat="44.4823241" lon="7.3842297"><ele>606.0</ele><time>2026-03-29T10:30:59.593Z</time></trkpt><trkpt lat="44.4822432" lon="7.3841931"><ele>606.0</ele><time>2026-03-29T10:31:01.593Z</time></trkpt><trkpt lat="44.4821596" lon="7.3841522"><ele>606.0</ele><time>2026-03-29T10:31:03.592Z</time></trkpt><trkpt lat="44.4820722" lon="7.3841088"><ele>606.0</ele><time>2026-03-29T10:31:05.593Z</time></trkpt><trkpt lat="44.4819877" lon="7.3840788"><ele>606.0</ele><time>2026-03-29T10:31:07.593Z</time></trkpt><trkpt lat="44.4819066" lon="7.3840266"><ele>606.0</ele><time>2026-03-29T10:31:09.592Z</time></trkpt><trkpt lat="44.4818472" lon="7.3839368"><ele>606.0</ele><time>2026-03-29T10:31:11.593Z</time></trkpt><trkpt lat="44.4818448" lon="7.3838273"><ele>606.0</ele><time>2026-03-29T10:31:13.592Z</time></trkpt><trkpt lat="44.481886" lon="7.3837318"><ele>606.0</ele><time>2026-03-29T10:31:15.593Z</time></trkpt><trkpt lat="44.4819357" lon="7.3836422"><ele>606.0</ele><time>2026-03-29T10:31:17.593Z</time></trkpt><trkpt lat="44.4819901" lon="7.3835584"><ele>606.0</ele><time>2026-03-29T10:31:19.592Z</time></trkpt><trkpt lat="44.4820459" lon="7.3834789"><ele>606.0</ele><time>2026-03-29T10:31:21.593Z</time></trkpt><trkpt lat="44.4820989" lon="7.3833967"><ele>606.0</ele><time>2026-03-29T10:31:23.592Z</time></trkpt><trkpt lat="44.4821505" lon="7.3833106"><ele>606.0</ele><time>2026-03-29T10:31:25.593Z</time></trkpt><trkpt lat="44.4822004" lon="7.3832202"><ele>606.0</ele><time>2026-03-29T10:31:27.592Z</time></trkpt><trkpt lat="44.4822486" lon="7.3831277"><ele>606.0</ele><time>2026-03-29T10:31:29.592Z</time></trkpt><trkpt lat="44.4822984" lon="7.3830398"><ele>607.0</ele><time>2026-03-29T10:31:31.593Z</time></trkpt><trkpt lat="44.4823447" lon="7.3829473"><ele>608.0</ele><time>2026-03-29T10:31:33.593Z</time></trkpt><trkpt lat="44.4823915" lon="7.3828607"><ele>609.0</ele><time>2026-03-29T10:31:35.592Z</time></trkpt><trkpt lat="44.4824388" lon="7.3827784"><ele>610.0</ele><time>2026-03-29T10:31:37.592Z</time></trkpt><trkpt lat="44.4824813" lon="7.3826911"><ele>611.0</ele><time>2026-03-29T10:31:39.592Z</time></trkpt><trkpt lat="44.4825268" lon="7.3826021"><ele>612.0</ele><time>2026-03-29T10:31:41.593Z</time></trkpt><trkpt lat="44.4825758" lon="7.3825158"><ele>612.0</ele><time>2026-03-29T10:31:43.592Z</time></trkpt><trkpt lat="44.4826194" lon="7.3824279"><ele>612.0</ele><time>2026-03-29T10:31:45.592Z</time></trkpt><trkpt lat="44.4826628" lon="7.3823412"><ele>612.0</ele><time>2026-03-29T10:31:47.592Z</time></trkpt><trkpt lat="44.4827079" lon="7.3822554"><ele>612.0</ele><time>2026-03-29T10:31:49.592Z</time></trkpt><trkpt lat="44.4827496" lon="7.3821699"><ele>612.0</ele><time>2026-03-29T10:31:51.592Z</time></trkpt><trkpt lat="44.4827883" lon="7.3820835"><ele>612.0</ele><time>2026-03-29T10:31:53.593Z</time></trkpt><trkpt lat="44.482824" lon="7.3819939"><ele>612.0</ele><time>2026-03-29T10:31:55.593Z</time></trkpt><trkpt lat="44.4828556" lon="7.3819006"><ele>612.3333333333334</ele><time>2026-03-29T10:31:57.593Z</time></trkpt><trkpt lat="44.4828865" lon="7.3818113"><ele>612.6666666666666</ele><time>2026-03-29T10:31:59.593Z</time></trkpt><trkpt lat="44.4829151" lon="7.3817293"><ele>613.0</ele><time>2026-03-29T10:32:01.593Z</time></trkpt><trkpt lat="44.482942" lon="7.3816473"><ele>613.3333333333333</ele><time>2026-03-29T10:32:03.591Z</time></trkpt><trkpt lat="44.4829803" lon="7.3815269"><ele>613.6666666666666</ele><time>2026-03-29T10:32:06.593Z</time></trkpt><trkpt lat="44.4830034" lon="7.3814429"><ele>614.0</ele><time>2026-03-29T10:32:08.593Z</time></trkpt><trkpt lat="44.4830431" lon="7.3813254"><ele>614.6666666666666</ele><time>2026-03-29T10:32:11.592Z</time></trkpt><trkpt lat="44.4830868" lon="7.381215"><ele>615.3333333333333</ele><time>2026-03-29T10:32:14.592Z</time></trkpt><trkpt lat="44.4830859" lon="7.3810955"><ele>616.0</ele><time>2026-03-29T10:32:17.592Z</time></trkpt><trkpt lat="44.483056" lon="7.3809871"><ele>616.6666666666666</ele><time>2026-03-29T10:32:20.593Z</time></trkpt><trkpt lat="44.4830075" lon="7.380879"><ele>617.3333333333334</ele><time>2026-03-29T10:32:23.593Z</time></trkpt><trkpt lat="44.4829523" lon="7.3807895"><ele>618.0</ele><time>2026-03-29T10:32:26.592Z</time></trkpt><trkpt lat="44.4829042" lon="7.380681"><ele>618.0</ele><time>2026-03-29T10:32:29.592Z</time></trkpt><trkpt lat="44.4828928" lon="7.3805623"><ele>618.0</ele><time>2026-03-29T10:32:32.592Z</time></trkpt><trkpt lat="44.4828738" lon="7.3804455"><ele>618.0</ele><time>2026-03-29T10:32:35.592Z</time></trkpt><trkpt lat="44.4828474" lon="7.3803322"><ele>618.0</ele><time>2026-03-29T10:32:38.592Z</time></trkpt><trkpt lat="44.4828029" lon="7.3802678"><ele>618.0</ele><time>2026-03-29T10:32:41.592Z</time></trkpt><trkpt lat="44.4827474" lon="7.3802023"><ele>618.0</ele><time>2026-03-29T10:32:45.593Z</time></trkpt><trkpt lat="44.4826914" lon="7.3801551"><ele>618.5</ele><time>2026-03-29T10:32:48.592Z</time></trkpt><trkpt lat="44.4826428" lon="7.3800956"><ele>619.0</ele><time>2026-03-29T10:32:51.592Z</time></trkpt><trkpt lat="44.4826111" lon="7.3800105"><ele>619.5</ele><time>2026-03-29T10:32:54.592Z</time></trkpt><trkpt lat="44.4826111" lon="7.3799136"><ele>620.0</ele><time>2026-03-29T10:32:57.593Z</time></trkpt><trkpt lat="44.4826112" lon="7.379805"><ele>620.5</ele><time>2026-03-29T10:33:00.592Z</time></trkpt><trkpt lat="44.4826286" lon="7.3796878"><ele>621.0</ele><time>2026-03-29T10:33:03.592Z</time></trkpt><trkpt lat="44.4826504" lon="7.3795659"><ele>621.4</ele><time>2026-03-29T10:33:06.592Z</time></trkpt><trkpt lat="44.4826858" lon="7.3794467"><ele>621.8</ele><time>2026-03-29T10:33:09.592Z</time></trkpt><trkpt lat="44.4827221" lon="7.3793248"><ele>622.1999999999999</ele><time>2026-03-29T10:33:12.593Z</time></trkpt><trkpt lat="44.4827576" lon="7.3792074"><ele>622.6</ele><time>2026-03-29T10:33:15.592Z</time></trkpt><trkpt lat="44.4827948" lon="7.3790942"><ele>623.0</ele><time>2026-03-29T10:33:18.592Z</time></trkpt><trkpt lat="44.4828281" lon="7.3789798"><ele>623.0</ele><time>2026-03-29T10:33:21.592Z</time></trkpt><trkpt lat="44.4828528" lon="7.3788571"><ele>623.0</ele><time>2026-03-29T10:33:24.593Z</time></trkpt><trkpt lat="44.4828812" lon="7.3787356"><ele>623.0</ele><time>2026-03-29T10:33:27.591Z</time></trkpt><trkpt lat="44.4828988" lon="7.378646"><ele>623.0</ele><time>2026-03-29T10:33:29.593Z</time></trkpt><trkpt lat="44.4829154" lon="7.378559"><ele>623.0</ele><time>2026-03-29T10:33:31.592Z</time></trkpt><trkpt lat="44.4829292" lon="7.3784696"><ele>623.0</ele><time>2026-03-29T10:33:33.593Z</time></trkpt><trkpt lat="44.4829544" lon="7.3783591"><ele>623.5714285714286</ele><time>2026-03-29T10:33:36.592Z</time></trkpt><trkpt lat="44.4829829" lon="7.3782334"><ele>624.1428571428571</ele><time>2026-03-29T10:33:39.592Z</time></trkpt><trkpt lat="44.4829982" lon="7.3781454"><ele>624.7142857142858</ele><time>2026-03-29T10:33:41.591Z</time></trkpt><trkpt lat="44.4830158" lon="7.3780574"><ele>625.2857142857142</ele><time>2026-03-29T10:33:43.593Z</time></trkpt><trkpt lat="44.4830357" lon="7.3779701"><ele>625.8571428571429</ele><time>2026-03-29T10:33:45.592Z</time></trkpt><trkpt lat="44.4830501" lon="7.3778808"><ele>626.4285714285714</ele><time>2026-03-29T10:33:47.592Z</time></trkpt><trkpt lat="44.4830671" lon="7.3777941"><ele>627.0</ele><time>2026-03-29T10:33:49.592Z</time></trkpt><trkpt lat="44.4830892" lon="7.3776648"><ele>627.5</ele><time>2026-03-29T10:33:52.592Z</time></trkpt><trkpt lat="44.4831008" lon="7.3775761"><ele>628.0</ele><time>2026-03-29T10:33:54.592Z</time></trkpt><trkpt lat="44.4831114" lon="7.3774882"><ele>628.5</ele><time>2026-03-29T10:33:56.593Z</time></trkpt><trkpt lat="44.4831202" lon="7.3773995"><ele>629.0</ele><time>2026-03-29T10:33:58.593Z</time></trkpt><trkpt lat="44.4831422" lon="7.377275"><ele>629.5</ele><time>2026-03-29T10:34:01.592Z</time></trkpt><trkpt lat="44.4831673" lon="7.3771563"><ele>630.0</ele><time>2026-03-29T10:34:04.591Z</time></trkpt><trkpt lat="44.4831894" lon="7.3770349"><ele>630.0</ele><time>2026-03-29T10:34:07.592Z</time></trkpt><trkpt lat="44.4832154" lon="7.3769152"><ele>630.0</ele><time>2026-03-29T10:34:10.592Z</time></trkpt><trkpt lat="44.4832321" lon="7.3767959"><ele>630.0</ele><time>2026-03-29T10:34:13.592Z</time></trkpt><trkpt lat="44.4832385" lon="7.3766752"><ele>630.0</ele><time>2026-03-29T10:34:16.592Z</time></trkpt><trkpt lat="44.4832401" lon="7.3765448"><ele>630.0</ele><time>2026-03-29T10:34:19.592Z</time></trkpt><trkpt lat="44.4832424" lon="7.376451"><ele>630.0</ele><time>2026-03-29T10:34:21.592Z</time></trkpt><trkpt lat="44.483242" lon="7.376355"><ele>630.4285714285714</ele><time>2026-03-29T10:34:23.592Z</time></trkpt><trkpt lat="44.4832444" lon="7.3762569"><ele>630.8571428571429</ele><time>2026-03-29T10:34:25.592Z</time></trkpt><trkpt lat="44.483242" lon="7.3761595"><ele>631.2857142857142</ele><time>2026-03-29T10:34:27.593Z</time></trkpt><trkpt lat="44.4832416" lon="7.3760645"><ele>631.7142857142858</ele><time>2026-03-29T10:34:29.593Z</time></trkpt><trkpt lat="44.4832386" lon="7.3759712"><ele>632.1428571428571</ele><time>2026-03-29T10:34:31.592Z</time></trkpt><trkpt lat="44.48324" lon="7.3758743"><ele>632.5714285714286</ele><time>2026-03-29T10:34:33.592Z</time></trkpt><trkpt lat="44.4832521" lon="7.3757706"><ele>633.0</ele><time>2026-03-29T10:34:35.592Z</time></trkpt><trkpt lat="44.4832622" lon="7.3756612"><ele>633.0</ele><time>2026-03-29T10:34:37.593Z</time></trkpt><trkpt lat="44.4832763" lon="7.3755598"><ele>633.0</ele><time>2026-03-29T10:34:39.592Z</time></trkpt><trkpt lat="44.4832914" lon="7.3754692"><ele>633.0</ele><time>2026-03-29T10:34:41.592Z</time></trkpt><trkpt lat="44.4833102" lon="7.3753447"><ele>633.0</ele><time>2026-03-29T10:34:44.593Z</time></trkpt><trkpt lat="44.4833309" lon="7.3752581"><ele>633.0</ele><time>2026-03-29T10:34:46.592Z</time></trkpt><trkpt lat="44.4833625" lon="7.3751742"><ele>633.0</ele><time>2026-03-29T10:34:48.592Z</time></trkpt><trkpt lat="44.4834075" lon="7.3751027"><ele>633.0</ele><time>2026-03-29T10:34:50.592Z</time></trkpt><trkpt lat="44.4834653" lon="7.3750521"><ele>633.1428571428571</ele><time>2026-03-29T10:34:52.593Z</time></trkpt><trkpt lat="44.4835257" lon="7.375006"><ele>633.2857142857143</ele><time>2026-03-29T10:34:54.592Z</time></trkpt><trkpt lat="44.483585" lon="7.3749654"><ele>633.4285714285714</ele><time>2026-03-29T10:34:56.592Z</time></trkpt><trkpt lat="44.4836438" lon="7.3749197"><ele>633.5714285714286</ele><time>2026-03-29T10:34:58.591Z</time></trkpt><trkpt lat="44.4836982" lon="7.3748675"><ele>633.7142857142857</ele><time>2026-03-29T10:35:00.593Z</time></trkpt><trkpt lat="44.4837706" lon="7.3747909"><ele>633.8571428571429</ele><time>2026-03-29T10:35:03.593Z</time></trkpt><trkpt lat="44.4838378" lon="7.3747167"><ele>634.0</ele><time>2026-03-29T10:35:06.593Z</time></trkpt><trkpt lat="44.4839015" lon="7.3746467"><ele>635.1666666666667</ele><time>2026-03-29T10:35:09.591Z</time></trkpt><trkpt lat="44.483973" lon="7.3745871"><ele>636.3333333333334</ele><time>2026-03-29T10:35:12.593Z</time></trkpt><trkpt lat="44.4840443" lon="7.3745325"><ele>637.5</ele><time>2026-03-29T10:35:15.592Z</time></trkpt><trkpt lat="44.484115" lon="7.374473"><ele>638.6666666666666</ele><time>2026-03-29T10:35:18.592Z</time></trkpt><trkpt lat="44.4841924" lon="7.3744214"><ele>639.8333333333333</ele><time>2026-03-29T10:35:21.592Z</time></trkpt><trkpt lat="44.4842691" lon="7.3743717"><ele>641.0</ele><time>2026-03-29T10:35:24.592Z</time></trkpt><trkpt lat="44.4843467" lon="7.37432"><ele>641.0</ele><time>2026-03-29T10:35:27.592Z</time></trkpt><trkpt lat="44.4844239" lon="7.374279"><ele>641.0</ele><time>2026-03-29T10:35:30.593Z</time></trkpt><trkpt lat="44.4845019" lon="7.3742249"><ele>641.0</ele><time>2026-03-29T10:35:33.593Z</time></trkpt><trkpt lat="44.4845818" lon="7.3741731"><ele>641.0</ele><time>2026-03-29T10:35:36.592Z</time></trkpt><trkpt lat="44.4846668" lon="7.3741312"><ele>641.0</ele><time>2026-03-29T10:35:39.592Z</time></trkpt><trkpt lat="44.4847521" lon="7.3741092"><ele>641.0</ele><time>2026-03-29T10:35:42.593Z</time></trkpt><trkpt lat="44.4848278" lon="7.3740841"><ele>642.1428571428571</ele><time>2026-03-29T10:35:45.593Z</time></trkpt><trkpt lat="44.4848926" lon="7.3740481"><ele>643.2857142857142</ele><time>2026-03-29T10:35:48.592Z</time></trkpt><trkpt lat="44.4849646" lon="7.3740213"><ele>644.4285714285713</ele><time>2026-03-29T10:35:51.592Z</time></trkpt><trkpt lat="44.4850281" lon="7.3739699"><ele>645.5714285714286</ele><time>2026-03-29T10:35:54.592Z</time></trkpt><trkpt lat="44.4850808" lon="7.3739008"><ele>646.7142857142857</ele><time>2026-03-29T10:35:57.593Z</time></trkpt><trkpt lat="44.4851227" lon="7.3738202"><ele>647.8571428571428</ele><time>2026-03-29T10:36:00.593Z</time></trkpt><trkpt lat="44.4851625" lon="7.37374"><ele>649.0</ele><time>2026-03-29T10:36:03.593Z</time></trkpt><trkpt lat="44.4851818" lon="7.3736419"><ele>649.3333333333334</ele><time>2026-03-29T10:36:06.593Z</time></trkpt><trkpt lat="44.4852004" lon="7.3735437"><ele>649.6666666666667</ele><time>2026-03-29T10:36:09.592Z</time></trkpt><trkpt lat="44.4852216" lon="7.3734521"><ele>650.0</ele><time>2026-03-29T10:36:12.592Z</time></trkpt><trkpt lat="44.4852548" lon="7.3733646"><ele>650.3333333333334</ele><time>2026-03-29T10:36:15.592Z</time></trkpt><trkpt lat="44.4853163" lon="7.3732921"><ele>650.6666666666666</ele><time>2026-03-29T10:36:18.592Z</time></trkpt><trkpt lat="44.4853843" lon="7.3732272"><ele>651.0</ele><time>2026-03-29T10:36:21.593Z</time></trkpt><trkpt lat="44.4854539" lon="7.3731614"><ele>652.3333333333334</ele><time>2026-03-29T10:36:24.592Z</time></trkpt><trkpt lat="44.4855207" lon="7.3730966"><ele>653.6666666666666</ele><time>2026-03-29T10:36:27.593Z</time></trkpt><trkpt lat="44.4855779" lon="7.373026"><ele>655.0</ele><time>2026-03-29T10:36:30.593Z</time></trkpt><trkpt lat="44.4856399" lon="7.3729601"><ele>656.3333333333333</ele><time>2026-03-29T10:36:33.593Z</time></trkpt><trkpt lat="44.485704" lon="7.3728977"><ele>657.6666666666666</ele><time>2026-03-29T10:36:36.591Z</time></trkpt><trkpt lat="44.4857632" lon="7.3728211"><ele>659.0</ele><time>2026-03-29T10:36:39.593Z</time></trkpt><trkpt lat="44.4858117" lon="7.3727315"><ele>659.3333333333333</ele><time>2026-03-29T10:36:42.593Z</time></trkpt><trkpt lat="44.48585" lon="7.372636"><ele>659.6666666666666</ele><time>2026-03-29T10:36:45.593Z</time></trkpt><trkpt lat="44.4858899" lon="7.3725391"><ele>660.0</ele><time>2026-03-29T10:36:48.593Z</time></trkpt><trkpt lat="44.4859307" lon="7.3724429"><ele>660.3333333333334</ele><time>2026-03-29T10:36:51.593Z</time></trkpt><trkpt lat="44.485976" lon="7.3723451"><ele>660.6666666666667</ele><time>2026-03-29T10:36:54.593Z</time></trkpt><trkpt lat="44.4860392" lon="7.372275"><ele>661.0</ele><time>2026-03-29T10:36:57.593Z</time></trkpt><trkpt lat="44.4861053" lon="7.3722144"><ele>661.8333333333334</ele><time>2026-03-29T10:37:00.592Z</time></trkpt><trkpt lat="44.4861955" lon="7.3721596"><ele>662.6666666666667</ele><time>2026-03-29T10:37:03.592Z</time></trkpt><trkpt lat="44.486274" lon="7.3721207"><ele>663.5</ele><time>2026-03-29T10:37:06.593Z</time></trkpt><trkpt lat="44.4863513" lon="7.3720787"><ele>664.3333333333334</ele><time>2026-03-29T10:37:09.592Z</time></trkpt><trkpt lat="44.4864352" lon="7.3720574"><ele>665.1666666666666</ele><time>2026-03-29T10:37:12.592Z</time></trkpt><trkpt lat="44.4865131" lon="7.3720059"><ele>666.0</ele><time>2026-03-29T10:37:15.592Z</time></trkpt><trkpt lat="44.486578" lon="7.3719258"><ele>667.6666666666666</ele><time>2026-03-29T10:37:18.592Z</time></trkpt><trkpt lat="44.4866366" lon="7.3718418"><ele>669.3333333333334</ele><time>2026-03-29T10:37:21.592Z</time></trkpt><trkpt lat="44.4866828" lon="7.3717556"><ele>671.0</ele><time>2026-03-29T10:37:24.592Z</time></trkpt><trkpt lat="44.4867305" lon="7.3716653"><ele>672.6666666666667</ele><time>2026-03-29T10:37:27.593Z</time></trkpt><trkpt lat="44.4867979" lon="7.371592"><ele>674.3333333333334</ele><time>2026-03-29T10:37:30.593Z</time></trkpt><trkpt lat="44.4868599" lon="7.3715149"><ele>676.0</ele><time>2026-03-29T10:37:33.592Z</time></trkpt><trkpt lat="44.4869174" lon="7.3714383"><ele>676.0</ele><time>2026-03-29T10:37:36.592Z</time></trkpt><trkpt lat="44.4869704" lon="7.371372"><ele>676.0</ele><time>2026-03-29T10:37:39.592Z</time></trkpt><trkpt lat="44.4869906" lon="7.37127"><ele>676.0</ele><time>2026-03-29T10:37:42.593Z</time></trkpt><trkpt lat="44.4870014" lon="7.3711786"><ele>676.0</ele><time>2026-03-29T10:37:45.593Z</time></trkpt><trkpt lat="44.4869702" lon="7.371098"><ele>676.0</ele><time>2026-03-29T10:37:48.592Z</time></trkpt><trkpt lat="44.4869218" lon="7.3710257"><ele>676.0</ele><time>2026-03-29T10:37:52.593Z</time></trkpt><trkpt lat="44.4868778" lon="7.3709516"><ele>676.0</ele><time>2026-03-29T10:37:55.592Z</time></trkpt><trkpt lat="44.4868484" lon="7.3708609"><ele>676.7142857142858</ele><time>2026-03-29T10:37:58.593Z</time></trkpt><trkpt lat="44.4868617" lon="7.3707603"><ele>677.4285714285714</ele><time>2026-03-29T10:38:01.592Z</time></trkpt><trkpt lat="44.486886" lon="7.370663"><ele>678.1428571428571</ele><time>2026-03-29T10:38:04.593Z</time></trkpt><trkpt lat="44.4869151" lon="7.3705596"><ele>678.8571428571429</ele><time>2026-03-29T10:38:07.592Z</time></trkpt><trkpt lat="44.4869445" lon="7.370461"><ele>679.5714285714286</ele><time>2026-03-29T10:38:10.593Z</time></trkpt><trkpt lat="44.4869772" lon="7.3703642"><ele>680.2857142857143</ele><time>2026-03-29T10:38:13.592Z</time></trkpt><trkpt lat="44.4870008" lon="7.370271"><ele>681.0</ele><time>2026-03-29T10:38:16.592Z</time></trkpt><trkpt lat="44.4870241" lon="7.3701664"><ele>682.1666666666666</ele><time>2026-03-29T10:38:19.593Z</time></trkpt><trkpt lat="44.4870478" lon="7.3700686"><ele>683.3333333333334</ele><time>2026-03-29T10:38:22.592Z</time></trkpt><trkpt lat="44.4870789" lon="7.3699622"><ele>684.5</ele><time>2026-03-29T10:38:26.593Z</time></trkpt><trkpt lat="44.4870939" lon="7.3698682"><ele>685.6666666666667</ele><time>2026-03-29T10:38:30.592Z</time></trkpt><trkpt lat="44.4871185" lon="7.3697707"><ele>686.8333333333334</ele><time>2026-03-29T10:38:34.592Z</time></trkpt><trkpt lat="44.4871276" lon="7.3696572"><ele>688.0</ele><time>2026-03-29T10:38:38.592Z</time></trkpt><trkpt lat="44.4871143" lon="7.3695528"><ele>690.7142857142858</ele><time>2026-03-29T10:38:41.593Z</time></trkpt><trkpt lat="44.4870733" lon="7.3694581"><ele>693.4285714285714</ele><time>2026-03-29T10:38:44.593Z</time></trkpt><trkpt lat="44.4870102" lon="7.3694006"><ele>696.1428571428571</ele><time>2026-03-29T10:38:47.592Z</time></trkpt><trkpt lat="44.4869428" lon="7.3693768"><ele>698.8571428571429</ele><time>2026-03-29T10:38:50.593Z</time></trkpt><trkpt lat="44.4868734" lon="7.3693663"><ele>701.5714285714286</ele><time>2026-03-29T10:38:53.593Z</time></trkpt><trkpt lat="44.486804" lon="7.3693682"><ele>704.2857142857143</ele><time>2026-03-29T10:38:56.592Z</time></trkpt><trkpt lat="44.4867352" lon="7.3693485"><ele>707.0</ele><time>2026-03-29T10:38:59.592Z</time></trkpt><trkpt lat="44.4866725" lon="7.3693104"><ele>707.0</ele><time>2026-03-29T10:39:02.593Z</time></trkpt><trkpt lat="44.486607" lon="7.369273"><ele>707.0</ele><time>2026-03-29T10:39:05.592Z</time></trkpt><trkpt lat="44.4865375" lon="7.3692509"><ele>707.0</ele><time>2026-03-29T10:39:08.592Z</time></trkpt><trkpt lat="44.4864743" lon="7.369209"><ele>707.0</ele><time>2026-03-29T10:39:11.593Z</time></trkpt><trkpt lat="44.4864144" lon="7.3691667"><ele>707.0</ele><time>2026-03-29T10:39:14.592Z</time></trkpt><trkpt lat="44.48635" lon="7.3691358"><ele>707.0</ele><time>2026-03-29T10:39:17.593Z</time></trkpt><trkpt lat="44.4862837" lon="7.3691441"><ele>707.0</ele><time>2026-03-29T10:39:20.592Z</time></trkpt><trkpt lat="44.4862194" lon="7.3691527"><ele>707.3333333333333</ele><time>2026-03-29T10:39:23.592Z</time></trkpt><trkpt lat="44.4861577" lon="7.3691987"><ele>707.6666666666666</ele><time>2026-03-29T10:39:26.592Z</time></trkpt><trkpt lat="44.486084" lon="7.3692209"><ele>708.0</ele><time>2026-03-29T10:39:29.592Z</time></trkpt><trkpt lat="44.4860057" lon="7.3692388"><ele>708.3333333333334</ele><time>2026-03-29T10:39:32.593Z</time></trkpt><trkpt lat="44.4859345" lon="7.3692255"><ele>708.6666666666667</ele><time>2026-03-29T10:39:35.593Z</time></trkpt><trkpt lat="44.4858505" lon="7.3692189"><ele>709.0</ele><time>2026-03-29T10:39:39.592Z</time></trkpt><trkpt lat="44.4857834" lon="7.3691894"><ele>709.0</ele><time>2026-03-29T10:39:42.593Z</time></trkpt><trkpt lat="44.4857175" lon="7.3691464"><ele>709.0</ele><time>2026-03-29T10:39:45.593Z</time></trkpt><trkpt lat="44.4856586" lon="7.3691068"><ele>709.0</ele><time>2026-03-29T10:39:47.593Z</time></trkpt><trkpt lat="44.4855822" lon="7.369045"><ele>709.0</ele><time>2026-03-29T10:39:50.593Z</time></trkpt><trkpt lat="44.4855096" lon="7.36899"><ele>709.0</ele><time>2026-03-29T10:39:53.593Z</time></trkpt><trkpt lat="44.4854377" lon="7.3689438"><ele>709.0</ele><time>2026-03-29T10:39:56.592Z</time></trkpt><trkpt lat="44.485376" lon="7.3688959"><ele>709.4285714285714</ele><time>2026-03-29T10:39:59.593Z</time></trkpt><trkpt lat="44.4853098" lon="7.3688596"><ele>709.8571428571429</ele><time>2026-03-29T10:40:02.593Z</time></trkpt><trkpt lat="44.485238" lon="7.3688595"><ele>710.2857142857142</ele><time>2026-03-29T10:40:05.593Z</time></trkpt><trkpt lat="44.4851648" lon="7.3688807"><ele>710.7142857142858</ele><time>2026-03-29T10:40:08.592Z</time></trkpt><trkpt lat="44.485093" lon="7.3689145"><ele>711.1428571428571</ele><time>2026-03-29T10:40:11.593Z</time></trkpt><trkpt lat="44.4850243" lon="7.3689498"><ele>711.5714285714286</ele><time>2026-03-29T10:40:14.592Z</time></trkpt><trkpt lat="44.4849598" lon="7.3689935"><ele>712.0</ele><time>2026-03-29T10:40:17.592Z</time></trkpt><trkpt lat="44.4849029" lon="7.3690319"><ele>711.9999999999999</ele><time>2026-03-29T10:40:20.591Z</time></trkpt><trkpt lat="44.4848406" lon="7.3690557"><ele>712.0</ele><time>2026-03-29T10:40:23.592Z</time></trkpt><trkpt lat="44.4847786" lon="7.3690758"><ele>712.0</ele><time>2026-03-29T10:40:26.591Z</time></trkpt><trkpt lat="44.4847118" lon="7.3690753"><ele>712.0</ele><time>2026-03-29T10:40:29.591Z</time></trkpt><trkpt lat="44.4846493" lon="7.3690453"><ele>712.0</ele><time>2026-03-29T10:40:32.591Z</time></trkpt><trkpt lat="44.4845919" lon="7.3689914"><ele>711.9999999999999</ele><time>2026-03-29T10:40:35.591Z</time></trkpt><trkpt lat="44.4845565" lon="7.3689033"><ele>712.0</ele><time>2026-03-29T10:40:38.591Z</time></trkpt><trkpt lat="44.4845416" lon="7.3687988"><ele>713.1428571428571</ele><time>2026-03-29T10:40:41.592Z</time></trkpt><trkpt lat="44.4845334" lon="7.3686999"><ele>714.2857142857142</ele><time>2026-03-29T10:40:44.592Z</time></trkpt><trkpt lat="44.4845276" lon="7.368596"><ele>715.4285714285713</ele><time>2026-03-29T10:40:47.591Z</time></trkpt><trkpt lat="44.4845165" lon="7.3684928"><ele>716.5714285714286</ele><time>2026-03-29T10:40:50.592Z</time></trkpt><trkpt lat="44.4845083" lon="7.3683848"><ele>717.7142857142858</ele><time>2026-03-29T10:40:53.592Z</time></trkpt><trkpt lat="44.484487" lon="7.3682804"><ele>718.8571428571428</ele><time>2026-03-29T10:40:56.592Z</time></trkpt><trkpt lat="44.4844484" lon="7.3681961"><ele>720.0</ele><time>2026-03-29T10:40:59.592Z</time></trkpt><trkpt lat="44.484389" lon="7.3681203"><ele>720.0</ele><time>2026-03-29T10:41:03.591Z</time></trkpt><trkpt lat="44.4843287" lon="7.3680726"><ele>720.0</ele><time>2026-03-29T10:41:06.591Z</time></trkpt><trkpt lat="44.484256" lon="7.3680297"><ele>720.0</ele><time>2026-03-29T10:41:09.591Z</time></trkpt><trkpt lat="44.484177" lon="7.3679939"><ele>720.0</ele><time>2026-03-29T10:41:12.591Z</time></trkpt><trkpt lat="44.4841041" lon="7.3679528"><ele>720.0</ele><time>2026-03-29T10:41:15.591Z</time></trkpt><trkpt lat="44.4840295" lon="7.3678827"><ele>720.0</ele><time>2026-03-29T10:41:19.591Z</time></trkpt><trkpt lat="44.4839802" lon="7.3677864"><ele>723.3333333333334</ele><time>2026-03-29T10:41:22.592Z</time></trkpt><trkpt lat="44.4839486" lon="7.3676678"><ele>726.6666666666666</ele><time>2026-03-29T10:41:25.592Z</time></trkpt><trkpt lat="44.4839168" lon="7.3675619"><ele>730.0</ele><time>2026-03-29T10:41:28.592Z</time></trkpt><trkpt lat="44.4838929" lon="7.3674561"><ele>733.3333333333333</ele><time>2026-03-29T10:41:31.591Z</time></trkpt><trkpt lat="44.4838723" lon="7.3673518"><ele>736.6666666666666</ele><time>2026-03-29T10:41:34.591Z</time></trkpt><trkpt lat="44.4838459" lon="7.3672476"><ele>740.0</ele><time>2026-03-29T10:41:37.591Z</time></trkpt><trkpt lat="44.4838262" lon="7.3671373"><ele>741.0</ele><time>2026-03-29T10:41:40.592Z</time></trkpt><trkpt lat="44.4838072" lon="7.3670284"><ele>742.0</ele><time>2026-03-29T10:41:43.591Z</time></trkpt><trkpt lat="44.4837864" lon="7.3669137"><ele>743.0</ele><time>2026-03-29T10:41:46.591Z</time></trkpt><trkpt lat="44.4837664" lon="7.3668046"><ele>744.0</ele><time>2026-03-29T10:41:49.591Z</time></trkpt><trkpt lat="44.4837441" lon="7.3667154"><ele>745.0</ele><time>2026-03-29T10:41:52.591Z</time></trkpt><trkpt lat="44.4836896" lon="7.3666385"><ele>746.0</ele><time>2026-03-29T10:41:56.591Z</time></trkpt><trkpt lat="44.483622" lon="7.3666078"><ele>746.0</ele><time>2026-03-29T10:41:59.591Z</time></trkpt><trkpt lat="44.4835554" lon="7.3665925"><ele>746.0</ele><time>2026-03-29T10:42:02.591Z</time></trkpt><trkpt lat="44.4834875" lon="7.3665745"><ele>746.0</ele><time>2026-03-29T10:42:04.592Z</time></trkpt><trkpt lat="44.4834174" lon="7.3665622"><ele>746.0</ele><time>2026-03-29T10:42:06.591Z</time></trkpt><trkpt lat="44.4833468" lon="7.36657"><ele>746.0</ele><time>2026-03-29T10:42:09.591Z</time></trkpt><trkpt lat="44.48327" lon="7.3665672"><ele>746.0</ele><time>2026-03-29T10:42:12.558Z</time></trkpt><trkpt lat="44.4831974" lon="7.3665521"><ele>746.0</ele><time>2026-03-29T10:42:15.592Z</time></trkpt><trkpt lat="44.4831296" lon="7.3665216"><ele>746.0</ele><time>2026-03-29T10:42:18.59Z</time></trkpt><trkpt lat="44.4830721" lon="7.3664705"><ele>746.0</ele><time>2026-03-29T10:42:21.591Z</time></trkpt><trkpt lat="44.4830003" lon="7.3664251"><ele>746.0</ele><time>2026-03-29T10:42:25.592Z</time></trkpt><trkpt lat="44.4829233" lon="7.3664209"><ele>746.0</ele><time>2026-03-29T10:42:28.591Z</time></trkpt><trkpt lat="44.4828322" lon="7.3664185"><ele>746.0</ele><time>2026-03-29T10:42:31.591Z</time></trkpt><trkpt lat="44.4827527" lon="7.3663802"><ele>746.0</ele><time>2026-03-29T10:42:34.592Z</time></trkpt><trkpt lat="44.4826999" lon="7.3662989"><ele>745.5</ele><time>2026-03-29T10:42:37.591Z</time></trkpt><trkpt lat="44.4826641" lon="7.3662093"><ele>745.0</ele><time>2026-03-29T10:42:40.591Z</time></trkpt><trkpt lat="44.482655" lon="7.3661013"><ele>744.5</ele><time>2026-03-29T10:42:44.591Z</time></trkpt><trkpt lat="44.4826456" lon="7.3659928"><ele>744.0</ele><time>2026-03-29T10:42:47.592Z</time></trkpt><trkpt lat="44.4826381" lon="7.3658792"><ele>743.5</ele><time>2026-03-29T10:42:50.605Z</time></trkpt><trkpt lat="44.4826133" lon="7.3657897"><ele>743.0</ele><time>2026-03-29T10:42:52.591Z</time></trkpt><trkpt lat="44.4825884" lon="7.3656717"><ele>743.0</ele><time>2026-03-29T10:42:55.592Z</time></trkpt><trkpt lat="44.4825677" lon="7.3655801"><ele>743.0</ele><time>2026-03-29T10:42:58.591Z</time></trkpt><trkpt lat="44.4825625" lon="7.365491"><ele>743.0</ele><time>2026-03-29T10:43:01.591Z</time></trkpt><trkpt lat="44.4825491" lon="7.365398"><ele>743.0</ele><time>2026-03-29T10:43:04.591Z</time></trkpt><trkpt lat="44.4824963" lon="7.3653174"><ele>743.0</ele><time>2026-03-29T10:43:07.592Z</time></trkpt><trkpt lat="44.4824167" lon="7.3652789"><ele>743.0</ele><time>2026-03-29T10:43:10.59Z</time></trkpt><trkpt lat="44.4823582" lon="7.3651889"><ele>743.0</ele><time>2026-03-29T10:43:13.461Z</time></trkpt><trkpt lat="44.4823497" lon="7.3650674"><ele>745.8333333333333</ele><time>2026-03-29T10:43:16.601Z</time></trkpt><trkpt lat="44.4822907" lon="7.3649846"><ele>748.6666666666666</ele><time>2026-03-29T10:43:19.591Z</time></trkpt><trkpt lat="44.4822184" lon="7.3649673"><ele>751.5</ele><time>2026-03-29T10:43:22.591Z</time></trkpt><trkpt lat="44.4821452" lon="7.3649929"><ele>754.3333333333334</ele><time>2026-03-29T10:43:25.592Z</time></trkpt><trkpt lat="44.4820719" lon="7.3650366"><ele>757.1666666666667</ele><time>2026-03-29T10:43:28.592Z</time></trkpt><trkpt lat="44.4819972" lon="7.3650761"><ele>760.0</ele><time>2026-03-29T10:43:31.591Z</time></trkpt><trkpt lat="44.4819142" lon="7.3651136"><ele>760.0</ele><time>2026-03-29T10:43:34.591Z</time></trkpt><trkpt lat="44.4818303" lon="7.3651348"><ele>760.0</ele><time>2026-03-29T10:43:37.591Z</time></trkpt><trkpt lat="44.4817577" lon="7.3651685"><ele>760.0</ele><time>2026-03-29T10:43:40.591Z</time></trkpt><trkpt lat="44.481689" lon="7.365219"><ele>760.0</ele><time>2026-03-29T10:43:43.591Z</time></trkpt><trkpt lat="44.4816293" lon="7.3652661"><ele>760.0</ele><time>2026-03-29T10:43:46.592Z</time></trkpt><trkpt lat="44.4815517" lon="7.3652923"><ele>760.0</ele><time>2026-03-29T10:43:50.592Z</time></trkpt><trkpt lat="44.4814915" lon="7.365263"><ele>760.0</ele><time>2026-03-29T10:43:53.592Z</time></trkpt><trkpt lat="44.4814414" lon="7.3652004"><ele>760.0</ele><time>2026-03-29T10:43:56.592Z</time></trkpt><trkpt lat="44.48139" lon="7.3651315"><ele>760.0</ele><time>2026-03-29T10:43:59.592Z</time></trkpt><trkpt lat="44.4813196" lon="7.3650868"><ele>760.0</ele><time>2026-03-29T10:44:02.591Z</time></trkpt><trkpt lat="44.4812461" lon="7.3650557"><ele>760.0</ele><time>2026-03-29T10:44:05.592Z</time></trkpt><trkpt lat="44.4811704" lon="7.365044"><ele>760.0</ele><time>2026-03-29T10:44:08.592Z</time></trkpt><trkpt lat="44.4810931" lon="7.3650488"><ele>760.0</ele><time>2026-03-29T10:44:11.591Z</time></trkpt><trkpt lat="44.4810141" lon="7.3650434"><ele>759.5</ele><time>2026-03-29T10:44:14.592Z</time></trkpt><trkpt lat="44.4809293" lon="7.3650365"><ele>759.0</ele><time>2026-03-29T10:44:17.592Z</time></trkpt><trkpt lat="44.4808458" lon="7.3650314"><ele>758.5</ele><time>2026-03-29T10:44:20.592Z</time></trkpt><trkpt lat="44.4807762" lon="7.3650168"><ele>758.0</ele><time>2026-03-29T10:44:23.592Z</time></trkpt><trkpt lat="44.4807065" lon="7.3650047"><ele>757.5</ele><time>2026-03-29T10:44:27.592Z</time></trkpt><trkpt lat="44.4806285" lon="7.3649762"><ele>757.0</ele><time>2026-03-29T10:44:31.592Z</time></trkpt><trkpt lat="44.4805612" lon="7.3649617"><ele>757.0</ele><time>2026-03-29T10:44:33.592Z</time></trkpt><trkpt lat="44.4804769" lon="7.3649379"><ele>757.0</ele><time>2026-03-29T10:44:36.591Z</time></trkpt><trkpt lat="44.4804123" lon="7.3648961"><ele>757.0</ele><time>2026-03-29T10:44:39.592Z</time></trkpt><trkpt lat="44.4803665" lon="7.3648326"><ele>757.0</ele><time>2026-03-29T10:44:41.592Z</time></trkpt><trkpt lat="44.4803252" lon="7.3647515"><ele>757.0</ele><time>2026-03-29T10:44:43.591Z</time></trkpt><trkpt lat="44.480283" lon="7.3646678"><ele>757.0</ele><time>2026-03-29T10:44:45.591Z</time></trkpt><trkpt lat="44.4802272" lon="7.3645626"><ele>755.4000000000001</ele><time>2026-03-29T10:44:48.591Z</time></trkpt><trkpt lat="44.4801783" lon="7.3644374"><ele>753.8000000000001</ele><time>2026-03-29T10:44:50.591Z</time></trkpt><trkpt lat="44.4801416" lon="7.3643059"><ele>752.2</ele><time>2026-03-29T10:44:52.591Z</time></trkpt><trkpt lat="44.4801117" lon="7.3641472"><ele>750.6</ele><time>2026-03-29T10:44:54.591Z</time></trkpt><trkpt lat="44.4800838" lon="7.3639922"><ele>749.0</ele><time>2026-03-29T10:44:56.592Z</time></trkpt><trkpt lat="44.4800493" lon="7.3638717"><ele>749.4000000000001</ele><time>2026-03-29T10:44:58.591Z</time></trkpt><trkpt lat="44.4799658" lon="7.3637924"><ele>749.8</ele><time>2026-03-29T10:45:00.591Z</time></trkpt><trkpt lat="44.4798539" lon="7.363763"><ele>750.2</ele><time>2026-03-29T10:45:02.591Z</time></trkpt><trkpt lat="44.4797342" lon="7.363746"><ele>750.5999999999999</ele><time>2026-03-29T10:45:04.591Z</time></trkpt><trkpt lat="44.4796247" lon="7.3637531"><ele>751.0</ele><time>2026-03-29T10:45:06.592Z</time></trkpt><trkpt lat="44.47953" lon="7.3637761"><ele>751.0</ele><time>2026-03-29T10:45:08.592Z</time></trkpt><trkpt lat="44.4794289" lon="7.3638072"><ele>751.0</ele><time>2026-03-29T10:45:10.592Z</time></trkpt><trkpt lat="44.4793331" lon="7.3638286"><ele>751.0</ele><time>2026-03-29T10:45:12.591Z</time></trkpt><trkpt lat="44.479262" lon="7.3638417"><ele>751.0</ele><time>2026-03-29T10:45:14.591Z</time></trkpt><trkpt lat="44.479197" lon="7.3638681"><ele>751.0</ele><time>2026-03-29T10:45:16.591Z</time></trkpt><trkpt lat="44.4791327" lon="7.3638884"><ele>751.0</ele><time>2026-03-29T10:45:18.592Z</time></trkpt><trkpt lat="44.4790558" lon="7.3638892"><ele>751.0</ele><time>2026-03-29T10:45:20.591Z</time></trkpt><trkpt lat="44.478977" lon="7.3638242"><ele>751.0</ele><time>2026-03-29T10:45:22.591Z</time></trkpt><trkpt lat="44.4789259" lon="7.3637316"><ele>751.0</ele><time>2026-03-29T10:45:24.592Z</time></trkpt><trkpt lat="44.4788779" lon="7.3636629"><ele>751.0</ele><time>2026-03-29T10:45:26.591Z</time></trkpt><trkpt lat="44.4788131" lon="7.3635669"><ele>751.0</ele><time>2026-03-29T10:45:29.592Z</time></trkpt><trkpt lat="44.4787654" lon="7.3634953"><ele>751.0</ele><time>2026-03-29T10:45:31.591Z</time></trkpt><trkpt lat="44.4787221" lon="7.3634176"><ele>749.6666666666667</ele><time>2026-03-29T10:45:33.59Z</time></trkpt><trkpt lat="44.4786803" lon="7.3633364"><ele>748.3333333333334</ele><time>2026-03-29T10:45:35.592Z</time></trkpt><trkpt lat="44.4786304" lon="7.3632388"><ele>747.0</ele><time>2026-03-29T10:45:37.591Z</time></trkpt><trkpt lat="44.478561" lon="7.363138"><ele>745.6666666666666</ele><time>2026-03-29T10:45:39.592Z</time></trkpt><trkpt lat="44.4784988" lon="7.3630734"><ele>744.3333333333333</ele><time>2026-03-29T10:45:41.591Z</time></trkpt><trkpt lat="44.4784348" lon="7.3629716"><ele>743.0</ele><time>2026-03-29T10:45:43.591Z</time></trkpt><trkpt lat="44.4783784" lon="7.3628566"><ele>743.0</ele><time>2026-03-29T10:45:45.59Z</time></trkpt><trkpt lat="44.478333" lon="7.3627524"><ele>743.0</ele><time>2026-03-29T10:45:47.591Z</time></trkpt><trkpt lat="44.4782911" lon="7.3626685"><ele>743.0</ele><time>2026-03-29T10:45:49.592Z</time></trkpt><trkpt lat="44.4782536" lon="7.362595"><ele>743.0</ele><time>2026-03-29T10:45:51.591Z</time></trkpt><trkpt lat="44.4782162" lon="7.3625094"><ele>743.0</ele><time>2026-03-29T10:45:53.592Z</time></trkpt><trkpt lat="44.4781739" lon="7.3623713"><ele>743.0</ele><time>2026-03-29T10:45:55.591Z</time></trkpt><trkpt lat="44.4781296" lon="7.3622241"><ele>744.1666666666666</ele><time>2026-03-29T10:45:57.591Z</time></trkpt><trkpt lat="44.4781062" lon="7.3620771"><ele>745.3333333333333</ele><time>2026-03-29T10:45:59.592Z</time></trkpt><trkpt lat="44.4780641" lon="7.3619513"><ele>746.5</ele><time>2026-03-29T10:46:01.591Z</time></trkpt><trkpt lat="44.4780439" lon="7.3618401"><ele>747.6666666666666</ele><time>2026-03-29T10:46:03.59Z</time></trkpt><trkpt lat="44.4780176" lon="7.3617413"><ele>748.8333333333334</ele><time>2026-03-29T10:46:05.591Z</time></trkpt><trkpt lat="44.4779951" lon="7.3616297"><ele>750.0</ele><time>2026-03-29T10:46:07.591Z</time></trkpt><trkpt lat="44.4779756" lon="7.3615036"><ele>750.0</ele><time>2026-03-29T10:46:10.591Z</time></trkpt><trkpt lat="44.4779616" lon="7.3613739"><ele>750.0</ele><time>2026-03-29T10:46:13.591Z</time></trkpt><trkpt lat="44.4779506" lon="7.3612813"><ele>750.0</ele><time>2026-03-29T10:46:15.591Z</time></trkpt><trkpt lat="44.4779215" lon="7.3611568"><ele>750.0</ele><time>2026-03-29T10:46:18.591Z</time></trkpt><trkpt lat="44.477914" lon="7.3610614"><ele>750.0</ele><time>2026-03-29T10:46:20.592Z</time></trkpt><trkpt lat="44.4778955" lon="7.36096"><ele>750.0</ele><time>2026-03-29T10:46:22.592Z</time></trkpt><trkpt lat="44.477878" lon="7.3608488"><ele>749.8333333333334</ele><time>2026-03-29T10:46:24.591Z</time></trkpt><trkpt lat="44.4778571" lon="7.3607346"><ele>749.6666666666666</ele><time>2026-03-29T10:46:27.592Z</time></trkpt><trkpt lat="44.4778363" lon="7.3606394"><ele>749.5</ele><time>2026-03-29T10:46:29.592Z</time></trkpt><trkpt lat="44.4778321" lon="7.3605505"><ele>749.3333333333333</ele><time>2026-03-29T10:46:31.592Z</time></trkpt><trkpt lat="44.4778377" lon="7.3604339"><ele>749.1666666666666</ele><time>2026-03-29T10:46:34.591Z</time></trkpt><trkpt lat="44.4778948" lon="7.3603402"><ele>749.0</ele><time>2026-03-29T10:46:37.592Z</time></trkpt><trkpt lat="44.4779369" lon="7.3602714"><ele>749.0</ele><time>2026-03-29T10:46:39.591Z</time></trkpt><trkpt lat="44.4779867" lon="7.3602133"><ele>749.0</ele><time>2026-03-29T10:46:42.591Z</time></trkpt><trkpt lat="44.4780416" lon="7.3601192"><ele>749.0</ele><time>2026-03-29T10:46:47.591Z</time></trkpt><trkpt lat="44.4780408" lon="7.3600204"><ele>749.0</ele><time>2026-03-29T10:46:49.592Z</time></trkpt><trkpt lat="44.4780234" lon="7.3599038"><ele>749.0</ele><time>2026-03-29T10:46:52.59Z</time></trkpt><trkpt lat="44.4780241" lon="7.3598018"><ele>749.0</ele><time>2026-03-29T10:46:54.591Z</time></trkpt><trkpt lat="44.47805" lon="7.3597068"><ele>748.0</ele><time>2026-03-29T10:46:56.592Z</time></trkpt><trkpt lat="44.4781179" lon="7.359652"><ele>747.0</ele><time>2026-03-29T10:46:59.591Z</time></trkpt><trkpt lat="44.4781931" lon="7.3595945"><ele>746.0</ele><time>2026-03-29T10:47:02.591Z</time></trkpt><trkpt lat="44.4782777" lon="7.359523"><ele>745.0</ele><time>2026-03-29T10:47:05.591Z</time></trkpt><trkpt lat="44.478347" lon="7.3594511"><ele>744.0</ele><time>2026-03-29T10:47:07.591Z</time></trkpt><trkpt lat="44.478366" lon="7.3593518"><ele>743.0</ele><time>2026-03-29T10:47:10.592Z</time></trkpt><trkpt lat="44.4783335" lon="7.3592495"><ele>743.0</ele><time>2026-03-29T10:47:14.591Z</time></trkpt><trkpt lat="44.4782924" lon="7.3591661"><ele>743.0</ele><time>2026-03-29T10:47:16.592Z</time></trkpt><trkpt lat="44.4782603" lon="7.359061"><ele>743.0</ele><time>2026-03-29T10:47:18.592Z</time></trkpt><trkpt lat="44.4782262" lon="7.3589596"><ele>743.0</ele><time>2026-03-29T10:47:20.592Z</time></trkpt><trkpt lat="44.4781948" lon="7.3588707"><ele>743.0</ele><time>2026-03-29T10:47:22.591Z</time></trkpt><trkpt lat="44.4781715" lon="7.3587591"><ele>743.0</ele><time>2026-03-29T10:47:25.592Z</time></trkpt><trkpt lat="44.4781468" lon="7.3586422"><ele>744.3333333333333</ele><time>2026-03-29T10:47:28.591Z</time></trkpt><trkpt lat="44.4781122" lon="7.3585491"><ele>745.6666666666666</ele><time>2026-03-29T10:47:31.591Z</time></trkpt><trkpt lat="44.4780698" lon="7.3584614"><ele>747.0</ele><time>2026-03-29T10:47:34.591Z</time></trkpt><trkpt lat="44.4780599" lon="7.3583564"><ele>748.3333333333334</ele><time>2026-03-29T10:47:37.591Z</time></trkpt><trkpt lat="44.4780749" lon="7.3582507"><ele>749.6666666666667</ele><time>2026-03-29T10:47:40.591Z</time></trkpt><trkpt lat="44.4781058" lon="7.3581649"><ele>751.0</ele><time>2026-03-29T10:47:43.591Z</time></trkpt><trkpt lat="44.478148" lon="7.3580504"><ele>750.6666666666667</ele><time>2026-03-29T10:47:46.591Z</time></trkpt><trkpt lat="44.4781811" lon="7.3579699"><ele>750.3333333333334</ele><time>2026-03-29T10:47:48.592Z</time></trkpt><trkpt lat="44.478202" lon="7.357864"><ele>750.0</ele><time>2026-03-29T10:47:51.592Z</time></trkpt><trkpt lat="44.4782174" lon="7.357764"><ele>749.6666666666666</ele><time>2026-03-29T10:47:54.591Z</time></trkpt><trkpt lat="44.4782263" lon="7.3576638"><ele>749.3333333333333</ele><time>2026-03-29T10:47:57.591Z</time></trkpt><trkpt lat="44.4782289" lon="7.3575557"><ele>749.0</ele><time>2026-03-29T10:48:00.592Z</time></trkpt><trkpt lat="44.4782311" lon="7.3574182"><ele>749.0</ele><time>2026-03-29T10:48:03.592Z</time></trkpt><trkpt lat="44.4782539" lon="7.3573315"><ele>749.0</ele><time>2026-03-29T10:48:05.592Z</time></trkpt><trkpt lat="44.4782711" lon="7.3572277"><ele>749.0</ele><time>2026-03-29T10:48:07.592Z</time></trkpt><trkpt lat="44.4782847" lon="7.3570959"><ele>749.0</ele><time>2026-03-29T10:48:09.59Z</time></trkpt><trkpt lat="44.4783092" lon="7.3569598"><ele>749.0</ele><time>2026-03-29T10:48:11.592Z</time></trkpt><trkpt lat="44.4783384" lon="7.3568176"><ele>749.0</ele><time>2026-03-29T10:48:13.592Z</time></trkpt><trkpt lat="44.4783551" lon="7.3566897"><ele>748.0</ele><time>2026-03-29T10:48:15.591Z</time></trkpt><trkpt lat="44.4783791" lon="7.3565741"><ele>747.0</ele><time>2026-03-29T10:48:17.591Z</time></trkpt><trkpt lat="44.4784004" lon="7.3564739"><ele>746.0</ele><time>2026-03-29T10:48:19.591Z</time></trkpt><trkpt lat="44.478424" lon="7.3563677"><ele>745.0</ele><time>2026-03-29T10:48:21.591Z</time></trkpt><trkpt lat="44.4784509" lon="7.3562671"><ele>744.0</ele><time>2026-03-29T10:48:24.591Z</time></trkpt><trkpt lat="44.4784742" lon="7.3561542"><ele>743.0</ele><time>2026-03-29T10:48:27.591Z</time></trkpt><trkpt lat="44.4785158" lon="7.3560778"><ele>743.0</ele><time>2026-03-29T10:48:29.591Z</time></trkpt><trkpt lat="44.4785532" lon="7.3560066"><ele>743.0</ele><time>2026-03-29T10:48:31.591Z</time></trkpt><trkpt lat="44.4785441" lon="7.3558861"><ele>743.0</ele><time>2026-03-29T10:48:34.592Z</time></trkpt><trkpt lat="44.4785293" lon="7.3557662"><ele>743.0</ele><time>2026-03-29T10:48:37.592Z</time></trkpt><trkpt lat="44.4785222" lon="7.3556782"><ele>743.0</ele><time>2026-03-29T10:48:39.591Z</time></trkpt><trkpt lat="44.4785114" lon="7.35556"><ele>743.0</ele><time>2026-03-29T10:48:42.591Z</time></trkpt><trkpt lat="44.4785008" lon="7.3554404"><ele>743.0</ele><time>2026-03-29T10:48:45.591Z</time></trkpt><trkpt lat="44.478497" lon="7.3553207"><ele>743.0</ele><time>2026-03-29T10:48:48.592Z</time></trkpt><trkpt lat="44.4784922" lon="7.3552214"><ele>743.0</ele><time>2026-03-29T10:48:51.592Z</time></trkpt><trkpt lat="44.4784933" lon="7.3551207"><ele>743.0</ele><time>2026-03-29T10:48:54.59Z</time></trkpt><trkpt lat="44.4785094" lon="7.3550308"><ele>743.0</ele><time>2026-03-29T10:48:57.591Z</time></trkpt><trkpt lat="44.4785196" lon="7.3549273"><ele>743.0</ele><time>2026-03-29T10:49:01.592Z</time></trkpt><trkpt lat="44.4785703" lon="7.354852"><ele>743.0</ele><time>2026-03-29T10:49:05.591Z</time></trkpt><trkpt lat="44.4786354" lon="7.3547896"><ele>743.0</ele><time>2026-03-29T10:49:09.592Z</time></trkpt><trkpt lat="44.4786838" lon="7.35473"><ele>743.0</ele><time>2026-03-29T10:49:12.591Z</time></trkpt><trkpt lat="44.4787315" lon="7.3546442"><ele>743.0</ele><time>2026-03-29T10:49:16.591Z</time></trkpt><trkpt lat="44.4788011" lon="7.3545714"><ele>743.0</ele><time>2026-03-29T10:49:20.591Z</time></trkpt><trkpt lat="44.4788783" lon="7.3545458"><ele>743.0</ele><time>2026-03-29T10:49:23.592Z</time></trkpt><trkpt lat="44.4789481" lon="7.3545375"><ele>743.0</ele><time>2026-03-29T10:49:26.591Z</time></trkpt><trkpt lat="44.4790211" lon="7.3544795"><ele>746.7142857142858</ele><time>2026-03-29T10:49:30.59Z</time></trkpt><trkpt lat="44.4790539" lon="7.354384"><ele>750.4285714285713</ele><time>2026-03-29T10:49:33.591Z</time></trkpt><trkpt lat="44.4790494" lon="7.3542923"><ele>754.1428571428571</ele><time>2026-03-29T10:49:36.591Z</time></trkpt><trkpt lat="44.4790459" lon="7.3542032"><ele>757.8571428571429</ele><time>2026-03-29T10:49:39.592Z</time></trkpt><trkpt lat="44.4790317" lon="7.3541102"><ele>761.5714285714287</ele><time>2026-03-29T10:49:42.592Z</time></trkpt><trkpt lat="44.4789982" lon="7.3540227"><ele>765.2857142857142</ele><time>2026-03-29T10:49:45.591Z</time></trkpt><trkpt lat="44.4789478" lon="7.353944"><ele>769.0</ele><time>2026-03-29T10:49:48.592Z</time></trkpt><trkpt lat="44.4788807" lon="7.3538979"><ele>768.0</ele><time>2026-03-29T10:49:51.591Z</time></trkpt><trkpt lat="44.4788201" lon="7.3538487"><ele>767.0</ele><time>2026-03-29T10:49:54.591Z</time></trkpt><trkpt lat="44.478766" lon="7.3537977"><ele>766.0</ele><time>2026-03-29T10:49:57.59Z</time></trkpt><trkpt lat="44.4787096" lon="7.353715"><ele>765.0</ele><time>2026-03-29T10:50:01.591Z</time></trkpt><trkpt lat="44.4786557" lon="7.3536159"><ele>764.0</ele><time>2026-03-29T10:50:05.592Z</time></trkpt><trkpt lat="44.4786065" lon="7.3535402"><ele>763.0</ele><time>2026-03-29T10:50:08.591Z</time></trkpt><trkpt lat="44.4785699" lon="7.353463"><ele>762.0</ele><time>2026-03-29T10:50:11.592Z</time></trkpt><trkpt lat="44.4785306" lon="7.3533908"><ele>762.0</ele><time>2026-03-29T10:50:14.592Z</time></trkpt><trkpt lat="44.478484" lon="7.3533051"><ele>762.0</ele><time>2026-03-29T10:50:17.591Z</time></trkpt><trkpt lat="44.4784336" lon="7.3532231"><ele>762.0</ele><time>2026-03-29T10:50:20.591Z</time></trkpt><trkpt lat="44.4783899" lon="7.3531386"><ele>762.0</ele><time>2026-03-29T10:50:23.592Z</time></trkpt><trkpt lat="44.4783453" lon="7.3530537"><ele>762.0</ele><time>2026-03-29T10:50:26.59Z</time></trkpt><trkpt lat="44.4782995" lon="7.3529887"><ele>762.0</ele><time>2026-03-29T10:50:31.591Z</time></trkpt><trkpt lat="44.4782375" lon="7.3529733"><ele>762.0</ele><time>2026-03-29T10:50:48.592Z</time></trkpt><trkpt lat="44.4781701" lon="7.3529418"><ele>762.0</ele><time>2026-03-29T10:50:54.591Z</time></trkpt><trkpt lat="44.4781105" lon="7.3528945"><ele>762.0</ele><time>2026-03-29T10:51:02.591Z</time></trkpt><trkpt lat="44.4780596" lon="7.3528424"><ele>762.0</ele><time>2026-03-29T10:51:10.592Z</time></trkpt><trkpt lat="44.4780096" lon="7.3527838"><ele>762.0</ele><time>2026-03-29T10:51:41.591Z</time></trkpt><trkpt lat="44.477965" lon="7.3527087"><ele>762.0</ele><time>2026-03-29T10:52:00.591Z</time></trkpt><trkpt lat="44.4779502" lon="7.3526209"><ele>762.0</ele><time>2026-03-29T10:52:11.591Z</time></trkpt><trkpt lat="44.4779129" lon="7.3525122"><ele>762.0</ele><time>2026-03-29T10:52:27.592Z</time></trkpt><trkpt lat="44.4778884" lon="7.3524273"><ele>762.0</ele><time>2026-03-29T10:52:36.591Z</time></trkpt><trkpt lat="44.4778677" lon="7.3523361"><ele>762.0</ele><time>2026-03-29T10:53:00.591Z</time></trkpt><trkpt lat="44.4778486" lon="7.3522288"><ele>762.0</ele><time>2026-03-29T10:53:04.592Z</time></trkpt><trkpt lat="44.4778361" lon="7.3521198"><ele>762.0</ele><time>2026-03-29T10:53:08.591Z</time></trkpt><trkpt lat="44.4778187" lon="7.352031"><ele>762.0</ele><time>2026-03-29T10:53:11.592Z</time></trkpt><trkpt lat="44.4777998" lon="7.3519173"><ele>762.0</ele><time>2026-03-29T10:53:15.591Z</time></trkpt><trkpt lat="44.4777694" lon="7.3518399"><ele>762.0</ele><time>2026-03-29T10:53:18.591Z</time></trkpt><trkpt lat="44.4777284" lon="7.3517698"><ele>764.3333333333334</ele><time>2026-03-29T10:53:21.591Z</time></trkpt><trkpt lat="44.4776679" lon="7.3516887"><ele>766.6666666666667</ele><time>2026-03-29T10:53:25.592Z</time></trkpt><trkpt lat="44.4776227" lon="7.3516181"><ele>769.0</ele><time>2026-03-29T10:53:28.592Z</time></trkpt><trkpt lat="44.4775975" lon="7.3515089"><ele>771.3333333333334</ele><time>2026-03-29T10:53:32.591Z</time></trkpt><trkpt lat="44.4775306" lon="7.351418"><ele>773.6666666666667</ele><time>2026-03-29T10:53:36.591Z</time></trkpt><trkpt lat="44.4774786" lon="7.3513492"><ele>776.0</ele><time>2026-03-29T10:53:38.591Z</time></trkpt><trkpt lat="44.4774224" lon="7.3512755"><ele>776.8333333333334</ele><time>2026-03-29T10:53:41.591Z</time></trkpt><trkpt lat="44.4773735" lon="7.3511962"><ele>777.6666666666667</ele><time>2026-03-29T10:53:44.591Z</time></trkpt><trkpt lat="44.4773053" lon="7.3511216"><ele>778.5</ele><time>2026-03-29T10:53:48.591Z</time></trkpt><trkpt lat="44.4772372" lon="7.3510827"><ele>779.3333333333333</ele><time>2026-03-29T10:53:51.591Z</time></trkpt><trkpt lat="44.4772051" lon="7.3509844"><ele>780.1666666666666</ele><time>2026-03-29T10:53:54.592Z</time></trkpt><trkpt lat="44.4771819" lon="7.350867"><ele>781.0</ele><time>2026-03-29T10:53:57.591Z</time></trkpt><trkpt lat="44.4771688" lon="7.3507761"><ele>780.9999999999999</ele><time>2026-03-29T10:53:59.591Z</time></trkpt><trkpt lat="44.4771642" lon="7.3506745"><ele>781.0</ele><time>2026-03-29T10:54:01.591Z</time></trkpt><trkpt lat="44.4771676" lon="7.3505731"><ele>781.0</ele><time>2026-03-29T10:54:03.592Z</time></trkpt><trkpt lat="44.4771904" lon="7.3504846"><ele>781.0</ele><time>2026-03-29T10:54:05.591Z</time></trkpt><trkpt lat="44.4772372" lon="7.3504018"><ele>780.9999999999999</ele><time>2026-03-29T10:54:07.592Z</time></trkpt><trkpt lat="44.4773178" lon="7.3503154"><ele>781.0</ele><time>2026-03-29T10:54:09.592Z</time></trkpt><trkpt lat="44.4774027" lon="7.3502416"><ele>778.6666666666666</ele><time>2026-03-29T10:54:11.591Z</time></trkpt><trkpt lat="44.4774852" lon="7.3501933"><ele>776.3333333333333</ele><time>2026-03-29T10:54:13.592Z</time></trkpt><trkpt lat="44.4775728" lon="7.3501675"><ele>774.0</ele><time>2026-03-29T10:54:15.591Z</time></trkpt><trkpt lat="44.4776355" lon="7.35011"><ele>771.6666666666666</ele><time>2026-03-29T10:54:17.591Z</time></trkpt><trkpt lat="44.4776942" lon="7.3500335"><ele>769.3333333333333</ele><time>2026-03-29T10:54:19.591Z</time></trkpt><trkpt lat="44.4777587" lon="7.3499389"><ele>767.0</ele><time>2026-03-29T10:54:21.592Z</time></trkpt><trkpt lat="44.47785" lon="7.349825"><ele>766.3333333333333</ele><time>2026-03-29T10:54:23.591Z</time></trkpt><trkpt lat="44.4779392" lon="7.3497744"><ele>765.6666666666666</ele><time>2026-03-29T10:54:25.591Z</time></trkpt><trkpt lat="44.4780605" lon="7.3497043"><ele>765.0</ele><time>2026-03-29T10:54:27.592Z</time></trkpt><trkpt lat="44.4781271" lon="7.3496712"><ele>764.3333333333334</ele><time>2026-03-29T10:54:28.591Z</time></trkpt><trkpt lat="44.4781932" lon="7.3496434"><ele>763.6666666666667</ele><time>2026-03-29T10:54:29.591Z</time></trkpt><trkpt lat="44.4782689" lon="7.3496171"><ele>763.0</ele><time>2026-03-29T10:54:30.592Z</time></trkpt><trkpt lat="44.4783281" lon="7.3495817"><ele>763.0</ele><time>2026-03-29T10:54:31.592Z</time></trkpt><trkpt lat="44.4784227" lon="7.3495479"><ele>763.0</ele><time>2026-03-29T10:54:33.591Z</time></trkpt><trkpt lat="44.4784972" lon="7.3495337"><ele>763.0</ele><time>2026-03-29T10:54:35.592Z</time></trkpt><trkpt lat="44.4785441" lon="7.3494478"><ele>763.0</ele><time>2026-03-29T10:54:38.591Z</time></trkpt><trkpt lat="44.4785281" lon="7.3493485"><ele>763.0</ele><time>2026-03-29T10:54:40.591Z</time></trkpt><trkpt lat="44.4784948" lon="7.349252"><ele>763.0</ele><time>2026-03-29T10:54:42.591Z</time></trkpt><trkpt lat="44.4784532" lon="7.3491459"><ele>763.0</ele><time>2026-03-29T10:54:44.592Z</time></trkpt><trkpt lat="44.4784049" lon="7.3490345"><ele>763.0</ele><time>2026-03-29T10:54:46.592Z</time></trkpt><trkpt lat="44.4783477" lon="7.3489199"><ele>763.0</ele><time>2026-03-29T10:54:48.591Z</time></trkpt><trkpt lat="44.4782956" lon="7.3487924"><ele>763.0</ele><time>2026-03-29T10:54:50.591Z</time></trkpt><trkpt lat="44.4782562" lon="7.3486573"><ele>763.0</ele><time>2026-03-29T10:54:52.592Z</time></trkpt><trkpt lat="44.4782232" lon="7.3485257"><ele>762.8</ele><time>2026-03-29T10:54:54.592Z</time></trkpt><trkpt lat="44.4781876" lon="7.3483847"><ele>762.5999999999999</ele><time>2026-03-29T10:54:56.591Z</time></trkpt><trkpt lat="44.4781615" lon="7.348242"><ele>762.4000000000001</ele><time>2026-03-29T10:54:58.592Z</time></trkpt><trkpt lat="44.4781469" lon="7.3481045"><ele>762.2</ele><time>2026-03-29T10:55:00.592Z</time></trkpt><trkpt lat="44.4781526" lon="7.3479658"><ele>762.0</ele><time>2026-03-29T10:55:02.591Z</time></trkpt><trkpt lat="44.4782108" lon="7.3478339"><ele>761.2</ele><time>2026-03-29T10:55:04.592Z</time></trkpt><trkpt lat="44.4782823" lon="7.3477102"><ele>760.4000000000001</ele><time>2026-03-29T10:55:06.592Z</time></trkpt><trkpt lat="44.4783562" lon="7.3475844"><ele>759.5999999999999</ele><time>2026-03-29T10:55:08.591Z</time></trkpt><trkpt lat="44.4784141" lon="7.3474657"><ele>758.8</ele><time>2026-03-29T10:55:10.592Z</time></trkpt><trkpt lat="44.4784727" lon="7.3473485"><ele>758.0</ele><time>2026-03-29T10:55:12.591Z</time></trkpt><trkpt lat="44.4785454" lon="7.3472507"><ele>756.1666666666666</ele><time>2026-03-29T10:55:14.591Z</time></trkpt><trkpt lat="44.4786521" lon="7.347179"><ele>754.3333333333333</ele><time>2026-03-29T10:55:16.591Z</time></trkpt><trkpt lat="44.4787185" lon="7.3471514"><ele>752.5</ele><time>2026-03-29T10:55:17.592Z</time></trkpt><trkpt lat="44.4787859" lon="7.3471158"><ele>750.6666666666666</ele><time>2026-03-29T10:55:18.591Z</time></trkpt><trkpt lat="44.4788494" lon="7.3470709"><ele>748.8333333333334</ele><time>2026-03-29T10:55:19.592Z</time></trkpt><trkpt lat="44.4789132" lon="7.347027"><ele>747.0</ele><time>2026-03-29T10:55:20.592Z</time></trkpt><trkpt lat="44.4789745" lon="7.3469794"><ele>747.0</ele><time>2026-03-29T10:55:21.591Z</time></trkpt><trkpt lat="44.4790341" lon="7.3469307"><ele>747.0</ele><time>2026-03-29T10:55:22.591Z</time></trkpt><trkpt lat="44.4790928" lon="7.3468901"><ele>747.0</ele><time>2026-03-29T10:55:23.591Z</time></trkpt><trkpt lat="44.4792044" lon="7.3468505"><ele>747.0</ele><time>2026-03-29T10:55:25.591Z</time></trkpt><trkpt lat="44.4793283" lon="7.3468895"><ele>747.0</ele><time>2026-03-29T10:55:27.592Z</time></trkpt><trkpt lat="44.479402" lon="7.3469028"><ele>747.0</ele><time>2026-03-29T10:55:28.591Z</time></trkpt><trkpt lat="44.4794737" lon="7.3469091"><ele>747.0</ele><time>2026-03-29T10:55:29.592Z</time></trkpt><trkpt lat="44.4795402" lon="7.3468879"><ele>747.0</ele><time>2026-03-29T10:55:30.591Z</time></trkpt><trkpt lat="44.4796428" lon="7.3468888"><ele>747.0</ele><time>2026-03-29T10:55:32.591Z</time></trkpt><trkpt lat="44.4797423" lon="7.3469712"><ele>747.0</ele><time>2026-03-29T10:55:34.591Z</time></trkpt><trkpt lat="44.4798306" lon="7.3470469"><ele>747.2857142857142</ele><time>2026-03-29T10:55:36.592Z</time></trkpt><trkpt lat="44.4799169" lon="7.3470997"><ele>747.5714285714286</ele><time>2026-03-29T10:55:38.591Z</time></trkpt><trkpt lat="44.479978" lon="7.3471243"><ele>747.8571428571429</ele><time>2026-03-29T10:55:40.591Z</time></trkpt><trkpt lat="44.4800476" lon="7.3471136"><ele>748.1428571428571</ele><time>2026-03-29T10:55:42.591Z</time></trkpt><trkpt lat="44.4801014" lon="7.347061"><ele>748.4285714285714</ele><time>2026-03-29T10:55:44.591Z</time></trkpt><trkpt lat="44.4801025" lon="7.3469718"><ele>748.7142857142857</ele><time>2026-03-29T10:55:46.592Z</time></trkpt><trkpt lat="44.4800792" lon="7.3468616"><ele>749.0</ele><time>2026-03-29T10:55:48.591Z</time></trkpt><trkpt lat="44.4800287" lon="7.3467373"><ele>749.0</ele><time>2026-03-29T10:55:50.591Z</time></trkpt><trkpt lat="44.4799599" lon="7.3466292"><ele>749.0</ele><time>2026-03-29T10:55:52.592Z</time></trkpt><trkpt lat="44.4798947" lon="7.346512"><ele>749.0</ele><time>2026-03-29T10:55:54.591Z</time></trkpt><trkpt lat="44.4798523" lon="7.3463747"><ele>749.0</ele><time>2026-03-29T10:55:56.591Z</time></trkpt><trkpt lat="44.4798275" lon="7.346237"><ele>749.0</ele><time>2026-03-29T10:55:58.592Z</time></trkpt><trkpt lat="44.4797985" lon="7.3460948"><ele>748.4000000000001</ele><time>2026-03-29T10:56:00.591Z</time></trkpt><trkpt lat="44.4797912" lon="7.3459504"><ele>747.8</ele><time>2026-03-29T10:56:02.592Z</time></trkpt><trkpt lat="44.4797831" lon="7.3457885"><ele>747.2</ele><time>2026-03-29T10:56:04.591Z</time></trkpt><trkpt lat="44.479757" lon="7.3456352"><ele>746.5999999999999</ele><time>2026-03-29T10:56:06.592Z</time></trkpt><trkpt lat="44.4797347" lon="7.3455088"><ele>746.0</ele><time>2026-03-29T10:56:08.592Z</time></trkpt><trkpt lat="44.4797226" lon="7.3454146"><ele>745.8333333333333</ele><time>2026-03-29T10:56:10.591Z</time></trkpt><trkpt lat="44.4797142" lon="7.3452939"><ele>745.6666666666666</ele><time>2026-03-29T10:56:13.59Z</time></trkpt><trkpt lat="44.4797227" lon="7.3451841"><ele>745.5</ele><time>2026-03-29T10:56:16.591Z</time></trkpt><trkpt lat="44.4797383" lon="7.345049"><ele>745.3333333333334</ele><time>2026-03-29T10:56:19.591Z</time></trkpt><trkpt lat="44.4797742" lon="7.3448976"><ele>745.1666666666667</ele><time>2026-03-29T10:56:21.591Z</time></trkpt><trkpt lat="44.4798035" lon="7.3448147"><ele>745.0</ele><time>2026-03-29T10:56:22.591Z</time></trkpt><trkpt lat="44.4798412" lon="7.3447309"><ele>744.0</ele><time>2026-03-29T10:56:23.592Z</time></trkpt><trkpt lat="44.4798753" lon="7.3446382"><ele>743.0</ele><time>2026-03-29T10:56:24.592Z</time></trkpt><trkpt lat="44.479897" lon="7.344535"><ele>742.0</ele><time>2026-03-29T10:56:25.591Z</time></trkpt><trkpt lat="44.4799017" lon="7.3444286"><ele>741.0</ele><time>2026-03-29T10:56:26.591Z</time></trkpt><trkpt lat="44.4798971" lon="7.3443148"><ele>740.0</ele><time>2026-03-29T10:56:27.592Z</time></trkpt><trkpt lat="44.4798889" lon="7.3441981"><ele>739.0</ele><time>2026-03-29T10:56:28.591Z</time></trkpt><trkpt lat="44.479883" lon="7.34408"><ele>739.0</ele><time>2026-03-29T10:56:29.591Z</time></trkpt><trkpt lat="44.4798806" lon="7.3439608"><ele>739.0</ele><time>2026-03-29T10:56:30.592Z</time></trkpt><trkpt lat="44.479883" lon="7.3438424"><ele>739.0</ele><time>2026-03-29T10:56:31.592Z</time></trkpt><trkpt lat="44.4798911" lon="7.3437354"><ele>739.0</ele><time>2026-03-29T10:56:32.591Z</time></trkpt><trkpt lat="44.4799083" lon="7.3436296"><ele>739.0</ele><time>2026-03-29T10:56:33.591Z</time></trkpt><trkpt lat="44.4799337" lon="7.3435314"><ele>739.0</ele><time>2026-03-29T10:56:34.591Z</time></trkpt><trkpt lat="44.4799692" lon="7.3434468"><ele>737.3333333333334</ele><time>2026-03-29T10:56:35.591Z</time></trkpt><trkpt lat="44.480021" lon="7.3433731"><ele>735.6666666666667</ele><time>2026-03-29T10:56:36.591Z</time></trkpt><trkpt lat="44.4800883" lon="7.3433157"><ele>734.0</ele><time>2026-03-29T10:56:37.591Z</time></trkpt><trkpt lat="44.4801643" lon="7.3432741"><ele>732.3333333333334</ele><time>2026-03-29T10:56:38.591Z</time></trkpt><trkpt lat="44.4802392" lon="7.3432344"><ele>730.6666666666666</ele><time>2026-03-29T10:56:39.591Z</time></trkpt><trkpt lat="44.4803042" lon="7.3432019"><ele>729.0</ele><time>2026-03-29T10:56:40.591Z</time></trkpt><trkpt lat="44.4804054" lon="7.3431325"><ele>728.8333333333334</ele><time>2026-03-29T10:56:42.592Z</time></trkpt><trkpt lat="44.4804926" lon="7.3430078"><ele>728.6666666666666</ele><time>2026-03-29T10:56:44.591Z</time></trkpt><trkpt lat="44.4805159" lon="7.342849"><ele>728.5</ele><time>2026-03-29T10:56:46.591Z</time></trkpt><trkpt lat="44.480498" lon="7.3427627"><ele>728.3333333333333</ele><time>2026-03-29T10:56:47.592Z</time></trkpt><trkpt lat="44.4804701" lon="7.3426743"><ele>728.1666666666666</ele><time>2026-03-29T10:56:48.592Z</time></trkpt><trkpt lat="44.4804354" lon="7.3425837"><ele>728.0</ele><time>2026-03-29T10:56:49.591Z</time></trkpt><trkpt lat="44.480401" lon="7.3425049"><ele>726.0</ele><time>2026-03-29T10:56:50.591Z</time></trkpt><trkpt lat="44.4803426" lon="7.3423566"><ele>724.0</ele><time>2026-03-29T10:56:52.591Z</time></trkpt><trkpt lat="44.4803154" lon="7.3422744"><ele>722.0</ele><time>2026-03-29T10:56:53.591Z</time></trkpt><trkpt lat="44.4802981" lon="7.3421233"><ele>720.0</ele><time>2026-03-29T10:56:55.592Z</time></trkpt><trkpt lat="44.4803102" lon="7.3419639"><ele>718.0</ele><time>2026-03-29T10:56:57.591Z</time></trkpt><trkpt lat="44.4803703" lon="7.3418036"><ele>717.6666666666667</ele><time>2026-03-29T10:56:59.591Z</time></trkpt><trkpt lat="44.4804368" lon="7.34177"><ele>717.3333333333334</ele><time>2026-03-29T10:57:00.591Z</time></trkpt><trkpt lat="44.4804973" lon="7.3416362"><ele>717.0</ele><time>2026-03-29T10:57:02.592Z</time></trkpt><trkpt lat="44.4804816" lon="7.3415043"><ele>716.6666666666666</ele><time>2026-03-29T10:57:04.591Z</time></trkpt><trkpt lat="44.4804149" lon="7.3414162"><ele>716.3333333333333</ele><time>2026-03-29T10:57:06.59Z</time></trkpt><trkpt lat="44.4803453" lon="7.3413924"><ele>716.0</ele><time>2026-03-29T10:57:08.591Z</time></trkpt><trkpt lat="44.4802721" lon="7.3413669"><ele>716.0</ele><time>2026-03-29T10:57:10.591Z</time></trkpt><trkpt lat="44.4802084" lon="7.3413427"><ele>716.0</ele><time>2026-03-29T10:57:12.591Z</time></trkpt><trkpt lat="44.4801233" lon="7.3412905"><ele>716.0</ele><time>2026-03-29T10:57:15.591Z</time></trkpt><trkpt lat="44.480043" lon="7.3412279"><ele>716.0</ele><time>2026-03-29T10:57:18.591Z</time></trkpt><trkpt lat="44.4799701" lon="7.3411631"><ele>716.0</ele><time>2026-03-29T10:57:21.592Z</time></trkpt><trkpt lat="44.4798888" lon="7.3410972"><ele>716.0</ele><time>2026-03-29T10:57:24.592Z</time></trkpt><trkpt lat="44.4798365" lon="7.3410416"><ele>716.0</ele><time>2026-03-29T10:57:26.592Z</time></trkpt><trkpt lat="44.4797817" lon="7.3409914"><ele>716.0</ele><time>2026-03-29T10:57:28.591Z</time></trkpt><trkpt lat="44.4796928" lon="7.3409538"><ele>716.0</ele><time>2026-03-29T10:57:31.591Z</time></trkpt><trkpt lat="44.4796105" lon="7.34096"><ele>716.0</ele><time>2026-03-29T10:57:33.592Z</time></trkpt><trkpt lat="44.4795056" lon="7.3409883"><ele>716.0</ele><time>2026-03-29T10:57:35.591Z</time></trkpt><trkpt lat="44.4793875" lon="7.341027"><ele>714.5</ele><time>2026-03-29T10:57:37.591Z</time></trkpt><trkpt lat="44.4793224" lon="7.3410502"><ele>713.0</ele><time>2026-03-29T10:57:38.591Z</time></trkpt><trkpt lat="44.4792031" lon="7.3410847"><ele>711.5</ele><time>2026-03-29T10:57:40.591Z</time></trkpt><trkpt lat="44.4790892" lon="7.3411186"><ele>710.0</ele><time>2026-03-29T10:57:42.592Z</time></trkpt><trkpt lat="44.479025" lon="7.341134"><ele>708.5</ele><time>2026-03-29T10:57:43.592Z</time></trkpt><trkpt lat="44.4789569" lon="7.3411471"><ele>707.0</ele><time>2026-03-29T10:57:44.591Z</time></trkpt><trkpt lat="44.4788826" lon="7.3411637"><ele>707.0</ele><time>2026-03-29T10:57:45.592Z</time></trkpt><trkpt lat="44.4788067" lon="7.3411886"><ele>707.0</ele><time>2026-03-29T10:57:46.591Z</time></trkpt><trkpt lat="44.4787374" lon="7.3412109"><ele>707.0</ele><time>2026-03-29T10:57:47.592Z</time></trkpt><trkpt lat="44.4786711" lon="7.3412272"><ele>707.0</ele><time>2026-03-29T10:57:48.592Z</time></trkpt><trkpt lat="44.4786034" lon="7.3412517"><ele>707.0</ele><time>2026-03-29T10:57:49.592Z</time></trkpt><trkpt lat="44.4785387" lon="7.3412808"><ele>707.0</ele><time>2026-03-29T10:57:50.591Z</time></trkpt><trkpt lat="44.4784172" lon="7.3413377"><ele>706.0</ele><time>2026-03-29T10:57:52.592Z</time></trkpt><trkpt lat="44.4783543" lon="7.3413612"><ele>705.0</ele><time>2026-03-29T10:57:53.592Z</time></trkpt><trkpt lat="44.4782504" lon="7.3414101"><ele>704.0</ele><time>2026-03-29T10:57:55.591Z</time></trkpt><trkpt lat="44.4781584" lon="7.3414611"><ele>703.0</ele><time>2026-03-29T10:57:57.592Z</time></trkpt><trkpt lat="44.4780856" lon="7.3415076"><ele>702.0</ele><time>2026-03-29T10:57:59.592Z</time></trkpt><trkpt lat="44.4780064" lon="7.3415628"><ele>701.0</ele><time>2026-03-29T10:58:02.592Z</time></trkpt><trkpt lat="44.4779424" lon="7.3416325"><ele>699.8333333333333</ele><time>2026-03-29T10:58:05.592Z</time></trkpt><trkpt lat="44.4778921" lon="7.3417124"><ele>698.6666666666666</ele><time>2026-03-29T10:58:07.592Z</time></trkpt><trkpt lat="44.4778335" lon="7.3418066"><ele>697.5</ele><time>2026-03-29T10:58:09.59Z</time></trkpt><trkpt lat="44.4777727" lon="7.3418996"><ele>696.3333333333334</ele><time>2026-03-29T10:58:11.591Z</time></trkpt><trkpt lat="44.4776974" lon="7.3419652"><ele>695.1666666666667</ele><time>2026-03-29T10:58:13.592Z</time></trkpt><trkpt lat="44.4776126" lon="7.3420026"><ele>694.0</ele><time>2026-03-29T10:58:15.592Z</time></trkpt><trkpt lat="44.4775283" lon="7.3420456"><ele>694.0</ele><time>2026-03-29T10:58:17.591Z</time></trkpt><trkpt lat="44.4774236" lon="7.3420777"><ele>694.0</ele><time>2026-03-29T10:58:19.591Z</time></trkpt><trkpt lat="44.4773201" lon="7.3421186"><ele>694.0</ele><time>2026-03-29T10:58:21.59Z</time></trkpt><trkpt lat="44.4772037" lon="7.3421577"><ele>694.0</ele><time>2026-03-29T10:58:23.592Z</time></trkpt><trkpt lat="44.4771398" lon="7.3421591"><ele>694.0</ele><time>2026-03-29T10:58:24.59Z</time></trkpt><trkpt lat="44.4770754" lon="7.3421519"><ele>692.8000000000001</ele><time>2026-03-29T10:58:25.591Z</time></trkpt><trkpt lat="44.4770093" lon="7.3421296"><ele>691.6</ele><time>2026-03-29T10:58:26.592Z</time></trkpt><trkpt lat="44.4769482" lon="7.342094"><ele>690.4</ele><time>2026-03-29T10:58:27.591Z</time></trkpt><trkpt lat="44.4768334" lon="7.3420398"><ele>689.2</ele><time>2026-03-29T10:58:29.592Z</time></trkpt><trkpt lat="44.476733" lon="7.3419978"><ele>688.0</ele><time>2026-03-29T10:58:31.592Z</time></trkpt><trkpt lat="44.4766403" lon="7.3419564"><ele>688.0</ele><time>2026-03-29T10:58:33.591Z</time></trkpt><trkpt lat="44.476545" lon="7.341907"><ele>688.0</ele><time>2026-03-29T10:58:35.591Z</time></trkpt><trkpt lat="44.4764759" lon="7.341855"><ele>688.0</ele><time>2026-03-29T10:58:37.59Z</time></trkpt><trkpt lat="44.4764122" lon="7.3417984"><ele>688.0</ele><time>2026-03-29T10:58:39.592Z</time></trkpt><trkpt lat="44.4763508" lon="7.3417456"><ele>688.0</ele><time>2026-03-29T10:58:41.591Z</time></trkpt><trkpt lat="44.4762895" lon="7.3416813"><ele>688.0</ele><time>2026-03-29T10:58:43.592Z</time></trkpt><trkpt lat="44.4762577" lon="7.3415819"><ele>688.0</ele><time>2026-03-29T10:58:45.591Z</time></trkpt><trkpt lat="44.4762792" lon="7.3414799"><ele>688.0</ele><time>2026-03-29T10:58:47.591Z</time></trkpt><trkpt lat="44.4763254" lon="7.3414165"><ele>688.0</ele><time>2026-03-29T10:58:49.591Z</time></trkpt><trkpt lat="44.4763739" lon="7.341349"><ele>688.0</ele><time>2026-03-29T10:58:51.591Z</time></trkpt><trkpt lat="44.4764401" lon="7.3412652"><ele>688.0</ele><time>2026-03-29T10:58:54.592Z</time></trkpt><trkpt lat="44.4764934" lon="7.3411922"><ele>688.0</ele><time>2026-03-29T10:58:57.592Z</time></trkpt><trkpt lat="44.4765357" lon="7.3411009"><ele>688.1428571428572</ele><time>2026-03-29T10:59:00.592Z</time></trkpt><trkpt lat="44.4765635" lon="7.3410204"><ele>688.2857142857143</ele><time>2026-03-29T10:59:02.591Z</time></trkpt><trkpt lat="44.4765678" lon="7.3409132"><ele>688.4285714285714</ele><time>2026-03-29T10:59:05.591Z</time></trkpt><trkpt lat="44.4765407" lon="7.3408122"><ele>688.5714285714287</ele><time>2026-03-29T10:59:09.592Z</time></trkpt><trkpt lat="44.4765151" lon="7.340729"><ele>688.7142857142858</ele><time>2026-03-29T10:59:13.592Z</time></trkpt><trkpt lat="44.4764644" lon="7.3406606"><ele>688.8571428571429</ele><time>2026-03-29T10:59:17.592Z</time></trkpt><trkpt lat="44.4764325" lon="7.3405666"><ele>689.0</ele><time>2026-03-29T10:59:21.591Z</time></trkpt><trkpt lat="44.4763948" lon="7.3404613"><ele>689.0</ele><time>2026-03-29T10:59:25.591Z</time></trkpt><trkpt lat="44.4763603" lon="7.3403695"><ele>689.0</ele><time>2026-03-29T10:59:28.591Z</time></trkpt><trkpt lat="44.4763221" lon="7.3402576"><ele>689.0</ele><time>2026-03-29T10:59:31.591Z</time></trkpt><trkpt lat="44.4762843" lon="7.3401726"><ele>689.0</ele><time>2026-03-29T10:59:33.591Z</time></trkpt><trkpt lat="44.4762327" lon="7.340092"><ele>689.0</ele><time>2026-03-29T10:59:35.591Z</time></trkpt><trkpt lat="44.47616" lon="7.340037"><ele>689.0</ele><time>2026-03-29T10:59:37.592Z</time></trkpt><trkpt lat="44.4760784" lon="7.3400145"><ele>688.0</ele><time>2026-03-29T10:59:39.591Z</time></trkpt><trkpt lat="44.4759942" lon="7.3399998"><ele>687.0</ele><time>2026-03-29T10:59:41.592Z</time></trkpt><trkpt lat="44.4759154" lon="7.339981"><ele>686.0</ele><time>2026-03-29T10:59:43.592Z</time></trkpt><trkpt lat="44.4758415" lon="7.3399292"><ele>685.0</ele><time>2026-03-29T10:59:46.591Z</time></trkpt><trkpt lat="44.4758531" lon="7.3398242"><ele>684.0</ele><time>2026-03-29T10:59:49.591Z</time></trkpt><trkpt lat="44.475909" lon="7.3397524"><ele>683.0</ele><time>2026-03-29T10:59:51.59Z</time></trkpt><trkpt lat="44.4759705" lon="7.3396832"><ele>683.0</ele><time>2026-03-29T10:59:53.591Z</time></trkpt><trkpt lat="44.4760311" lon="7.3396127"><ele>683.0</ele><time>2026-03-29T10:59:55.591Z</time></trkpt><trkpt lat="44.4760902" lon="7.3395433"><ele>683.0</ele><time>2026-03-29T10:59:57.591Z</time></trkpt><trkpt lat="44.4761494" lon="7.3394713"><ele>683.0</ele><time>2026-03-29T10:59:59.591Z</time></trkpt><trkpt lat="44.4762086" lon="7.3394007"><ele>683.0</ele><time>2026-03-29T11:00:01.591Z</time></trkpt><trkpt lat="44.4762646" lon="7.3393293"><ele>683.0</ele><time>2026-03-29T11:00:03.591Z</time></trkpt><trkpt lat="44.4763208" lon="7.3392614"><ele>683.8571428571429</ele><time>2026-03-29T11:00:05.591Z</time></trkpt><trkpt lat="44.4763791" lon="7.3391958"><ele>684.7142857142857</ele><time>2026-03-29T11:00:07.592Z</time></trkpt><trkpt lat="44.4764384" lon="7.3391303"><ele>685.5714285714286</ele><time>2026-03-29T11:00:09.592Z</time></trkpt><trkpt lat="44.4764958" lon="7.3390615"><ele>686.4285714285714</ele><time>2026-03-29T11:00:11.591Z</time></trkpt><trkpt lat="44.4765532" lon="7.3389949"><ele>687.2857142857143</ele><time>2026-03-29T11:00:13.592Z</time></trkpt><trkpt lat="44.4766106" lon="7.3389269"><ele>688.1428571428571</ele><time>2026-03-29T11:00:15.591Z</time></trkpt><trkpt lat="44.4766677" lon="7.3388619"><ele>689.0</ele><time>2026-03-29T11:00:17.591Z</time></trkpt><trkpt lat="44.4767174" lon="7.3388068"><ele>689.6666666666666</ele><time>2026-03-29T11:00:19.592Z</time></trkpt><trkpt lat="44.476782" lon="7.3387383"><ele>690.3333333333333</ele><time>2026-03-29T11:00:23.592Z</time></trkpt><trkpt lat="44.4768241" lon="7.3386705"><ele>691.0</ele><time>2026-03-29T11:00:26.591Z</time></trkpt><trkpt lat="44.476869" lon="7.338558"><ele>691.6666666666666</ele><time>2026-03-29T11:00:29.592Z</time></trkpt><trkpt lat="44.4769103" lon="7.3384537"><ele>692.3333333333334</ele><time>2026-03-29T11:00:32.591Z</time></trkpt><trkpt lat="44.4769153" lon="7.3383295"><ele>693.0</ele><time>2026-03-29T11:00:35.592Z</time></trkpt><trkpt lat="44.4769483" lon="7.338212"><ele>693.0</ele><time>2026-03-29T11:00:38.592Z</time></trkpt><trkpt lat="44.4770017" lon="7.3381152"><ele>693.0</ele><time>2026-03-29T11:00:41.591Z</time></trkpt><trkpt lat="44.4770493" lon="7.3380266"><ele>693.0</ele><time>2026-03-29T11:00:44.592Z</time></trkpt><trkpt lat="44.4770891" lon="7.3379384"><ele>693.0</ele><time>2026-03-29T11:00:47.591Z</time></trkpt><trkpt lat="44.4771324" lon="7.3378485"><ele>693.0</ele><time>2026-03-29T11:00:50.591Z</time></trkpt><trkpt lat="44.4771909" lon="7.3377632"><ele>693.0</ele><time>2026-03-29T11:00:53.592Z</time></trkpt><trkpt lat="44.4772597" lon="7.3376869"><ele>694.1666666666666</ele><time>2026-03-29T11:00:56.591Z</time></trkpt><trkpt lat="44.4773218" lon="7.3376041"><ele>695.3333333333334</ele><time>2026-03-29T11:00:59.592Z</time></trkpt><trkpt lat="44.4773879" lon="7.3375347"><ele>696.5</ele><time>2026-03-29T11:01:02.591Z</time></trkpt><trkpt lat="44.477446" lon="7.3374542"><ele>697.6666666666667</ele><time>2026-03-29T11:01:05.592Z</time></trkpt><trkpt lat="44.4775005" lon="7.3373662"><ele>698.8333333333334</ele><time>2026-03-29T11:01:08.59Z</time></trkpt><trkpt lat="44.4775505" lon="7.3372783"><ele>700.0</ele><time>2026-03-29T11:01:11.592Z</time></trkpt><trkpt lat="44.4775959" lon="7.3371864"><ele>700.4285714285714</ele><time>2026-03-29T11:01:14.591Z</time></trkpt><trkpt lat="44.4776417" lon="7.3371014"><ele>700.8571428571429</ele><time>2026-03-29T11:01:17.591Z</time></trkpt><trkpt lat="44.4776678" lon="7.3370042"><ele>701.2857142857142</ele><time>2026-03-29T11:01:20.591Z</time></trkpt><trkpt lat="44.4777158" lon="7.3369252"><ele>701.7142857142858</ele><time>2026-03-29T11:01:23.591Z</time></trkpt><trkpt lat="44.4777484" lon="7.3368397"><ele>702.1428571428571</ele><time>2026-03-29T11:01:26.592Z</time></trkpt><trkpt lat="44.4777813" lon="7.3367604"><ele>702.5714285714286</ele><time>2026-03-29T11:01:29.592Z</time></trkpt><trkpt lat="44.4778079" lon="7.3366735"><ele>703.0</ele><time>2026-03-29T11:01:32.591Z</time></trkpt><trkpt lat="44.4778199" lon="7.3365738"><ele>703.0</ele><time>2026-03-29T11:01:35.591Z</time></trkpt><trkpt lat="44.4778397" lon="7.3364732"><ele>703.0</ele><time>2026-03-29T11:01:38.592Z</time></trkpt><trkpt lat="44.4778555" lon="7.3363729"><ele>703.0</ele><time>2026-03-29T11:01:41.591Z</time></trkpt><trkpt lat="44.4778659" lon="7.3362771"><ele>703.0</ele><time>2026-03-29T11:01:44.592Z</time></trkpt><trkpt lat="44.4778628" lon="7.3361753"><ele>703.0</ele><time>2026-03-29T11:01:47.592Z</time></trkpt><trkpt lat="44.4778583" lon="7.336079"><ele>703.0</ele><time>2026-03-29T11:01:50.591Z</time></trkpt><trkpt lat="44.4778496" lon="7.3359735"><ele>703.0</ele><time>2026-03-29T11:01:53.592Z</time></trkpt><trkpt lat="44.4778797" lon="7.3358803"><ele>704.1666666666667</ele><time>2026-03-29T11:01:56.591Z</time></trkpt><trkpt lat="44.4779427" lon="7.3358129"><ele>705.3333333333334</ele><time>2026-03-29T11:01:59.592Z</time></trkpt><trkpt lat="44.4780188" lon="7.3357776"><ele>706.5</ele><time>2026-03-29T11:02:02.591Z</time></trkpt><trkpt lat="44.4781033" lon="7.3357407"><ele>707.6666666666666</ele><time>2026-03-29T11:02:05.591Z</time></trkpt><trkpt lat="44.4781822" lon="7.335694"><ele>708.8333333333333</ele><time>2026-03-29T11:02:08.592Z</time></trkpt><trkpt lat="44.4782354" lon="7.3356208"><ele>710.0</ele><time>2026-03-29T11:02:11.592Z</time></trkpt><trkpt lat="44.4782851" lon="7.3355238"><ele>710.7142857142857</ele><time>2026-03-29T11:02:14.591Z</time></trkpt><trkpt lat="44.478335" lon="7.3354368"><ele>711.4285714285714</ele><time>2026-03-29T11:02:17.591Z</time></trkpt><trkpt lat="44.4783766" lon="7.3353422"><ele>712.1428571428571</ele><time>2026-03-29T11:02:20.592Z</time></trkpt><trkpt lat="44.4784067" lon="7.3352494"><ele>712.8571428571429</ele><time>2026-03-29T11:02:23.591Z</time></trkpt><trkpt lat="44.4784421" lon="7.3351682"><ele>713.5714285714286</ele><time>2026-03-29T11:02:26.591Z</time></trkpt><trkpt lat="44.4784548" lon="7.335055"><ele>714.2857142857143</ele><time>2026-03-29T11:02:30.591Z</time></trkpt><trkpt lat="44.478428" lon="7.3349682"><ele>715.0</ele><time>2026-03-29T11:02:33.592Z</time></trkpt><trkpt lat="44.4784093" lon="7.3348603"><ele>715.0</ele><time>2026-03-29T11:02:36.59Z</time></trkpt><trkpt lat="44.4784133" lon="7.3347317"><ele>715.0</ele><time>2026-03-29T11:02:39.59Z</time></trkpt><trkpt lat="44.4784094" lon="7.334607"><ele>715.0</ele><time>2026-03-29T11:02:42.591Z</time></trkpt><trkpt lat="44.4784042" lon="7.3345181"><ele>715.0</ele><time>2026-03-29T11:02:44.591Z</time></trkpt><trkpt lat="44.4783871" lon="7.3344263"><ele>715.0</ele><time>2026-03-29T11:02:46.592Z</time></trkpt><trkpt lat="44.4783558" lon="7.3343414"><ele>715.0</ele><time>2026-03-29T11:02:48.592Z</time></trkpt><trkpt lat="44.4783146" lon="7.3342627"><ele>715.2857142857143</ele><time>2026-03-29T11:02:50.592Z</time></trkpt><trkpt lat="44.4782656" lon="7.3341905"><ele>715.5714285714286</ele><time>2026-03-29T11:02:52.592Z</time></trkpt><trkpt lat="44.4782151" lon="7.3341201"><ele>715.8571428571429</ele><time>2026-03-29T11:02:54.592Z</time></trkpt><trkpt lat="44.4781656" lon="7.334052"><ele>716.1428571428571</ele><time>2026-03-29T11:02:56.591Z</time></trkpt><trkpt lat="44.4781232" lon="7.3339735"><ele>716.4285714285713</ele><time>2026-03-29T11:02:58.592Z</time></trkpt><trkpt lat="44.4781066" lon="7.333882"><ele>716.7142857142857</ele><time>2026-03-29T11:03:00.591Z</time></trkpt><trkpt lat="44.478114" lon="7.333791"><ele>717.0</ele><time>2026-03-29T11:03:02.591Z</time></trkpt><trkpt lat="44.4781325" lon="7.3337058"><ele>717.3333333333334</ele><time>2026-03-29T11:03:04.591Z</time></trkpt><trkpt lat="44.4781673" lon="7.3336217"><ele>717.6666666666666</ele><time>2026-03-29T11:03:06.592Z</time></trkpt><trkpt lat="44.4782078" lon="7.3335276"><ele>718.0</ele><time>2026-03-29T11:03:08.591Z</time></trkpt><trkpt lat="44.478254" lon="7.3334209"><ele>718.3333333333333</ele><time>2026-03-29T11:03:10.592Z</time></trkpt><trkpt lat="44.4783014" lon="7.3333146"><ele>718.6666666666666</ele><time>2026-03-29T11:03:12.591Z</time></trkpt><trkpt lat="44.4783437" lon="7.3332157"><ele>719.0</ele><time>2026-03-29T11:03:14.592Z</time></trkpt><trkpt lat="44.4783693" lon="7.333126"><ele>720.1666666666666</ele><time>2026-03-29T11:03:16.591Z</time></trkpt><trkpt lat="44.4783746" lon="7.33303"><ele>721.3333333333333</ele><time>2026-03-29T11:03:19.591Z</time></trkpt><trkpt lat="44.4783432" lon="7.3329155"><ele>722.5</ele><time>2026-03-29T11:03:23.591Z</time></trkpt><trkpt lat="44.4782798" lon="7.3328469"><ele>723.6666666666666</ele><time>2026-03-29T11:03:26.592Z</time></trkpt><trkpt lat="44.4782034" lon="7.332804"><ele>724.8333333333334</ele><time>2026-03-29T11:03:29.591Z</time></trkpt><trkpt lat="44.4781405" lon="7.3327952"><ele>726.0</ele><time>2026-03-29T11:03:31.592Z</time></trkpt><trkpt lat="44.4780695" lon="7.3327856"><ele>725.9999999999999</ele><time>2026-03-29T11:03:33.592Z</time></trkpt><trkpt lat="44.4779976" lon="7.3327711"><ele>726.0</ele><time>2026-03-29T11:03:35.592Z</time></trkpt><trkpt lat="44.4779242" lon="7.3327452"><ele>726.0</ele><time>2026-03-29T11:03:37.591Z</time></trkpt><trkpt lat="44.4778526" lon="7.3327122"><ele>726.0</ele><time>2026-03-29T11:03:39.591Z</time></trkpt><trkpt lat="44.4777824" lon="7.3326721"><ele>726.0</ele><time>2026-03-29T11:03:41.592Z</time></trkpt><trkpt lat="44.4777212" lon="7.3326167"><ele>725.9999999999999</ele><time>2026-03-29T11:03:43.59Z</time></trkpt><trkpt lat="44.4776654" lon="7.3325588"><ele>726.0</ele><time>2026-03-29T11:03:45.591Z</time></trkpt><trkpt lat="44.4776133" lon="7.3324977"><ele>724.5</ele><time>2026-03-29T11:03:47.592Z</time></trkpt><trkpt lat="44.4775576" lon="7.3324411"><ele>723.0</ele><time>2026-03-29T11:03:49.592Z</time></trkpt><trkpt lat="44.4774906" lon="7.3323922"><ele>721.5</ele><time>2026-03-29T11:03:51.591Z</time></trkpt><trkpt lat="44.4774098" lon="7.3323684"><ele>720.0</ele><time>2026-03-29T11:03:53.591Z</time></trkpt><trkpt lat="44.4773195" lon="7.3323568"><ele>718.5</ele><time>2026-03-29T11:03:55.591Z</time></trkpt><trkpt lat="44.477229" lon="7.3323534"><ele>717.0</ele><time>2026-03-29T11:03:57.591Z</time></trkpt><trkpt lat="44.4771404" lon="7.3323383"><ele>718.0</ele><time>2026-03-29T11:03:59.591Z</time></trkpt><trkpt lat="44.4770516" lon="7.3323109"><ele>719.0</ele><time>2026-03-29T11:04:01.592Z</time></trkpt><trkpt lat="44.4769694" lon="7.3322601"><ele>720.0</ele><time>2026-03-29T11:04:03.591Z</time></trkpt><trkpt lat="44.4768871" lon="7.3322103"><ele>721.0</ele><time>2026-03-29T11:04:05.591Z</time></trkpt><trkpt lat="44.4768128" lon="7.3321621"><ele>722.0</ele><time>2026-03-29T11:04:07.591Z</time></trkpt><trkpt lat="44.4767425" lon="7.3320991"><ele>723.0</ele><time>2026-03-29T11:04:09.592Z</time></trkpt><trkpt lat="44.4766819" lon="7.3320249"><ele>723.0</ele><time>2026-03-29T11:04:11.591Z</time></trkpt><trkpt lat="44.4766397" lon="7.331942"><ele>723.0</ele><time>2026-03-29T11:04:13.592Z</time></trkpt><trkpt lat="44.4765959" lon="7.3318695"><ele>723.0</ele><time>2026-03-29T11:04:15.592Z</time></trkpt><trkpt lat="44.4765401" lon="7.3317694"><ele>723.0</ele><time>2026-03-29T11:04:18.591Z</time></trkpt><trkpt lat="44.4764959" lon="7.3316749"><ele>723.0</ele><time>2026-03-29T11:04:21.591Z</time></trkpt><trkpt lat="44.4764646" lon="7.3315742"><ele>723.0</ele><time>2026-03-29T11:04:24.591Z</time></trkpt><trkpt lat="44.4764464" lon="7.3314633"><ele>723.0</ele><time>2026-03-29T11:04:27.592Z</time></trkpt><trkpt lat="44.4764146" lon="7.3313387"><ele>723.0</ele><time>2026-03-29T11:04:30.591Z</time></trkpt><trkpt lat="44.4763666" lon="7.3312616"><ele>723.0</ele><time>2026-03-29T11:04:32.591Z</time></trkpt><trkpt lat="44.4763058" lon="7.3312062"><ele>723.0</ele><time>2026-03-29T11:04:34.591Z</time></trkpt><trkpt lat="44.4762449" lon="7.3311632"><ele>723.0</ele><time>2026-03-29T11:04:36.592Z</time></trkpt><trkpt lat="44.476186" lon="7.3311296"><ele>723.0</ele><time>2026-03-29T11:04:38.591Z</time></trkpt><trkpt lat="44.4761082" lon="7.3310794"><ele>723.0000000000001</ele><time>2026-03-29T11:04:41.591Z</time></trkpt><trkpt lat="44.4760374" lon="7.3310485"><ele>723.0</ele><time>2026-03-29T11:04:44.591Z</time></trkpt><trkpt lat="44.4759737" lon="7.3310226"><ele>723.0</ele><time>2026-03-29T11:04:47.591Z</time></trkpt><trkpt lat="44.4759174" lon="7.3309814"><ele>723.0</ele><time>2026-03-29T11:04:50.592Z</time></trkpt><trkpt lat="44.4758628" lon="7.3309291"><ele>723.0</ele><time>2026-03-29T11:04:53.591Z</time></trkpt><trkpt lat="44.4758134" lon="7.330847"><ele>723.0000000000001</ele><time>2026-03-29T11:04:56.591Z</time></trkpt><trkpt lat="44.475804" lon="7.3307542"><ele>723.0</ele><time>2026-03-29T11:04:58.592Z</time></trkpt><trkpt lat="44.475817" lon="7.3306417"><ele>724.8333333333334</ele><time>2026-03-29T11:05:00.591Z</time></trkpt><trkpt lat="44.4758194" lon="7.3305173"><ele>726.6666666666666</ele><time>2026-03-29T11:05:02.591Z</time></trkpt><trkpt lat="44.4757944" lon="7.3304042"><ele>728.5</ele><time>2026-03-29T11:05:04.591Z</time></trkpt><trkpt lat="44.4757486" lon="7.3303287"><ele>730.3333333333333</ele><time>2026-03-29T11:05:06.591Z</time></trkpt><trkpt lat="44.4756711" lon="7.3302809"><ele>732.1666666666666</ele><time>2026-03-29T11:05:09.592Z</time></trkpt><trkpt lat="44.4755822" lon="7.3302466"><ele>734.0</ele><time>2026-03-29T11:05:12.591Z</time></trkpt><trkpt lat="44.4755158" lon="7.3302327"><ele>734.0</ele><time>2026-03-29T11:05:14.591Z</time></trkpt><trkpt lat="44.4754442" lon="7.3302289"><ele>734.0</ele><time>2026-03-29T11:05:16.592Z</time></trkpt><trkpt lat="44.4753741" lon="7.3302104"><ele>734.0</ele><time>2026-03-29T11:05:18.591Z</time></trkpt><trkpt lat="44.4753103" lon="7.330185"><ele>734.0</ele><time>2026-03-29T11:05:20.592Z</time></trkpt><trkpt lat="44.4752538" lon="7.3301428"><ele>734.0</ele><time>2026-03-29T11:05:22.591Z</time></trkpt><trkpt lat="44.4752067" lon="7.3300836"><ele>734.0</ele><time>2026-03-29T11:05:24.591Z</time></trkpt><trkpt lat="44.4751779" lon="7.3299866"><ele>734.0</ele><time>2026-03-29T11:05:26.591Z</time></trkpt><trkpt lat="44.4751593" lon="7.3298585"><ele>734.0</ele><time>2026-03-29T11:05:28.591Z</time></trkpt><trkpt lat="44.4751286" lon="7.3297181"><ele>734.0</ele><time>2026-03-29T11:05:30.592Z</time></trkpt><trkpt lat="44.4750356" lon="7.3296331"><ele>734.0</ele><time>2026-03-29T11:05:32.591Z</time></trkpt><trkpt lat="44.4749441" lon="7.3296453"><ele>734.0</ele><time>2026-03-29T11:05:34.592Z</time></trkpt><trkpt lat="44.4748553" lon="7.3296719"><ele>734.0</ele><time>2026-03-29T11:05:36.592Z</time></trkpt><trkpt lat="44.4747784" lon="7.3296801"><ele>734.0</ele><time>2026-03-29T11:05:38.592Z</time></trkpt><trkpt lat="44.4747046" lon="7.3296573"><ele>734.0</ele><time>2026-03-29T11:05:40.591Z</time></trkpt><trkpt lat="44.474632" lon="7.3296108"><ele>734.0</ele><time>2026-03-29T11:05:42.591Z</time></trkpt><trkpt lat="44.4745562" lon="7.3295403"><ele>734.0</ele><time>2026-03-29T11:05:44.592Z</time></trkpt><trkpt lat="44.4744865" lon="7.3294549"><ele>734.0</ele><time>2026-03-29T11:05:46.592Z</time></trkpt><trkpt lat="44.4744186" lon="7.329379"><ele>734.0</ele><time>2026-03-29T11:05:48.592Z</time></trkpt><trkpt lat="44.4743633" lon="7.3293083"><ele>733.8571428571428</ele><time>2026-03-29T11:05:50.592Z</time></trkpt><trkpt lat="44.4743257" lon="7.3292253"><ele>733.7142857142858</ele><time>2026-03-29T11:05:52.591Z</time></trkpt><trkpt lat="44.4742967" lon="7.3291389"><ele>733.5714285714286</ele><time>2026-03-29T11:05:54.592Z</time></trkpt><trkpt lat="44.4742773" lon="7.3290521"><ele>733.4285714285713</ele><time>2026-03-29T11:05:56.591Z</time></trkpt><trkpt lat="44.4742674" lon="7.3289598"><ele>733.2857142857142</ele><time>2026-03-29T11:05:58.592Z</time></trkpt><trkpt lat="44.4742527" lon="7.328865"><ele>733.1428571428571</ele><time>2026-03-29T11:06:00.591Z</time></trkpt><trkpt lat="44.4742189" lon="7.3287804"><ele>733.0</ele><time>2026-03-29T11:06:02.592Z</time></trkpt><trkpt lat="44.4741643" lon="7.328681"><ele>733.0</ele><time>2026-03-29T11:06:05.592Z</time></trkpt><trkpt lat="44.4740986" lon="7.328609"><ele>733.0</ele><time>2026-03-29T11:06:08.591Z</time></trkpt><trkpt lat="44.474026" lon="7.3285652"><ele>733.0</ele><time>2026-03-29T11:06:11.59Z</time></trkpt><trkpt lat="44.4739356" lon="7.3285347"><ele>733.0</ele><time>2026-03-29T11:06:14.592Z</time></trkpt><trkpt lat="44.4738493" lon="7.3285251"><ele>733.0</ele><time>2026-03-29T11:06:17.59Z</time></trkpt><trkpt lat="44.4737635" lon="7.3285238"><ele>733.0</ele><time>2026-03-29T11:06:20.592Z</time></trkpt><trkpt lat="44.473682" lon="7.3285345"><ele>732.5</ele><time>2026-03-29T11:06:23.591Z</time></trkpt><trkpt lat="44.473593" lon="7.3285353"><ele>732.0</ele><time>2026-03-29T11:06:26.592Z</time></trkpt><trkpt lat="44.4735113" lon="7.328527"><ele>731.5</ele><time>2026-03-29T11:06:29.592Z</time></trkpt><trkpt lat="44.4734192" lon="7.3285135"><ele>731.0</ele><time>2026-03-29T11:06:32.592Z</time></trkpt><trkpt lat="44.4733536" lon="7.3285022"><ele>730.5</ele><time>2026-03-29T11:06:34.591Z</time></trkpt><trkpt lat="44.4732882" lon="7.3284833"><ele>730.0</ele><time>2026-03-29T11:06:36.592Z</time></trkpt><trkpt lat="44.4732091" lon="7.3284482"><ele>730.0</ele><time>2026-03-29T11:06:39.592Z</time></trkpt><trkpt lat="44.4731438" lon="7.3284343"><ele>730.0</ele><time>2026-03-29T11:06:41.592Z</time></trkpt><trkpt lat="44.4730773" lon="7.3284106"><ele>730.0</ele><time>2026-03-29T11:06:43.591Z</time></trkpt><trkpt lat="44.4730145" lon="7.3283831"><ele>730.0</ele><time>2026-03-29T11:06:45.59Z</time></trkpt><trkpt lat="44.4729288" lon="7.3283327"><ele>730.0</ele><time>2026-03-29T11:06:48.591Z</time></trkpt><trkpt lat="44.4728553" lon="7.3282488"><ele>730.0</ele><time>2026-03-29T11:06:51.592Z</time></trkpt><trkpt lat="44.4727833" lon="7.3281655"><ele>729.5</ele><time>2026-03-29T11:06:54.591Z</time></trkpt><trkpt lat="44.4727038" lon="7.3281254"><ele>729.0</ele><time>2026-03-29T11:06:57.591Z</time></trkpt><trkpt lat="44.4726342" lon="7.3280677"><ele>728.5</ele><time>2026-03-29T11:07:00.592Z</time></trkpt><trkpt lat="44.4725553" lon="7.3280337"><ele>728.0</ele><time>2026-03-29T11:07:03.592Z</time></trkpt><trkpt lat="44.4724743" lon="7.32803"><ele>727.5</ele><time>2026-03-29T11:07:06.59Z</time></trkpt><trkpt lat="44.4724004" lon="7.3280193"><ele>727.0</ele><time>2026-03-29T11:07:09.59Z</time></trkpt><trkpt lat="44.4723339" lon="7.3279892"><ele>725.8333333333334</ele><time>2026-03-29T11:07:12.591Z</time></trkpt><trkpt lat="44.4722657" lon="7.3279292"><ele>724.6666666666667</ele><time>2026-03-29T11:07:16.59Z</time></trkpt><trkpt lat="44.472221" lon="7.3278635"><ele>723.5</ele><time>2026-03-29T11:07:18.59Z</time></trkpt><trkpt lat="44.4722073" lon="7.3277469"><ele>722.3333333333334</ele><time>2026-03-29T11:07:20.59Z</time></trkpt><trkpt lat="44.4721995" lon="7.3276431"><ele>721.1666666666666</ele><time>2026-03-29T11:07:22.591Z</time></trkpt><trkpt lat="44.4721558" lon="7.3275423"><ele>720.0</ele><time>2026-03-29T11:07:25.591Z</time></trkpt><trkpt lat="44.4720687" lon="7.3275452"><ele>720.0</ele><time>2026-03-29T11:07:28.591Z</time></trkpt><trkpt lat="44.4720048" lon="7.3276589"><ele>720.0</ele><time>2026-03-29T11:07:30.59Z</time></trkpt><trkpt lat="44.4719576" lon="7.3277204"><ele>720.0</ele><time>2026-03-29T11:07:31.59Z</time></trkpt><trkpt lat="44.4719001" lon="7.3277656"><ele>720.0</ele><time>2026-03-29T11:07:32.59Z</time></trkpt><trkpt lat="44.4718313" lon="7.3277861"><ele>720.0</ele><time>2026-03-29T11:07:33.591Z</time></trkpt><trkpt lat="44.4717591" lon="7.3277831"><ele>720.0</ele><time>2026-03-29T11:07:34.589Z</time></trkpt><trkpt lat="44.4716824" lon="7.3277645"><ele>720.0</ele><time>2026-03-29T11:07:35.589Z</time></trkpt><trkpt lat="44.4716025" lon="7.3277589"><ele>720.0</ele><time>2026-03-29T11:07:36.591Z</time></trkpt><trkpt lat="44.4715163" lon="7.3277514"><ele>720.0</ele><time>2026-03-29T11:07:37.59Z</time></trkpt><trkpt lat="44.4714202" lon="7.3277499"><ele>720.0</ele><time>2026-03-29T11:07:38.591Z</time></trkpt><trkpt lat="44.4713234" lon="7.3277536"><ele>720.0</ele><time>2026-03-29T11:07:39.59Z</time></trkpt><trkpt lat="44.4712344" lon="7.3277585"><ele>720.0</ele><time>2026-03-29T11:07:40.59Z</time></trkpt><trkpt lat="44.4711548" lon="7.3277662"><ele>719.2857142857142</ele><time>2026-03-29T11:07:41.59Z</time></trkpt><trkpt lat="44.471086" lon="7.327777"><ele>718.5714285714287</ele><time>2026-03-29T11:07:42.59Z</time></trkpt><trkpt lat="44.4710217" lon="7.3277841"><ele>717.8571428571429</ele><time>2026-03-29T11:07:43.59Z</time></trkpt><trkpt lat="44.4709593" lon="7.3277996"><ele>717.1428571428571</ele><time>2026-03-29T11:07:44.59Z</time></trkpt><trkpt lat="44.4708935" lon="7.3278323"><ele>716.4285714285713</ele><time>2026-03-29T11:07:45.59Z</time></trkpt><trkpt lat="44.4708327" lon="7.327891"><ele>715.7142857142858</ele><time>2026-03-29T11:07:46.59Z</time></trkpt><trkpt lat="44.4707825" lon="7.3279772"><ele>715.0</ele><time>2026-03-29T11:07:47.589Z</time></trkpt><trkpt lat="44.4707474" lon="7.32808"><ele>715.0</ele><time>2026-03-29T11:07:48.59Z</time></trkpt><trkpt lat="44.4707335" lon="7.3281932"><ele>715.0</ele><time>2026-03-29T11:07:49.59Z</time></trkpt><trkpt lat="44.4707293" lon="7.3283144"><ele>715.0</ele><time>2026-03-29T11:07:50.59Z</time></trkpt><trkpt lat="44.4707305" lon="7.3284317"><ele>715.0</ele><time>2026-03-29T11:07:51.59Z</time></trkpt><trkpt lat="44.4707419" lon="7.3285345"><ele>715.0</ele><time>2026-03-29T11:07:52.59Z</time></trkpt><trkpt lat="44.4707658" lon="7.3286353"><ele>715.0</ele><time>2026-03-29T11:07:53.591Z</time></trkpt><trkpt lat="44.470802" lon="7.3287285"><ele>715.0</ele><time>2026-03-29T11:07:54.59Z</time></trkpt><trkpt lat="44.4708538" lon="7.3288137"><ele>715.0</ele><time>2026-03-29T11:07:55.591Z</time></trkpt><trkpt lat="44.4709152" lon="7.3288841"><ele>715.0</ele><time>2026-03-29T11:07:56.589Z</time></trkpt><trkpt lat="44.4709729" lon="7.3289489"><ele>715.0</ele><time>2026-03-29T11:07:57.591Z</time></trkpt><trkpt lat="44.4710279" lon="7.3290271"><ele>715.0</ele><time>2026-03-29T11:07:58.59Z</time></trkpt><trkpt lat="44.4710758" lon="7.3291133"><ele>715.0</ele><time>2026-03-29T11:07:59.591Z</time></trkpt><trkpt lat="44.4711235" lon="7.3292014"><ele>716.0</ele><time>2026-03-29T11:08:00.591Z</time></trkpt><trkpt lat="44.471166" lon="7.329295"><ele>717.0</ele><time>2026-03-29T11:08:01.59Z</time></trkpt><trkpt lat="44.4712047" lon="7.3293897"><ele>718.0</ele><time>2026-03-29T11:08:02.59Z</time></trkpt><trkpt lat="44.4712356" lon="7.3294844"><ele>719.0</ele><time>2026-03-29T11:08:03.59Z</time></trkpt><trkpt lat="44.4712673" lon="7.3295771"><ele>720.0</ele><time>2026-03-29T11:08:04.59Z</time></trkpt><trkpt lat="44.4713016" lon="7.3296693"><ele>721.0</ele><time>2026-03-29T11:08:05.591Z</time></trkpt><trkpt lat="44.4713348" lon="7.329752"><ele>722.0</ele><time>2026-03-29T11:08:06.59Z</time></trkpt><trkpt lat="44.4713847" lon="7.3298282"><ele>719.1666666666666</ele><time>2026-03-29T11:08:07.591Z</time></trkpt><trkpt lat="44.4714512" lon="7.3298902"><ele>716.3333333333333</ele><time>2026-03-29T11:08:08.59Z</time></trkpt><trkpt lat="44.4715291" lon="7.3299368"><ele>713.5</ele><time>2026-03-29T11:08:09.59Z</time></trkpt><trkpt lat="44.4716087" lon="7.3299712"><ele>710.6666666666666</ele><time>2026-03-29T11:08:10.589Z</time></trkpt><trkpt lat="44.4716886" lon="7.3299983"><ele>707.8333333333334</ele><time>2026-03-29T11:08:11.59Z</time></trkpt><trkpt lat="44.4717652" lon="7.3300255"><ele>705.0</ele><time>2026-03-29T11:08:12.59Z</time></trkpt><trkpt lat="44.4718399" lon="7.3300458"><ele>704.9999999999999</ele><time>2026-03-29T11:08:13.59Z</time></trkpt><trkpt lat="44.4719099" lon="7.3300611"><ele>705.0</ele><time>2026-03-29T11:08:14.591Z</time></trkpt><trkpt lat="44.4719767" lon="7.3300709"><ele>705.0</ele><time>2026-03-29T11:08:15.591Z</time></trkpt><trkpt lat="44.4720452" lon="7.3300697"><ele>705.0</ele><time>2026-03-29T11:08:16.591Z</time></trkpt><trkpt lat="44.4721135" lon="7.3300648"><ele>705.0</ele><time>2026-03-29T11:08:17.59Z</time></trkpt><trkpt lat="44.4721825" lon="7.3300423"><ele>704.9999999999999</ele><time>2026-03-29T11:08:18.591Z</time></trkpt><trkpt lat="44.4722483" lon="7.3300083"><ele>705.0</ele><time>2026-03-29T11:08:19.591Z</time></trkpt><trkpt lat="44.4723188" lon="7.3299691"><ele>704.6666666666666</ele><time>2026-03-29T11:08:20.591Z</time></trkpt><trkpt lat="44.4723852" lon="7.3299112"><ele>704.3333333333334</ele><time>2026-03-29T11:08:21.59Z</time></trkpt><trkpt lat="44.4724549" lon="7.3298438"><ele>704.0</ele><time>2026-03-29T11:08:22.59Z</time></trkpt><trkpt lat="44.4725231" lon="7.3297674"><ele>703.6666666666667</ele><time>2026-03-29T11:08:23.59Z</time></trkpt><trkpt lat="44.4725906" lon="7.3296895"><ele>703.3333333333334</ele><time>2026-03-29T11:08:24.59Z</time></trkpt><trkpt lat="44.4726458" lon="7.329612"><ele>703.0</ele><time>2026-03-29T11:08:25.59Z</time></trkpt><trkpt lat="44.472689" lon="7.3295432"><ele>703.0</ele><time>2026-03-29T11:08:26.591Z</time></trkpt><trkpt lat="44.4727729" lon="7.3294427"><ele>703.0</ele><time>2026-03-29T11:08:28.591Z</time></trkpt><trkpt lat="44.4728574" lon="7.3294921"><ele>703.0</ele><time>2026-03-29T11:08:30.591Z</time></trkpt><trkpt lat="44.4728547" lon="7.3296545"><ele>703.0</ele><time>2026-03-29T11:08:32.59Z</time></trkpt><trkpt lat="44.4728309" lon="7.3297455"><ele>703.0</ele><time>2026-03-29T11:08:33.591Z</time></trkpt><trkpt lat="44.4728037" lon="7.329839"><ele>703.0</ele><time>2026-03-29T11:08:34.59Z</time></trkpt><trkpt lat="44.4727712" lon="7.3299378"><ele>703.0</ele><time>2026-03-29T11:08:35.59Z</time></trkpt><trkpt lat="44.4727357" lon="7.3300355"><ele>703.0</ele><time>2026-03-29T11:08:36.59Z</time></trkpt><trkpt lat="44.4726981" lon="7.3301348"><ele>703.0</ele><time>2026-03-29T11:08:37.591Z</time></trkpt><trkpt lat="44.472651" lon="7.3302428"><ele>703.0</ele><time>2026-03-29T11:08:38.59Z</time></trkpt><trkpt lat="44.472605" lon="7.3303498"><ele>703.0</ele><time>2026-03-29T11:08:39.591Z</time></trkpt><trkpt lat="44.4725563" lon="7.3304624"><ele>700.8571428571429</ele><time>2026-03-29T11:08:40.591Z</time></trkpt><trkpt lat="44.4725101" lon="7.330563"><ele>698.7142857142858</ele><time>2026-03-29T11:08:41.59Z</time></trkpt><trkpt lat="44.472466" lon="7.3306463"><ele>696.5714285714287</ele><time>2026-03-29T11:08:42.591Z</time></trkpt><trkpt lat="44.4724249" lon="7.3307275"><ele>694.4285714285714</ele><time>2026-03-29T11:08:43.591Z</time></trkpt><trkpt lat="44.4723751" lon="7.3308025"><ele>692.2857142857143</ele><time>2026-03-29T11:08:44.589Z</time></trkpt><trkpt lat="44.4723195" lon="7.3308641"><ele>690.1428571428572</ele><time>2026-03-29T11:08:45.59Z</time></trkpt><trkpt lat="44.4722617" lon="7.3309143"><ele>688.0</ele><time>2026-03-29T11:08:46.591Z</time></trkpt><trkpt lat="44.4721942" lon="7.3309437"><ele>688.0</ele><time>2026-03-29T11:08:47.59Z</time></trkpt><trkpt lat="44.4721177" lon="7.3309615"><ele>688.0</ele><time>2026-03-29T11:08:48.591Z</time></trkpt><trkpt lat="44.4720368" lon="7.3309746"><ele>688.0</ele><time>2026-03-29T11:08:49.59Z</time></trkpt><trkpt lat="44.4719514" lon="7.3309782"><ele>688.0</ele><time>2026-03-29T11:08:50.59Z</time></trkpt><trkpt lat="44.4718626" lon="7.3309715"><ele>688.0</ele><time>2026-03-29T11:08:51.591Z</time></trkpt><trkpt lat="44.4717706" lon="7.330966"><ele>688.0</ele><time>2026-03-29T11:08:52.59Z</time></trkpt><trkpt lat="44.4716811" lon="7.3309568"><ele>687.6666666666667</ele><time>2026-03-29T11:08:53.59Z</time></trkpt><trkpt lat="44.4715875" lon="7.3309588"><ele>687.3333333333334</ele><time>2026-03-29T11:08:54.59Z</time></trkpt><trkpt lat="44.4714983" lon="7.3309677"><ele>687.0</ele><time>2026-03-29T11:08:55.59Z</time></trkpt><trkpt lat="44.4714165" lon="7.3309785"><ele>686.6666666666666</ele><time>2026-03-29T11:08:56.589Z</time></trkpt><trkpt lat="44.4713342" lon="7.3309911"><ele>686.3333333333333</ele><time>2026-03-29T11:08:57.59Z</time></trkpt><trkpt lat="44.4712551" lon="7.3310007"><ele>686.0</ele><time>2026-03-29T11:08:58.59Z</time></trkpt><trkpt lat="44.4711827" lon="7.3310071"><ele>684.6666666666666</ele><time>2026-03-29T11:08:59.59Z</time></trkpt><trkpt lat="44.4711129" lon="7.3310138"><ele>683.3333333333333</ele><time>2026-03-29T11:09:00.59Z</time></trkpt><trkpt lat="44.4710424" lon="7.3310145"><ele>682.0</ele><time>2026-03-29T11:09:01.591Z</time></trkpt><trkpt lat="44.470974" lon="7.3310105"><ele>680.6666666666666</ele><time>2026-03-29T11:09:02.59Z</time></trkpt><trkpt lat="44.4709086" lon="7.331001"><ele>679.3333333333334</ele><time>2026-03-29T11:09:03.59Z</time></trkpt><trkpt lat="44.4707882" lon="7.3309816"><ele>678.0</ele><time>2026-03-29T11:09:05.591Z</time></trkpt><trkpt lat="44.4706782" lon="7.3309775"><ele>678.0</ele><time>2026-03-29T11:09:07.591Z</time></trkpt><trkpt lat="44.4705848" lon="7.330985"><ele>678.0</ele><time>2026-03-29T11:09:09.591Z</time></trkpt><trkpt lat="44.4705022" lon="7.3310025"><ele>678.0</ele><time>2026-03-29T11:09:11.59Z</time></trkpt><trkpt lat="44.4704252" lon="7.3311025"><ele>678.0</ele><time>2026-03-29T11:09:13.59Z</time></trkpt><trkpt lat="44.4703733" lon="7.3312487"><ele>678.0</ele><time>2026-03-29T11:09:15.589Z</time></trkpt><trkpt lat="44.4703451" lon="7.3313299"><ele>675.0</ele><time>2026-03-29T11:09:16.59Z</time></trkpt><trkpt lat="44.4702765" lon="7.3314696"><ele>672.0</ele><time>2026-03-29T11:09:18.591Z</time></trkpt><trkpt lat="44.4702032" lon="7.3316047"><ele>669.0</ele><time>2026-03-29T11:09:20.59Z</time></trkpt><trkpt lat="44.4701464" lon="7.3317454"><ele>666.0</ele><time>2026-03-29T11:09:22.59Z</time></trkpt><trkpt lat="44.4701115" lon="7.3319095"><ele>666.0</ele><time>2026-03-29T11:09:24.59Z</time></trkpt><trkpt lat="44.4701003" lon="7.3319969"><ele>666.0</ele><time>2026-03-29T11:09:25.59Z</time></trkpt><trkpt lat="44.4700818" lon="7.3320864"><ele>666.0</ele><time>2026-03-29T11:09:26.591Z</time></trkpt><trkpt lat="44.4700291" lon="7.3322501"><ele>666.0</ele><time>2026-03-29T11:09:28.59Z</time></trkpt><trkpt lat="44.469989" lon="7.3323254"><ele>666.0</ele><time>2026-03-29T11:09:29.591Z</time></trkpt><trkpt lat="44.4699504" lon="7.3324026"><ele>666.0</ele><time>2026-03-29T11:09:30.59Z</time></trkpt><trkpt lat="44.4699064" lon="7.3324814"><ele>665.5</ele><time>2026-03-29T11:09:31.591Z</time></trkpt><trkpt lat="44.4698625" lon="7.3325631"><ele>665.0</ele><time>2026-03-29T11:09:32.591Z</time></trkpt><trkpt lat="44.4698177" lon="7.3326407"><ele>664.5</ele><time>2026-03-29T11:09:33.59Z</time></trkpt><trkpt lat="44.4697727" lon="7.3327245"><ele>664.0</ele><time>2026-03-29T11:09:34.59Z</time></trkpt><trkpt lat="44.4697293" lon="7.3328188"><ele>663.5</ele><time>2026-03-29T11:09:35.591Z</time></trkpt><trkpt lat="44.4696845" lon="7.3329106"><ele>663.0</ele><time>2026-03-29T11:09:36.59Z</time></trkpt><trkpt lat="44.469639" lon="7.333007"><ele>662.5</ele><time>2026-03-29T11:09:37.59Z</time></trkpt><trkpt lat="44.4695923" lon="7.3331129"><ele>662.0</ele><time>2026-03-29T11:09:38.59Z</time></trkpt><trkpt lat="44.4695622" lon="7.3332269"><ele>661.5</ele><time>2026-03-29T11:09:39.59Z</time></trkpt><trkpt lat="44.4695415" lon="7.3333384"><ele>661.0</ele><time>2026-03-29T11:09:40.591Z</time></trkpt><trkpt lat="44.4695231" lon="7.3334501"><ele>660.5</ele><time>2026-03-29T11:09:41.59Z</time></trkpt><trkpt lat="44.4695089" lon="7.3335617"><ele>660.0</ele><time>2026-03-29T11:09:42.59Z</time></trkpt><trkpt lat="44.4694954" lon="7.3336741"><ele>660.0</ele><time>2026-03-29T11:09:43.59Z</time></trkpt><trkpt lat="44.4694781" lon="7.3337838"><ele>660.0</ele><time>2026-03-29T11:09:44.59Z</time></trkpt><trkpt lat="44.4694638" lon="7.3338933"><ele>660.0</ele><time>2026-03-29T11:09:45.591Z</time></trkpt><trkpt lat="44.4694504" lon="7.3340004"><ele>660.0</ele><time>2026-03-29T11:09:46.591Z</time></trkpt><trkpt lat="44.4694418" lon="7.3341068"><ele>660.0</ele><time>2026-03-29T11:09:47.59Z</time></trkpt><trkpt lat="44.4694342" lon="7.3342129"><ele>660.0</ele><time>2026-03-29T11:09:48.59Z</time></trkpt><trkpt lat="44.4694267" lon="7.3343187"><ele>659.5</ele><time>2026-03-29T11:09:49.59Z</time></trkpt><trkpt lat="44.4694156" lon="7.334424"><ele>659.0</ele><time>2026-03-29T11:09:50.59Z</time></trkpt><trkpt lat="44.4694026" lon="7.334527"><ele>658.5</ele><time>2026-03-29T11:09:51.591Z</time></trkpt><trkpt lat="44.4693879" lon="7.3346292"><ele>658.0</ele><time>2026-03-29T11:09:52.59Z</time></trkpt><trkpt lat="44.4693736" lon="7.3347333"><ele>657.5</ele><time>2026-03-29T11:09:53.591Z</time></trkpt><trkpt lat="44.4693592" lon="7.3348372"><ele>657.0</ele><time>2026-03-29T11:09:54.59Z</time></trkpt><trkpt lat="44.469346" lon="7.3349397"><ele>656.7142857142857</ele><time>2026-03-29T11:09:55.59Z</time></trkpt><trkpt lat="44.4693343" lon="7.3350362"><ele>656.4285714285714</ele><time>2026-03-29T11:09:56.591Z</time></trkpt><trkpt lat="44.4693276" lon="7.3351343"><ele>656.1428571428571</ele><time>2026-03-29T11:09:57.591Z</time></trkpt><trkpt lat="44.4693193" lon="7.3352303"><ele>655.8571428571429</ele><time>2026-03-29T11:09:58.59Z</time></trkpt><trkpt lat="44.4693109" lon="7.3353267"><ele>655.5714285714286</ele><time>2026-03-29T11:09:59.59Z</time></trkpt><trkpt lat="44.4693096" lon="7.3354229"><ele>655.2857142857143</ele><time>2026-03-29T11:10:00.591Z</time></trkpt><trkpt lat="44.469306" lon="7.3355203"><ele>655.0</ele><time>2026-03-29T11:10:01.59Z</time></trkpt><trkpt lat="44.4693024" lon="7.3356203"><ele>654.8571428571429</ele><time>2026-03-29T11:10:02.59Z</time></trkpt><trkpt lat="44.4692961" lon="7.335718"><ele>654.7142857142857</ele><time>2026-03-29T11:10:03.591Z</time></trkpt><trkpt lat="44.4692911" lon="7.3358148"><ele>654.5714285714286</ele><time>2026-03-29T11:10:04.591Z</time></trkpt><trkpt lat="44.4692878" lon="7.3359176"><ele>654.4285714285714</ele><time>2026-03-29T11:10:05.591Z</time></trkpt><trkpt lat="44.4692899" lon="7.3360174"><ele>654.2857142857143</ele><time>2026-03-29T11:10:06.591Z</time></trkpt><trkpt lat="44.4692944" lon="7.33612"><ele>654.1428571428571</ele><time>2026-03-29T11:10:07.59Z</time></trkpt><trkpt lat="44.4692985" lon="7.3362154"><ele>654.0</ele><time>2026-03-29T11:10:08.59Z</time></trkpt><trkpt lat="44.4693151" lon="7.3363761"><ele>653.8000000000001</ele><time>2026-03-29T11:10:10.59Z</time></trkpt><trkpt lat="44.4693375" lon="7.3365268"><ele>653.6</ele><time>2026-03-29T11:10:12.59Z</time></trkpt><trkpt lat="44.4692899" lon="7.3366598"><ele>653.4</ele><time>2026-03-29T11:10:14.591Z</time></trkpt><trkpt lat="44.469211" lon="7.3367667"><ele>653.2</ele><time>2026-03-29T11:10:16.59Z</time></trkpt><trkpt lat="44.4691244" lon="7.3368773"><ele>653.0</ele><time>2026-03-29T11:10:18.591Z</time></trkpt><trkpt lat="44.4690336" lon="7.3369898"><ele>653.0000000000001</ele><time>2026-03-29T11:10:20.591Z</time></trkpt><trkpt lat="44.468984" lon="7.3370452"><ele>653.0</ele><time>2026-03-29T11:10:21.59Z</time></trkpt><trkpt lat="44.4689384" lon="7.3371087"><ele>653.0</ele><time>2026-03-29T11:10:22.59Z</time></trkpt><trkpt lat="44.4688921" lon="7.337173"><ele>653.0</ele><time>2026-03-29T11:10:23.59Z</time></trkpt><trkpt lat="44.4688471" lon="7.3372401"><ele>653.0</ele><time>2026-03-29T11:10:24.59Z</time></trkpt><trkpt lat="44.4688004" lon="7.3373058"><ele>653.0000000000001</ele><time>2026-03-29T11:10:25.59Z</time></trkpt><trkpt lat="44.4687522" lon="7.3373761"><ele>653.0</ele><time>2026-03-29T11:10:26.59Z</time></trkpt><trkpt lat="44.4687049" lon="7.3374429"><ele>652.7142857142858</ele><time>2026-03-29T11:10:27.59Z</time></trkpt><trkpt lat="44.4686572" lon="7.3375153"><ele>652.4285714285714</ele><time>2026-03-29T11:10:28.59Z</time></trkpt><trkpt lat="44.4686122" lon="7.3375877"><ele>652.1428571428571</ele><time>2026-03-29T11:10:29.59Z</time></trkpt><trkpt lat="44.4685695" lon="7.337659"><ele>651.8571428571429</ele><time>2026-03-29T11:10:30.59Z</time></trkpt><trkpt lat="44.4685192" lon="7.3377305"><ele>651.5714285714286</ele><time>2026-03-29T11:10:31.591Z</time></trkpt><trkpt lat="44.4684663" lon="7.3378065"><ele>651.2857142857143</ele><time>2026-03-29T11:10:32.59Z</time></trkpt><trkpt lat="44.4684133" lon="7.3378793"><ele>651.0</ele><time>2026-03-29T11:10:33.59Z</time></trkpt><trkpt lat="44.4683582" lon="7.3379525"><ele>651.0</ele><time>2026-03-29T11:10:34.591Z</time></trkpt><trkpt lat="44.4683089" lon="7.3380197"><ele>651.0</ele><time>2026-03-29T11:10:35.591Z</time></trkpt><trkpt lat="44.468206" lon="7.3381313"><ele>651.0</ele><time>2026-03-29T11:10:37.59Z</time></trkpt><trkpt lat="44.4681593" lon="7.3381958"><ele>651.0</ele><time>2026-03-29T11:10:38.59Z</time></trkpt><trkpt lat="44.4681099" lon="7.3382612"><ele>651.0</ele><time>2026-03-29T11:10:39.59Z</time></trkpt><trkpt lat="44.4680632" lon="7.3383239"><ele>651.0</ele><time>2026-03-29T11:10:40.591Z</time></trkpt><trkpt lat="44.4680144" lon="7.3383875"><ele>650.5999999999999</ele><time>2026-03-29T11:10:41.59Z</time></trkpt><trkpt lat="44.4679654" lon="7.3384483"><ele>650.2</ele><time>2026-03-29T11:10:42.591Z</time></trkpt><trkpt lat="44.467917" lon="7.3385106"><ele>649.8</ele><time>2026-03-29T11:10:43.59Z</time></trkpt><trkpt lat="44.467827" lon="7.338641"><ele>649.4000000000001</ele><time>2026-03-29T11:10:45.59Z</time></trkpt><trkpt lat="44.4677855" lon="7.3387087"><ele>649.0</ele><time>2026-03-29T11:10:46.591Z</time></trkpt><trkpt lat="44.4677049" lon="7.3388451"><ele>648.6666666666667</ele><time>2026-03-29T11:10:48.59Z</time></trkpt><trkpt lat="44.4676672" lon="7.3389231"><ele>648.3333333333334</ele><time>2026-03-29T11:10:49.591Z</time></trkpt><trkpt lat="44.467632" lon="7.3390003"><ele>648.0</ele><time>2026-03-29T11:10:50.59Z</time></trkpt><trkpt lat="44.467596" lon="7.3390761"><ele>647.6666666666666</ele><time>2026-03-29T11:10:51.59Z</time></trkpt><trkpt lat="44.4675551" lon="7.3391497"><ele>647.3333333333333</ele><time>2026-03-29T11:10:52.591Z</time></trkpt><trkpt lat="44.4674693" lon="7.339285"><ele>647.0</ele><time>2026-03-29T11:10:54.591Z</time></trkpt><trkpt lat="44.467428" lon="7.3393517"><ele>647.0</ele><time>2026-03-29T11:10:55.59Z</time></trkpt><trkpt lat="44.4673827" lon="7.3394287"><ele>647.0</ele><time>2026-03-29T11:10:56.589Z</time></trkpt><trkpt lat="44.4673411" lon="7.3395005"><ele>647.0</ele><time>2026-03-29T11:10:57.59Z</time></trkpt><trkpt lat="44.4672976" lon="7.3395679"><ele>647.0</ele><time>2026-03-29T11:10:58.59Z</time></trkpt><trkpt lat="44.4672443" lon="7.3396249"><ele>647.0</ele><time>2026-03-29T11:10:59.59Z</time></trkpt><trkpt lat="44.4671571" lon="7.3397063"><ele>647.0</ele><time>2026-03-29T11:11:01.59Z</time></trkpt><trkpt lat="44.4670731" lon="7.3397482"><ele>646.6666666666666</ele><time>2026-03-29T11:11:04.59Z</time></trkpt><trkpt lat="44.4670041" lon="7.3397837"><ele>646.3333333333333</ele><time>2026-03-29T11:11:09.59Z</time></trkpt><trkpt lat="44.4669427" lon="7.3398445"><ele>646.0</ele><time>2026-03-29T11:11:12.59Z</time></trkpt><trkpt lat="44.4669201" lon="7.3399438"><ele>645.6666666666666</ele><time>2026-03-29T11:11:14.59Z</time></trkpt><trkpt lat="44.4669033" lon="7.3400605"><ele>645.3333333333334</ele><time>2026-03-29T11:11:16.589Z</time></trkpt><trkpt lat="44.4668821" lon="7.340183"><ele>645.0</ele><time>2026-03-29T11:11:18.59Z</time></trkpt><trkpt lat="44.4668632" lon="7.340316"><ele>645.0</ele><time>2026-03-29T11:11:20.59Z</time></trkpt><trkpt lat="44.4668376" lon="7.3404589"><ele>645.0</ele><time>2026-03-29T11:11:22.591Z</time></trkpt><trkpt lat="44.4668156" lon="7.3405934"><ele>645.0</ele><time>2026-03-29T11:11:24.591Z</time></trkpt><trkpt lat="44.4667924" lon="7.3407387"><ele>645.0</ele><time>2026-03-29T11:11:26.59Z</time></trkpt><trkpt lat="44.4667637" lon="7.3408838"><ele>645.0</ele><time>2026-03-29T11:11:28.591Z</time></trkpt><trkpt lat="44.4667394" lon="7.3410203"><ele>644.8</ele><time>2026-03-29T11:11:30.59Z</time></trkpt><trkpt lat="44.466714" lon="7.3411555"><ele>644.6</ele><time>2026-03-29T11:11:32.591Z</time></trkpt><trkpt lat="44.4666926" lon="7.3412907"><ele>644.4000000000001</ele><time>2026-03-29T11:11:34.59Z</time></trkpt><trkpt lat="44.4666637" lon="7.34143"><ele>644.2</ele><time>2026-03-29T11:11:36.591Z</time></trkpt><trkpt lat="44.4666411" lon="7.3415727"><ele>644.0</ele><time>2026-03-29T11:11:38.59Z</time></trkpt><trkpt lat="44.4666233" lon="7.3417083"><ele>643.8333333333333</ele><time>2026-03-29T11:11:40.59Z</time></trkpt><trkpt lat="44.4666077" lon="7.341831"><ele>643.6666666666666</ele><time>2026-03-29T11:11:42.591Z</time></trkpt><trkpt lat="44.4665698" lon="7.3419114"><ele>643.5</ele><time>2026-03-29T11:11:44.59Z</time></trkpt><trkpt lat="44.4664842" lon="7.3419255"><ele>643.3333333333334</ele><time>2026-03-29T11:11:47.59Z</time></trkpt><trkpt lat="44.4664109" lon="7.3418953"><ele>643.1666666666667</ele><time>2026-03-29T11:11:50.591Z</time></trkpt><trkpt lat="44.4663458" lon="7.3419019"><ele>643.0</ele><time>2026-03-29T11:11:53.59Z</time></trkpt><trkpt lat="44.46632" lon="7.3420173"><ele>643.0</ele><time>2026-03-29T11:11:56.591Z</time></trkpt><trkpt lat="44.4663114" lon="7.3421155"><ele>643.0</ele><time>2026-03-29T11:11:58.589Z</time></trkpt><trkpt lat="44.4663034" lon="7.3422264"><ele>643.0</ele><time>2026-03-29T11:12:00.59Z</time></trkpt><trkpt lat="44.4662944" lon="7.3423471"><ele>643.0</ele><time>2026-03-29T11:12:02.591Z</time></trkpt><trkpt lat="44.4662898" lon="7.3424811"><ele>643.0</ele><time>2026-03-29T11:12:04.591Z</time></trkpt><trkpt lat="44.4662737" lon="7.3426092"><ele>643.0</ele><time>2026-03-29T11:12:06.589Z</time></trkpt><trkpt lat="44.4662585" lon="7.3427339"><ele>643.0</ele><time>2026-03-29T11:12:08.591Z</time></trkpt><trkpt lat="44.4662555" lon="7.3428526"><ele>643.0</ele><time>2026-03-29T11:12:10.591Z</time></trkpt><trkpt lat="44.4662531" lon="7.3429751"><ele>643.0</ele><time>2026-03-29T11:12:12.59Z</time></trkpt><trkpt lat="44.466248" lon="7.343102"><ele>643.0</ele><time>2026-03-29T11:12:14.591Z</time></trkpt><trkpt lat="44.4662455" lon="7.3432325"><ele>643.0</ele><time>2026-03-29T11:12:16.59Z</time></trkpt><trkpt lat="44.4662401" lon="7.3433604"><ele>643.0</ele><time>2026-03-29T11:12:18.59Z</time></trkpt><trkpt lat="44.4662422" lon="7.3434846"><ele>642.4</ele><time>2026-03-29T11:12:20.59Z</time></trkpt><trkpt lat="44.4662438" lon="7.3436195"><ele>641.8</ele><time>2026-03-29T11:12:22.591Z</time></trkpt><trkpt lat="44.4662369" lon="7.3437618"><ele>641.2</ele><time>2026-03-29T11:12:24.59Z</time></trkpt><trkpt lat="44.4662338" lon="7.3438963"><ele>640.6</ele><time>2026-03-29T11:12:26.589Z</time></trkpt><trkpt lat="44.4662259" lon="7.3440303"><ele>640.0</ele><time>2026-03-29T11:12:28.591Z</time></trkpt><trkpt lat="44.4662257" lon="7.3441653"><ele>640.0</ele><time>2026-03-29T11:12:30.59Z</time></trkpt><trkpt lat="44.4662279" lon="7.3442941"><ele>640.0</ele><time>2026-03-29T11:12:32.591Z</time></trkpt><trkpt lat="44.4662339" lon="7.3444307"><ele>640.0</ele><time>2026-03-29T11:12:34.59Z</time></trkpt><trkpt lat="44.4662561" lon="7.3445676"><ele>640.0</ele><time>2026-03-29T11:12:36.59Z</time></trkpt><trkpt lat="44.4662931" lon="7.3446949"><ele>640.0</ele><time>2026-03-29T11:12:38.59Z</time></trkpt><trkpt lat="44.4663435" lon="7.3448165"><ele>639.8</ele><time>2026-03-29T11:12:40.59Z</time></trkpt><trkpt lat="44.4663947" lon="7.344931"><ele>639.6</ele><time>2026-03-29T11:12:42.591Z</time></trkpt><trkpt lat="44.4664515" lon="7.3450414"><ele>639.4</ele><time>2026-03-29T11:12:44.59Z</time></trkpt><trkpt lat="44.4665009" lon="7.3451597"><ele>639.2</ele><time>2026-03-29T11:12:46.591Z</time></trkpt><trkpt lat="44.466551" lon="7.345281"><ele>639.0</ele><time>2026-03-29T11:12:48.59Z</time></trkpt><trkpt lat="44.4666028" lon="7.3454081"><ele>639.0</ele><time>2026-03-29T11:12:50.591Z</time></trkpt><trkpt lat="44.4666388" lon="7.3455447"><ele>639.0</ele><time>2026-03-29T11:12:52.59Z</time></trkpt><trkpt lat="44.4666684" lon="7.3456803"><ele>639.0</ele><time>2026-03-29T11:12:54.59Z</time></trkpt><trkpt lat="44.4666899" lon="7.3458246"><ele>639.0</ele><time>2026-03-29T11:12:56.59Z</time></trkpt><trkpt lat="44.466723" lon="7.3459635"><ele>639.0</ele><time>2026-03-29T11:12:58.59Z</time></trkpt><trkpt lat="44.4667544" lon="7.3460964"><ele>639.0</ele><time>2026-03-29T11:13:00.591Z</time></trkpt><trkpt lat="44.4667786" lon="7.3462341"><ele>639.0</ele><time>2026-03-29T11:13:02.59Z</time></trkpt><trkpt lat="44.4668004" lon="7.3463691"><ele>639.0</ele><time>2026-03-29T11:13:04.59Z</time></trkpt><trkpt lat="44.4668314" lon="7.3464829"><ele>639.0</ele><time>2026-03-29T11:13:06.59Z</time></trkpt><trkpt lat="44.466846" lon="7.3465727"><ele>639.0</ele><time>2026-03-29T11:13:08.59Z</time></trkpt><trkpt lat="44.4668434" lon="7.346662"><ele>639.0</ele><time>2026-03-29T11:13:10.591Z</time></trkpt><trkpt lat="44.4667898" lon="7.3467296"><ele>638.6</ele><time>2026-03-29T11:13:12.59Z</time></trkpt><trkpt lat="44.4667097" lon="7.3467771"><ele>638.2</ele><time>2026-03-29T11:13:14.59Z</time></trkpt><trkpt lat="44.4666222" lon="7.3468262"><ele>637.8000000000001</ele><time>2026-03-29T11:13:16.59Z</time></trkpt><trkpt lat="44.4665322" lon="7.3468689"><ele>637.4</ele><time>2026-03-29T11:13:18.591Z</time></trkpt><trkpt lat="44.4664446" lon="7.3469056"><ele>637.0</ele><time>2026-03-29T11:13:20.591Z</time></trkpt><trkpt lat="44.4663567" lon="7.3469532"><ele>637.0</ele><time>2026-03-29T11:13:22.591Z</time></trkpt><trkpt lat="44.4662717" lon="7.3469865"><ele>637.0</ele><time>2026-03-29T11:13:24.591Z</time></trkpt><trkpt lat="44.4661823" lon="7.3470372"><ele>637.0</ele><time>2026-03-29T11:13:26.591Z</time></trkpt><trkpt lat="44.466094" lon="7.3470802"><ele>637.0</ele><time>2026-03-29T11:13:28.59Z</time></trkpt><trkpt lat="44.4660037" lon="7.34713"><ele>637.0</ele><time>2026-03-29T11:13:30.591Z</time></trkpt><trkpt lat="44.4659137" lon="7.3471747"><ele>637.2</ele><time>2026-03-29T11:13:32.59Z</time></trkpt><trkpt lat="44.4658243" lon="7.3472256"><ele>637.4000000000001</ele><time>2026-03-29T11:13:34.59Z</time></trkpt><trkpt lat="44.4657301" lon="7.3472872"><ele>637.5999999999999</ele><time>2026-03-29T11:13:36.59Z</time></trkpt><trkpt lat="44.4656385" lon="7.3473359"><ele>637.8</ele><time>2026-03-29T11:13:38.591Z</time></trkpt><trkpt lat="44.4655474" lon="7.3473962"><ele>638.0</ele><time>2026-03-29T11:13:40.591Z</time></trkpt><trkpt lat="44.4654595" lon="7.3474496"><ele>637.8333333333333</ele><time>2026-03-29T11:13:42.591Z</time></trkpt><trkpt lat="44.4653794" lon="7.3474904"><ele>637.6666666666666</ele><time>2026-03-29T11:13:44.59Z</time></trkpt><trkpt lat="44.4652986" lon="7.3475331"><ele>637.5</ele><time>2026-03-29T11:13:46.59Z</time></trkpt><trkpt lat="44.4652197" lon="7.3475626"><ele>637.3333333333334</ele><time>2026-03-29T11:13:48.59Z</time></trkpt><trkpt lat="44.4651388" lon="7.3475734"><ele>637.1666666666667</ele><time>2026-03-29T11:13:50.591Z</time></trkpt><trkpt lat="44.4650598" lon="7.3475921"><ele>637.0</ele><time>2026-03-29T11:13:52.591Z</time></trkpt><trkpt lat="44.4649806" lon="7.3476163"><ele>637.0</ele><time>2026-03-29T11:13:54.591Z</time></trkpt><trkpt lat="44.4648994" lon="7.3476496"><ele>637.0</ele><time>2026-03-29T11:13:56.59Z</time></trkpt><trkpt lat="44.4648163" lon="7.3476851"><ele>637.0</ele><time>2026-03-29T11:13:58.591Z</time></trkpt><trkpt lat="44.464731" lon="7.3477152"><ele>637.0</ele><time>2026-03-29T11:14:00.591Z</time></trkpt><trkpt lat="44.4646498" lon="7.3477403"><ele>637.0</ele><time>2026-03-29T11:14:02.59Z</time></trkpt><trkpt lat="44.4645738" lon="7.3477715"><ele>637.0</ele><time>2026-03-29T11:14:04.59Z</time></trkpt><trkpt lat="44.4645017" lon="7.3477911"><ele>636.7142857142857</ele><time>2026-03-29T11:14:06.591Z</time></trkpt><trkpt lat="44.4644336" lon="7.347814"><ele>636.4285714285714</ele><time>2026-03-29T11:14:08.59Z</time></trkpt><trkpt lat="44.4643624" lon="7.3478372"><ele>636.1428571428571</ele><time>2026-03-29T11:14:10.591Z</time></trkpt><trkpt lat="44.4642879" lon="7.3478638"><ele>635.8571428571429</ele><time>2026-03-29T11:14:12.59Z</time></trkpt><trkpt lat="44.4642152" lon="7.3478908"><ele>635.5714285714286</ele><time>2026-03-29T11:14:14.591Z</time></trkpt><trkpt lat="44.4641448" lon="7.3479074"><ele>635.2857142857142</ele><time>2026-03-29T11:14:16.59Z</time></trkpt><trkpt lat="44.4640796" lon="7.3479332"><ele>635.0</ele><time>2026-03-29T11:14:18.589Z</time></trkpt><trkpt lat="44.46402" lon="7.3479673"><ele>635.0</ele><time>2026-03-29T11:14:20.59Z</time></trkpt><trkpt lat="44.463989" lon="7.3480899"><ele>635.0</ele><time>2026-03-29T11:14:23.59Z</time></trkpt><trkpt lat="44.4640041" lon="7.3481965"><ele>635.0</ele><time>2026-03-29T11:14:25.591Z</time></trkpt><trkpt lat="44.4640275" lon="7.3483141"><ele>635.0</ele><time>2026-03-29T11:14:27.591Z</time></trkpt><trkpt lat="44.4640498" lon="7.3484308"><ele>635.0</ele><time>2026-03-29T11:14:29.59Z</time></trkpt><trkpt lat="44.464076" lon="7.3485411"><ele>635.0</ele><time>2026-03-29T11:14:31.59Z</time></trkpt><trkpt lat="44.4641062" lon="7.3486516"><ele>635.0</ele><time>2026-03-29T11:14:33.503Z</time></trkpt><trkpt lat="44.4641119" lon="7.3487792"><ele>635.0</ele><time>2026-03-29T11:14:35.591Z</time></trkpt><trkpt lat="44.4641343" lon="7.3489002"><ele>635.0</ele><time>2026-03-29T11:14:37.591Z</time></trkpt><trkpt lat="44.4641341" lon="7.3490362"><ele>635.0</ele><time>2026-03-29T11:14:39.59Z</time></trkpt><trkpt lat="44.4641155" lon="7.349168"><ele>635.0</ele><time>2026-03-29T11:14:41.59Z</time></trkpt><trkpt lat="44.4641163" lon="7.3492982"><ele>634.6</ele><time>2026-03-29T11:14:43.591Z</time></trkpt><trkpt lat="44.4640978" lon="7.3494323"><ele>634.2</ele><time>2026-03-29T11:14:45.591Z</time></trkpt><trkpt lat="44.4640774" lon="7.3495816"><ele>633.8</ele><time>2026-03-29T11:14:47.59Z</time></trkpt><trkpt lat="44.4640447" lon="7.3497317"><ele>633.4</ele><time>2026-03-29T11:14:49.59Z</time></trkpt><trkpt lat="44.4640192" lon="7.3498886"><ele>633.0</ele><time>2026-03-29T11:14:51.59Z</time></trkpt><trkpt lat="44.4639918" lon="7.3500555"><ele>633.0</ele><time>2026-03-29T11:14:53.59Z</time></trkpt><trkpt lat="44.4639759" lon="7.3502298"><ele>633.0</ele><time>2026-03-29T11:14:55.591Z</time></trkpt><trkpt lat="44.463964" lon="7.3503975"><ele>633.0</ele><time>2026-03-29T11:14:57.59Z</time></trkpt><trkpt lat="44.4639545" lon="7.350564"><ele>633.0</ele><time>2026-03-29T11:14:59.591Z</time></trkpt><trkpt lat="44.4639385" lon="7.3507311"><ele>632.0</ele><time>2026-03-29T11:15:01.591Z</time></trkpt><trkpt lat="44.4639275" lon="7.3508966"><ele>631.0</ele><time>2026-03-29T11:15:03.59Z</time></trkpt><trkpt lat="44.4639117" lon="7.3510615"><ele>630.0</ele><time>2026-03-29T11:15:05.59Z</time></trkpt><trkpt lat="44.4639013" lon="7.3512219"><ele>629.0</ele><time>2026-03-29T11:15:07.591Z</time></trkpt><trkpt lat="44.4638925" lon="7.3513781"><ele>628.6</ele><time>2026-03-29T11:15:09.59Z</time></trkpt><trkpt lat="44.4638831" lon="7.3515369"><ele>628.2</ele><time>2026-03-29T11:15:11.591Z</time></trkpt><trkpt lat="44.4638812" lon="7.3516917"><ele>627.8000000000001</ele><time>2026-03-29T11:15:13.589Z</time></trkpt><trkpt lat="44.46388" lon="7.351844"><ele>627.4</ele><time>2026-03-29T11:15:15.591Z</time></trkpt><trkpt lat="44.4638705" lon="7.3519922"><ele>627.0</ele><time>2026-03-29T11:15:17.591Z</time></trkpt><trkpt lat="44.4638635" lon="7.3521331"><ele>627.0</ele><time>2026-03-29T11:15:19.591Z</time></trkpt><trkpt lat="44.4638554" lon="7.3522745"><ele>627.0</ele><time>2026-03-29T11:15:21.59Z</time></trkpt><trkpt lat="44.4638465" lon="7.3524173"><ele>627.0</ele><time>2026-03-29T11:15:23.59Z</time></trkpt><trkpt lat="44.4638389" lon="7.352562"><ele>627.0</ele><time>2026-03-29T11:15:25.589Z</time></trkpt><trkpt lat="44.4638307" lon="7.3527069"><ele>627.0</ele><time>2026-03-29T11:15:27.589Z</time></trkpt><trkpt lat="44.4638269" lon="7.3528572"><ele>627.0</ele><time>2026-03-29T11:15:29.59Z</time></trkpt><trkpt lat="44.4638341" lon="7.3530075"><ele>627.0</ele><time>2026-03-29T11:15:31.59Z</time></trkpt><trkpt lat="44.4638549" lon="7.3531614"><ele>627.0</ele><time>2026-03-29T11:15:33.59Z</time></trkpt><trkpt lat="44.4638904" lon="7.3533296"><ele>627.0</ele><time>2026-03-29T11:15:35.59Z</time></trkpt><trkpt lat="44.4639071" lon="7.353422"><ele>627.0</ele><time>2026-03-29T11:15:36.59Z</time></trkpt><trkpt lat="44.4639194" lon="7.3535199"><ele>626.8333333333334</ele><time>2026-03-29T11:15:37.591Z</time></trkpt><trkpt lat="44.4639319" lon="7.3536195"><ele>626.6666666666666</ele><time>2026-03-29T11:15:38.59Z</time></trkpt><trkpt lat="44.4639462" lon="7.353721"><ele>626.5</ele><time>2026-03-29T11:15:39.59Z</time></trkpt><trkpt lat="44.4639626" lon="7.3538233"><ele>626.3333333333333</ele><time>2026-03-29T11:15:40.591Z</time></trkpt><trkpt lat="44.4639797" lon="7.3539255"><ele>626.1666666666666</ele><time>2026-03-29T11:15:41.59Z</time></trkpt><trkpt lat="44.4639992" lon="7.3540303"><ele>626.0</ele><time>2026-03-29T11:15:42.59Z</time></trkpt><trkpt lat="44.4640127" lon="7.3541399"><ele>625.8333333333333</ele><time>2026-03-29T11:15:43.59Z</time></trkpt><trkpt lat="44.4640287" lon="7.3542495"><ele>625.6666666666666</ele><time>2026-03-29T11:15:44.591Z</time></trkpt><trkpt lat="44.4640487" lon="7.3543611"><ele>625.5</ele><time>2026-03-29T11:15:45.59Z</time></trkpt><trkpt lat="44.4640751" lon="7.3544701"><ele>625.3333333333334</ele><time>2026-03-29T11:15:46.591Z</time></trkpt><trkpt lat="44.4641079" lon="7.3545794"><ele>625.1666666666667</ele><time>2026-03-29T11:15:47.591Z</time></trkpt><trkpt lat="44.4641468" lon="7.3546835"><ele>625.0</ele><time>2026-03-29T11:15:48.591Z</time></trkpt><trkpt lat="44.4641954" lon="7.3547815"><ele>624.6666666666667</ele><time>2026-03-29T11:15:49.59Z</time></trkpt><trkpt lat="44.4642446" lon="7.3548765"><ele>624.3333333333334</ele><time>2026-03-29T11:15:50.59Z</time></trkpt><trkpt lat="44.4642944" lon="7.3549745"><ele>624.0</ele><time>2026-03-29T11:15:51.591Z</time></trkpt><trkpt lat="44.4643452" lon="7.3550734"><ele>623.6666666666666</ele><time>2026-03-29T11:15:52.591Z</time></trkpt><trkpt lat="44.4643935" lon="7.3551742"><ele>623.3333333333333</ele><time>2026-03-29T11:15:53.59Z</time></trkpt><trkpt lat="44.4644384" lon="7.3552785"><ele>623.0</ele><time>2026-03-29T11:15:54.59Z</time></trkpt><trkpt lat="44.4644773" lon="7.3553842"><ele>623.0</ele><time>2026-03-29T11:15:55.59Z</time></trkpt><trkpt lat="44.4645181" lon="7.3554891"><ele>623.0</ele><time>2026-03-29T11:15:56.59Z</time></trkpt><trkpt lat="44.4645612" lon="7.3555911"><ele>623.0</ele><time>2026-03-29T11:15:57.59Z</time></trkpt><trkpt lat="44.4646031" lon="7.3556972"><ele>623.0</ele><time>2026-03-29T11:15:58.59Z</time></trkpt><trkpt lat="44.4646422" lon="7.3558037"><ele>623.0</ele><time>2026-03-29T11:15:59.59Z</time></trkpt><trkpt lat="44.4646794" lon="7.3559101"><ele>623.0</ele><time>2026-03-29T11:16:00.59Z</time></trkpt><trkpt lat="44.4647192" lon="7.3560162"><ele>623.0</ele><time>2026-03-29T11:16:01.59Z</time></trkpt><trkpt lat="44.4647589" lon="7.356119"><ele>623.0</ele><time>2026-03-29T11:16:02.591Z</time></trkpt><trkpt lat="44.4647951" lon="7.3562181"><ele>623.0</ele><time>2026-03-29T11:16:03.591Z</time></trkpt><trkpt lat="44.4648364" lon="7.3563098"><ele>623.0</ele><time>2026-03-29T11:16:04.591Z</time></trkpt><trkpt lat="44.4648761" lon="7.356401"><ele>623.0</ele><time>2026-03-29T11:16:05.591Z</time></trkpt><trkpt lat="44.46491" lon="7.3564914"><ele>623.0</ele><time>2026-03-29T11:16:06.59Z</time></trkpt><trkpt lat="44.4649433" lon="7.3565776"><ele>623.0</ele><time>2026-03-29T11:16:07.591Z</time></trkpt><trkpt lat="44.4649791" lon="7.3566589"><ele>623.0</ele><time>2026-03-29T11:16:08.59Z</time></trkpt><trkpt lat="44.4650116" lon="7.3567361"><ele>623.0</ele><time>2026-03-29T11:16:09.591Z</time></trkpt><trkpt lat="44.4650681" lon="7.3568857"><ele>623.0</ele><time>2026-03-29T11:16:11.591Z</time></trkpt><trkpt lat="44.4651283" lon="7.3570221"><ele>623.0</ele><time>2026-03-29T11:16:13.591Z</time></trkpt><trkpt lat="44.4651954" lon="7.357138"><ele>624.0</ele><time>2026-03-29T11:16:15.59Z</time></trkpt><trkpt lat="44.4652633" lon="7.3572476"><ele>625.0</ele><time>2026-03-29T11:16:17.59Z</time></trkpt><trkpt lat="44.4653215" lon="7.3573525"><ele>626.0</ele><time>2026-03-29T11:16:19.591Z</time></trkpt><trkpt lat="44.4653705" lon="7.3574576"><ele>627.0</ele><time>2026-03-29T11:16:21.59Z</time></trkpt><trkpt lat="44.4654085" lon="7.3575665"><ele>628.0</ele><time>2026-03-29T11:16:24.59Z</time></trkpt><trkpt lat="44.4654738" lon="7.357686"><ele>628.0</ele><time>2026-03-29T11:16:26.59Z</time></trkpt><trkpt lat="44.4655386" lon="7.3577926"><ele>628.0</ele><time>2026-03-29T11:16:28.567Z</time></trkpt><trkpt lat="44.4656096" lon="7.3578799"><ele>628.0</ele><time>2026-03-29T11:16:30.59Z</time></trkpt><trkpt lat="44.4656784" lon="7.3579484"><ele>628.0</ele><time>2026-03-29T11:16:32.59Z</time></trkpt><trkpt lat="44.4657499" lon="7.3580136"><ele>628.0</ele><time>2026-03-29T11:16:34.609Z</time></trkpt><trkpt lat="44.4658186" lon="7.358073"><ele>628.0</ele><time>2026-03-29T11:16:36.591Z</time></trkpt><trkpt lat="44.4658805" lon="7.3581437"><ele>627.7142857142857</ele><time>2026-03-29T11:16:38.59Z</time></trkpt><trkpt lat="44.4659428" lon="7.3582056"><ele>627.4285714285714</ele><time>2026-03-29T11:16:40.591Z</time></trkpt><trkpt lat="44.4659999" lon="7.3582639"><ele>627.1428571428571</ele><time>2026-03-29T11:16:42.591Z</time></trkpt><trkpt lat="44.4660498" lon="7.3583224"><ele>626.8571428571429</ele><time>2026-03-29T11:16:44.533Z</time></trkpt><trkpt lat="44.4661235" lon="7.3583863"><ele>626.5714285714286</ele><time>2026-03-29T11:16:47.591Z</time></trkpt><trkpt lat="44.4661973" lon="7.3584471"><ele>626.2857142857142</ele><time>2026-03-29T11:16:50.59Z</time></trkpt><trkpt lat="44.4662538" lon="7.3584901"><ele>626.0</ele><time>2026-03-29T11:16:52.59Z</time></trkpt><trkpt lat="44.4663123" lon="7.3585403"><ele>626.0</ele><time>2026-03-29T11:16:54.59Z</time></trkpt><trkpt lat="44.4663686" lon="7.3586008"><ele>626.0</ele><time>2026-03-29T11:16:56.589Z</time></trkpt><trkpt lat="44.4664256" lon="7.3586584"><ele>626.0</ele><time>2026-03-29T11:16:58.59Z</time></trkpt><trkpt lat="44.4664846" lon="7.3587199"><ele>626.0</ele><time>2026-03-29T11:17:00.59Z</time></trkpt><trkpt lat="44.4665475" lon="7.3587856"><ele>626.0</ele><time>2026-03-29T11:17:02.59Z</time></trkpt><trkpt lat="44.466615" lon="7.3588559"><ele>626.0</ele><time>2026-03-29T11:17:04.591Z</time></trkpt><trkpt lat="44.4666842" lon="7.3589238"><ele>624.3333333333333</ele><time>2026-03-29T11:17:06.59Z</time></trkpt><trkpt lat="44.4667473" lon="7.3590014"><ele>622.6666666666666</ele><time>2026-03-29T11:17:08.59Z</time></trkpt><trkpt lat="44.466813" lon="7.3590758"><ele>621.0</ele><time>2026-03-29T11:17:10.59Z</time></trkpt><trkpt lat="44.4668762" lon="7.3591511"><ele>619.3333333333334</ele><time>2026-03-29T11:17:12.59Z</time></trkpt><trkpt lat="44.4669421" lon="7.3592182"><ele>617.6666666666667</ele><time>2026-03-29T11:17:14.591Z</time></trkpt><trkpt lat="44.4670031" lon="7.359293"><ele>616.0</ele><time>2026-03-29T11:17:16.59Z</time></trkpt><trkpt lat="44.4670659" lon="7.3593617"><ele>617.0</ele><time>2026-03-29T11:17:18.59Z</time></trkpt><trkpt lat="44.4671315" lon="7.3594297"><ele>618.0</ele><time>2026-03-29T11:17:20.59Z</time></trkpt><trkpt lat="44.467188" lon="7.3594886"><ele>619.0</ele><time>2026-03-29T11:17:22.311Z</time></trkpt><trkpt lat="44.4672643" lon="7.3595587"><ele>620.0</ele><time>2026-03-29T11:17:24.591Z</time></trkpt><trkpt lat="44.4673284" lon="7.3596139"><ele>621.0</ele><time>2026-03-29T11:17:26.591Z</time></trkpt><trkpt lat="44.4673942" lon="7.359667"><ele>622.0</ele><time>2026-03-29T11:17:28.613Z</time></trkpt><trkpt lat="44.4674665" lon="7.3597064"><ele>622.0</ele><time>2026-03-29T11:17:31.591Z</time></trkpt><trkpt lat="44.4674851" lon="7.359821"><ele>622.0</ele><time>2026-03-29T11:17:35.59Z</time></trkpt><trkpt lat="44.4674903" lon="7.3599222"><ele>622.0</ele><time>2026-03-29T11:17:37.591Z</time></trkpt><trkpt lat="44.4675072" lon="7.3600477"><ele>622.0</ele><time>2026-03-29T11:17:39.589Z</time></trkpt><trkpt lat="44.4675143" lon="7.3602042"><ele>622.0</ele><time>2026-03-29T11:17:41.591Z</time></trkpt><trkpt lat="44.4675489" lon="7.3603251"><ele>622.0</ele><time>2026-03-29T11:17:43.59Z</time></trkpt><trkpt lat="44.4676038" lon="7.360456"><ele>622.0</ele><time>2026-03-29T11:17:45.59Z</time></trkpt><trkpt lat="44.4676095" lon="7.3605912"><ele>622.0</ele><time>2026-03-29T11:17:47.591Z</time></trkpt><trkpt lat="44.4676204" lon="7.360719"><ele>622.0</ele><time>2026-03-29T11:17:49.59Z</time></trkpt><trkpt lat="44.4676145" lon="7.3608545"><ele>622.0</ele><time>2026-03-29T11:17:51.59Z</time></trkpt><trkpt lat="44.4675987" lon="7.3609873"><ele>621.3333333333334</ele><time>2026-03-29T11:17:53.591Z</time></trkpt><trkpt lat="44.4675956" lon="7.3611099"><ele>620.6666666666667</ele><time>2026-03-29T11:17:55.59Z</time></trkpt><trkpt lat="44.4675888" lon="7.3612375"><ele>620.0</ele><time>2026-03-29T11:17:57.59Z</time></trkpt><trkpt lat="44.4675858" lon="7.3613557"><ele>619.3333333333334</ele><time>2026-03-29T11:17:59.59Z</time></trkpt><trkpt lat="44.4675913" lon="7.3614682"><ele>618.6666666666666</ele><time>2026-03-29T11:18:01.591Z</time></trkpt><trkpt lat="44.467599" lon="7.3615795"><ele>618.0</ele><time>2026-03-29T11:18:03.591Z</time></trkpt><trkpt lat="44.4676036" lon="7.3616866"><ele>618.1666666666666</ele><time>2026-03-29T11:18:05.59Z</time></trkpt><trkpt lat="44.4676032" lon="7.3617961"><ele>618.3333333333334</ele><time>2026-03-29T11:18:07.591Z</time></trkpt><trkpt lat="44.4675975" lon="7.3619113"><ele>618.5</ele><time>2026-03-29T11:18:09.591Z</time></trkpt><trkpt lat="44.467585" lon="7.3620296"><ele>618.6666666666667</ele><time>2026-03-29T11:18:11.59Z</time></trkpt><trkpt lat="44.4675671" lon="7.3621444"><ele>618.8333333333334</ele><time>2026-03-29T11:18:13.59Z</time></trkpt><trkpt lat="44.4675421" lon="7.3622498"><ele>619.0</ele><time>2026-03-29T11:18:15.591Z</time></trkpt><trkpt lat="44.4675138" lon="7.3623582"><ele>619.0</ele><time>2026-03-29T11:18:17.591Z</time></trkpt><trkpt lat="44.4674884" lon="7.362464"><ele>619.0</ele><time>2026-03-29T11:18:19.591Z</time></trkpt><trkpt lat="44.4674709" lon="7.3625529"><ele>619.0</ele><time>2026-03-29T11:18:21.59Z</time></trkpt><trkpt lat="44.4673958" lon="7.3626197"><ele>619.0</ele><time>2026-03-29T11:18:25.591Z</time></trkpt><trkpt lat="44.467327" lon="7.362608"><ele>619.0</ele><time>2026-03-29T11:18:27.59Z</time></trkpt><trkpt lat="44.4672574" lon="7.3626207"><ele>619.0</ele><time>2026-03-29T11:18:31.589Z</time></trkpt><trkpt lat="44.4671201" lon="7.3627335"><ele>618.0</ele><time>2026-03-29T11:18:35.591Z</time></trkpt><trkpt lat="44.4670228" lon="7.362801"><ele>617.0</ele><time>2026-03-29T11:18:37.59Z</time></trkpt><trkpt lat="44.4669312" lon="7.3629079"><ele>616.0</ele><time>2026-03-29T11:18:39.589Z</time></trkpt><trkpt lat="44.4668703" lon="7.3630348"><ele>615.0</ele><time>2026-03-29T11:18:41.591Z</time></trkpt><trkpt lat="44.4668253" lon="7.3631198"><ele>614.0</ele><time>2026-03-29T11:18:43.591Z</time></trkpt><trkpt lat="44.4667876" lon="7.3632009"><ele>614.0</ele><time>2026-03-29T11:18:45.59Z</time></trkpt><trkpt lat="44.4667463" lon="7.3633329"><ele>614.0</ele><time>2026-03-29T11:18:47.59Z</time></trkpt><trkpt lat="44.4667027" lon="7.3634583"><ele>614.0</ele><time>2026-03-29T11:18:49.589Z</time></trkpt><trkpt lat="44.4666355" lon="7.3635895"><ele>614.0</ele><time>2026-03-29T11:18:51.59Z</time></trkpt><trkpt lat="44.4665795" lon="7.3637196"><ele>614.0</ele><time>2026-03-29T11:18:53.59Z</time></trkpt><trkpt lat="44.4665097" lon="7.3638624"><ele>615.0</ele><time>2026-03-29T11:18:55.59Z</time></trkpt><trkpt lat="44.4664389" lon="7.364005"><ele>616.0</ele><time>2026-03-29T11:18:57.59Z</time></trkpt><trkpt lat="44.4664019" lon="7.3640817"><ele>617.0</ele><time>2026-03-29T11:18:58.59Z</time></trkpt><trkpt lat="44.4663684" lon="7.3641598"><ele>618.0</ele><time>2026-03-29T11:18:59.59Z</time></trkpt><trkpt lat="44.4663322" lon="7.3642361"><ele>619.0</ele><time>2026-03-29T11:19:00.591Z</time></trkpt><trkpt lat="44.4662942" lon="7.364312"><ele>620.0</ele><time>2026-03-29T11:19:01.591Z</time></trkpt><trkpt lat="44.4662512" lon="7.3643862"><ele>616.5</ele><time>2026-03-29T11:19:02.591Z</time></trkpt><trkpt lat="44.466204" lon="7.3644588"><ele>613.0</ele><time>2026-03-29T11:19:03.591Z</time></trkpt><trkpt lat="44.4661768" lon="7.3645812"><ele>609.5</ele><time>2026-03-29T11:19:05.59Z</time></trkpt><trkpt lat="44.4661322" lon="7.3646641"><ele>606.0</ele><time>2026-03-29T11:19:07.591Z</time></trkpt><trkpt lat="44.4660598" lon="7.3646871"><ele>602.5</ele><time>2026-03-29T11:19:10.59Z</time></trkpt><trkpt lat="44.4659774" lon="7.3646775"><ele>599.0</ele><time>2026-03-29T11:19:13.59Z</time></trkpt><trkpt lat="44.4659105" lon="7.3646653"><ele>599.0</ele><time>2026-03-29T11:19:15.59Z</time></trkpt><trkpt lat="44.465831" lon="7.3646945"><ele>599.0</ele><time>2026-03-29T11:19:17.59Z</time></trkpt><trkpt lat="44.4657496" lon="7.3647601"><ele>599.0</ele><time>2026-03-29T11:19:19.591Z</time></trkpt><trkpt lat="44.4656793" lon="7.3648362"><ele>599.0</ele><time>2026-03-29T11:19:21.59Z</time></trkpt><trkpt lat="44.4656198" lon="7.3649047"><ele>599.0</ele><time>2026-03-29T11:19:23.589Z</time></trkpt><trkpt lat="44.4655619" lon="7.3650049"><ele>599.0</ele><time>2026-03-29T11:19:26.59Z</time></trkpt><trkpt lat="44.4654836" lon="7.3650852"><ele>599.3333333333333</ele><time>2026-03-29T11:19:29.59Z</time></trkpt><trkpt lat="44.4654046" lon="7.3650684"><ele>599.6666666666666</ele><time>2026-03-29T11:19:31.59Z</time></trkpt><trkpt lat="44.4653418" lon="7.3650341"><ele>600.0</ele><time>2026-03-29T11:19:33.524Z</time></trkpt><trkpt lat="44.4652608" lon="7.3649724"><ele>600.3333333333334</ele><time>2026-03-29T11:19:35.59Z</time></trkpt><trkpt lat="44.4651792" lon="7.3649262"><ele>600.6666666666667</ele><time>2026-03-29T11:19:37.588Z</time></trkpt><trkpt lat="44.4650984" lon="7.3649058"><ele>601.0</ele><time>2026-03-29T11:19:39.59Z</time></trkpt><trkpt lat="44.4650293" lon="7.3648708"><ele>601.0</ele><time>2026-03-29T11:19:41.59Z</time></trkpt><trkpt lat="44.4649429" lon="7.3648245"><ele>601.0</ele><time>2026-03-29T11:19:44.591Z</time></trkpt><trkpt lat="44.4648782" lon="7.3647908"><ele>601.0</ele><time>2026-03-29T11:19:46.591Z</time></trkpt><trkpt lat="44.4648042" lon="7.364802"><ele>601.0</ele><time>2026-03-29T11:19:48.591Z</time></trkpt><trkpt lat="44.4647345" lon="7.3648446"><ele>601.0</ele><time>2026-03-29T11:19:50.59Z</time></trkpt><trkpt lat="44.4646629" lon="7.3648731"><ele>601.0</ele><time>2026-03-29T11:19:52.59Z</time></trkpt><trkpt lat="44.4645866" lon="7.3649012"><ele>602.5714285714286</ele><time>2026-03-29T11:19:54.59Z</time></trkpt><trkpt lat="44.4645134" lon="7.3649121"><ele>604.1428571428572</ele><time>2026-03-29T11:19:56.59Z</time></trkpt><trkpt lat="44.4644483" lon="7.364918"><ele>605.7142857142858</ele><time>2026-03-29T11:19:58.591Z</time></trkpt><trkpt lat="44.4643727" lon="7.3649235"><ele>607.2857142857142</ele><time>2026-03-29T11:20:00.591Z</time></trkpt><trkpt lat="44.464303" lon="7.3649545"><ele>608.8571428571429</ele><time>2026-03-29T11:20:02.59Z</time></trkpt><trkpt lat="44.4642359" lon="7.3650091"><ele>610.4285714285714</ele><time>2026-03-29T11:20:04.59Z</time></trkpt><trkpt lat="44.4641748" lon="7.3650848"><ele>612.0</ele><time>2026-03-29T11:20:06.59Z</time></trkpt><trkpt lat="44.4641205" lon="7.365176"><ele>612.0</ele><time>2026-03-29T11:20:08.591Z</time></trkpt><trkpt lat="44.4640708" lon="7.3652682"><ele>612.0</ele><time>2026-03-29T11:20:10.59Z</time></trkpt><trkpt lat="44.4640208" lon="7.3653527"><ele>612.0</ele><time>2026-03-29T11:20:12.59Z</time></trkpt><trkpt lat="44.4639686" lon="7.3654499"><ele>612.0</ele><time>2026-03-29T11:20:14.591Z</time></trkpt><trkpt lat="44.4639156" lon="7.3655345"><ele>612.0</ele><time>2026-03-29T11:20:16.589Z</time></trkpt><trkpt lat="44.4638631" lon="7.3656223"><ele>612.0</ele><time>2026-03-29T11:20:18.59Z</time></trkpt><trkpt lat="44.4638125" lon="7.3657126"><ele>612.5</ele><time>2026-03-29T11:20:20.59Z</time></trkpt><trkpt lat="44.4637573" lon="7.3658034"><ele>613.0</ele><time>2026-03-29T11:20:22.59Z</time></trkpt><trkpt lat="44.4637009" lon="7.3658899"><ele>613.5</ele><time>2026-03-29T11:20:24.506Z</time></trkpt><trkpt lat="44.4636394" lon="7.3659861"><ele>614.0</ele><time>2026-03-29T11:20:26.591Z</time></trkpt><trkpt lat="44.4635893" lon="7.3660712"><ele>614.5</ele><time>2026-03-29T11:20:28.591Z</time></trkpt><trkpt lat="44.463543" lon="7.3661426"><ele>615.0</ele><time>2026-03-29T11:20:30.591Z</time></trkpt><trkpt lat="44.4634758" lon="7.3662096"><ele>615.0</ele><time>2026-03-29T11:20:33.591Z</time></trkpt><trkpt lat="44.4634178" lon="7.366174"><ele>615.0</ele><time>2026-03-29T11:20:35.59Z</time></trkpt><trkpt lat="44.4633939" lon="7.3660483"><ele>615.0</ele><time>2026-03-29T11:20:37.59Z</time></trkpt><trkpt lat="44.4633741" lon="7.3659461"><ele>615.0</ele><time>2026-03-29T11:20:39.521Z</time></trkpt><trkpt lat="44.4633047" lon="7.3659236"><ele>615.0</ele><time>2026-03-29T11:20:40.59Z</time></trkpt><trkpt lat="44.463232" lon="7.3658905"><ele>615.0</ele><time>2026-03-29T11:20:42.59Z</time></trkpt><trkpt lat="44.463158" lon="7.3658818"><ele>615.0</ele><time>2026-03-29T11:20:44.59Z</time></trkpt><trkpt lat="44.4630889" lon="7.365891"><ele>615.0</ele><time>2026-03-29T11:20:46.591Z</time></trkpt><trkpt lat="44.4629943" lon="7.3659021"><ele>615.0</ele><time>2026-03-29T11:20:49.591Z</time></trkpt><trkpt lat="44.462931" lon="7.3659119"><ele>615.0</ele><time>2026-03-29T11:20:51.59Z</time></trkpt><trkpt lat="44.4628508" lon="7.3659037"><ele>615.0</ele><time>2026-03-29T11:20:54.59Z</time></trkpt><trkpt lat="44.4627731" lon="7.3659283"><ele>615.0</ele><time>2026-03-29T11:20:57.59Z</time></trkpt><trkpt lat="44.4627572" lon="7.3660193"><ele>615.5</ele><time>2026-03-29T11:21:00.59Z</time></trkpt><trkpt lat="44.4628021" lon="7.3661241"><ele>616.0</ele><time>2026-03-29T11:21:03.591Z</time></trkpt><trkpt lat="44.4628366" lon="7.3662495"><ele>616.5</ele><time>2026-03-29T11:21:06.591Z</time></trkpt><trkpt lat="44.462845" lon="7.3663457"><ele>617.0</ele><time>2026-03-29T11:21:08.59Z</time></trkpt><trkpt lat="44.4628557" lon="7.3664418"><ele>617.5</ele><time>2026-03-29T11:21:10.591Z</time></trkpt><trkpt lat="44.4628761" lon="7.3665372"><ele>618.0</ele><time>2026-03-29T11:21:12.591Z</time></trkpt><trkpt lat="44.4629037" lon="7.3666337"><ele>618.1666666666666</ele><time>2026-03-29T11:21:14.589Z</time></trkpt><trkpt lat="44.4629238" lon="7.366735"><ele>618.3333333333334</ele><time>2026-03-29T11:21:16.59Z</time></trkpt><trkpt lat="44.4629509" lon="7.3668399"><ele>618.5</ele><time>2026-03-29T11:21:18.59Z</time></trkpt><trkpt lat="44.4629833" lon="7.3669481"><ele>618.6666666666667</ele><time>2026-03-29T11:21:20.59Z</time></trkpt><trkpt lat="44.4630077" lon="7.367057"><ele>618.8333333333334</ele><time>2026-03-29T11:21:22.59Z</time></trkpt><trkpt lat="44.4630342" lon="7.3671517"><ele>619.0</ele><time>2026-03-29T11:21:24.59Z</time></trkpt><trkpt lat="44.4630184" lon="7.3672405"><ele>618.7142857142857</ele><time>2026-03-29T11:21:26.59Z</time></trkpt><trkpt lat="44.4629549" lon="7.3672947"><ele>618.4285714285714</ele><time>2026-03-29T11:21:28.604Z</time></trkpt><trkpt lat="44.4628774" lon="7.367277"><ele>618.1428571428571</ele><time>2026-03-29T11:21:30.59Z</time></trkpt><trkpt lat="44.4628133" lon="7.3672772"><ele>617.8571428571429</ele><time>2026-03-29T11:21:32.59Z</time></trkpt><trkpt lat="44.4627338" lon="7.3673145"><ele>617.5714285714286</ele><time>2026-03-29T11:21:35.591Z</time></trkpt><trkpt lat="44.462657" lon="7.3673498"><ele>617.2857142857143</ele><time>2026-03-29T11:21:38.591Z</time></trkpt><trkpt lat="44.4625939" lon="7.3673821"><ele>617.0</ele><time>2026-03-29T11:21:40.59Z</time></trkpt><trkpt lat="44.4625288" lon="7.3674089"><ele>617.0</ele><time>2026-03-29T11:21:42.591Z</time></trkpt><trkpt lat="44.4624434" lon="7.3674471"><ele>617.0</ele><time>2026-03-29T11:21:45.59Z</time></trkpt><trkpt lat="44.4623608" lon="7.3674737"><ele>617.0</ele><time>2026-03-29T11:21:48.5Z</time></trkpt><trkpt lat="44.4622971" lon="7.367523"><ele>617.0</ele><time>2026-03-29T11:21:50.591Z</time></trkpt><trkpt lat="44.46223" lon="7.367585"><ele>617.0</ele><time>2026-03-29T11:21:52.59Z</time></trkpt><trkpt lat="44.4621638" lon="7.3676512"><ele>617.0</ele><time>2026-03-29T11:21:54.591Z</time></trkpt><trkpt lat="44.4621035" lon="7.367717"><ele>617.0</ele><time>2026-03-29T11:21:56.59Z</time></trkpt><trkpt lat="44.4620411" lon="7.3677705"><ele>617.0</ele><time>2026-03-29T11:21:58.59Z</time></trkpt><trkpt lat="44.4619768" lon="7.3678141"><ele>617.0</ele><time>2026-03-29T11:22:00.591Z</time></trkpt><trkpt lat="44.4619152" lon="7.3678604"><ele>617.0</ele><time>2026-03-29T11:22:02.59Z</time></trkpt><trkpt lat="44.4618703" lon="7.3679364"><ele>617.0</ele><time>2026-03-29T11:22:04.59Z</time></trkpt><trkpt lat="44.4618645" lon="7.368037"><ele>617.0</ele><time>2026-03-29T11:22:06.591Z</time></trkpt><trkpt lat="44.4618971" lon="7.3681327"><ele>617.0</ele><time>2026-03-29T11:22:08.589Z</time></trkpt><trkpt lat="44.4619371" lon="7.3682149"><ele>617.0</ele><time>2026-03-29T11:22:10.591Z</time></trkpt><trkpt lat="44.4619713" lon="7.3682985"><ele>617.0</ele><time>2026-03-29T11:22:12.591Z</time></trkpt><trkpt lat="44.4620043" lon="7.3683814"><ele>617.0</ele><time>2026-03-29T11:22:14.59Z</time></trkpt><trkpt lat="44.4620149" lon="7.3684738"><ele>617.0</ele><time>2026-03-29T11:22:16.591Z</time></trkpt><trkpt lat="44.4619673" lon="7.368546"><ele>617.0</ele><time>2026-03-29T11:22:18.59Z</time></trkpt><trkpt lat="44.4619012" lon="7.3685684"><ele>617.0</ele><time>2026-03-29T11:22:20.59Z</time></trkpt><trkpt lat="44.4618222" lon="7.3686296"><ele>617.0</ele><time>2026-03-29T11:22:23.59Z</time></trkpt><trkpt lat="44.4617514" lon="7.3686731"><ele>617.0</ele><time>2026-03-29T11:22:26.591Z</time></trkpt><trkpt lat="44.4616856" lon="7.3686914"><ele>617.0</ele><time>2026-03-29T11:22:29.59Z</time></trkpt><trkpt lat="44.4616042" lon="7.3687346"><ele>617.0</ele><time>2026-03-29T11:22:33.591Z</time></trkpt><trkpt lat="44.4615236" lon="7.3688046"><ele>617.0</ele><time>2026-03-29T11:22:36.591Z</time></trkpt><trkpt lat="44.4614616" lon="7.3688241"><ele>617.0</ele><time>2026-03-29T11:22:38.59Z</time></trkpt><trkpt lat="44.4613973" lon="7.3688903"><ele>617.0</ele><time>2026-03-29T11:22:41.59Z</time></trkpt><trkpt lat="44.4614257" lon="7.369"><ele>616.8333333333333</ele><time>2026-03-29T11:22:44.59Z</time></trkpt><trkpt lat="44.4614651" lon="7.3690744"><ele>616.6666666666666</ele><time>2026-03-29T11:22:46.591Z</time></trkpt><trkpt lat="44.4615051" lon="7.3691591"><ele>616.5</ele><time>2026-03-29T11:22:48.59Z</time></trkpt><trkpt lat="44.4615466" lon="7.369251"><ele>616.3333333333334</ele><time>2026-03-29T11:22:50.589Z</time></trkpt><trkpt lat="44.4615924" lon="7.3693424"><ele>616.1666666666667</ele><time>2026-03-29T11:22:52.589Z</time></trkpt><trkpt lat="44.4616353" lon="7.3694367"><ele>616.0</ele><time>2026-03-29T11:22:54.59Z</time></trkpt><trkpt lat="44.4616832" lon="7.3695312"><ele>616.0</ele><time>2026-03-29T11:22:56.589Z</time></trkpt><trkpt lat="44.4617298" lon="7.3696301"><ele>616.0</ele><time>2026-03-29T11:22:58.589Z</time></trkpt><trkpt lat="44.4617816" lon="7.3697168"><ele>616.0</ele><time>2026-03-29T11:23:00.589Z</time></trkpt><trkpt lat="44.4618405" lon="7.3697835"><ele>616.0</ele><time>2026-03-29T11:23:02.59Z</time></trkpt><trkpt lat="44.4618986" lon="7.3698346"><ele>616.0</ele><time>2026-03-29T11:23:04.59Z</time></trkpt><trkpt lat="44.4619507" lon="7.3698863"><ele>616.0</ele><time>2026-03-29T11:23:06.589Z</time></trkpt><trkpt lat="44.4620203" lon="7.3699612"><ele>615.8</ele><time>2026-03-29T11:23:09.588Z</time></trkpt><trkpt lat="44.4620541" lon="7.3700504"><ele>615.6</ele><time>2026-03-29T11:23:12.59Z</time></trkpt><trkpt lat="44.4620017" lon="7.3701679"><ele>615.4</ele><time>2026-03-29T11:23:15.589Z</time></trkpt><trkpt lat="44.4619527" lon="7.3702667"><ele>615.2</ele><time>2026-03-29T11:23:17.589Z</time></trkpt><trkpt lat="44.4618901" lon="7.3703722"><ele>615.0</ele><time>2026-03-29T11:23:19.589Z</time></trkpt><trkpt lat="44.4618321" lon="7.3704884"><ele>615.0</ele><time>2026-03-29T11:23:21.59Z</time></trkpt><trkpt lat="44.4617756" lon="7.3705995"><ele>615.0</ele><time>2026-03-29T11:23:23.589Z</time></trkpt><trkpt lat="44.4617154" lon="7.370716"><ele>615.0</ele><time>2026-03-29T11:23:25.59Z</time></trkpt><trkpt lat="44.461662" lon="7.370823"><ele>615.0</ele><time>2026-03-29T11:23:27.59Z</time></trkpt><trkpt lat="44.4615995" lon="7.3709221"><ele>615.0</ele><time>2026-03-29T11:23:29.59Z</time></trkpt><trkpt lat="44.4615432" lon="7.3710145"><ele>615.0</ele><time>2026-03-29T11:23:31.589Z</time></trkpt><trkpt lat="44.4614951" lon="7.3711092"><ele>615.0</ele><time>2026-03-29T11:23:33.588Z</time></trkpt><trkpt lat="44.4614565" lon="7.371203"><ele>615.0</ele><time>2026-03-29T11:23:35.59Z</time></trkpt><trkpt lat="44.461418" lon="7.3712817"><ele>615.0</ele><time>2026-03-29T11:23:36.589Z</time></trkpt><trkpt lat="44.4613524" lon="7.3713366"><ele>615.0</ele><time>2026-03-29T11:23:38.589Z</time></trkpt><trkpt lat="44.4612914" lon="7.3714096"><ele>615.0</ele><time>2026-03-29T11:23:40.59Z</time></trkpt><trkpt lat="44.4612363" lon="7.3714888"><ele>615.2</ele><time>2026-03-29T11:23:42.513Z</time></trkpt><trkpt lat="44.4612137" lon="7.3716156"><ele>615.4</ele><time>2026-03-29T11:23:44.589Z</time></trkpt><trkpt lat="44.4611975" lon="7.3717162"><ele>615.6</ele><time>2026-03-29T11:23:46.59Z</time></trkpt><trkpt lat="44.461148" lon="7.371825"><ele>615.8</ele><time>2026-03-29T11:23:48.59Z</time></trkpt><trkpt lat="44.4610914" lon="7.3719362"><ele>616.0</ele><time>2026-03-29T11:23:50.589Z</time></trkpt><trkpt lat="44.4610335" lon="7.3720483"><ele>616.0</ele><time>2026-03-29T11:23:52.59Z</time></trkpt><trkpt lat="44.4609744" lon="7.372161"><ele>616.0</ele><time>2026-03-29T11:23:54.589Z</time></trkpt><trkpt lat="44.4609138" lon="7.3722726"><ele>616.0</ele><time>2026-03-29T11:23:56.589Z</time></trkpt><trkpt lat="44.460854" lon="7.3723819"><ele>616.0</ele><time>2026-03-29T11:23:58.589Z</time></trkpt><trkpt lat="44.4608003" lon="7.3724885"><ele>616.0</ele><time>2026-03-29T11:24:00.589Z</time></trkpt><trkpt lat="44.4607505" lon="7.3725873"><ele>616.1666666666667</ele><time>2026-03-29T11:24:02.589Z</time></trkpt><trkpt lat="44.4606965" lon="7.3726836"><ele>616.3333333333334</ele><time>2026-03-29T11:24:04.59Z</time></trkpt><trkpt lat="44.4606423" lon="7.3727915"><ele>616.5</ele><time>2026-03-29T11:24:06.589Z</time></trkpt><trkpt lat="44.4605876" lon="7.3728958"><ele>616.6666666666666</ele><time>2026-03-29T11:24:08.59Z</time></trkpt><trkpt lat="44.4605413" lon="7.3729938"><ele>616.8333333333333</ele><time>2026-03-29T11:24:10.589Z</time></trkpt><trkpt lat="44.4604923" lon="7.3730901"><ele>617.0</ele><time>2026-03-29T11:24:12.59Z</time></trkpt><trkpt lat="44.4604409" lon="7.3731834"><ele>616.6666666666666</ele><time>2026-03-29T11:24:14.59Z</time></trkpt><trkpt lat="44.4603661" lon="7.3732105"><ele>616.3333333333333</ele><time>2026-03-29T11:24:16.589Z</time></trkpt><trkpt lat="44.4602857" lon="7.3732171"><ele>616.0</ele><time>2026-03-29T11:24:18.59Z</time></trkpt><trkpt lat="44.4602103" lon="7.3732399"><ele>615.6666666666666</ele><time>2026-03-29T11:24:20.589Z</time></trkpt><trkpt lat="44.4601306" lon="7.3732588"><ele>615.3333333333334</ele><time>2026-03-29T11:24:22.589Z</time></trkpt><trkpt lat="44.4600478" lon="7.3732693"><ele>615.0</ele><time>2026-03-29T11:24:24.589Z</time></trkpt><trkpt lat="44.4599629" lon="7.3732819"><ele>615.0</ele><time>2026-03-29T11:24:26.59Z</time></trkpt><trkpt lat="44.4598769" lon="7.3732929"><ele>615.0</ele><time>2026-03-29T11:24:28.59Z</time></trkpt><trkpt lat="44.4597922" lon="7.3733029"><ele>615.0</ele><time>2026-03-29T11:24:30.59Z</time></trkpt><trkpt lat="44.4597153" lon="7.3733275"><ele>615.0</ele><time>2026-03-29T11:24:32.59Z</time></trkpt><trkpt lat="44.459643" lon="7.3733293"><ele>615.0</ele><time>2026-03-29T11:24:34.59Z</time></trkpt><trkpt lat="44.4595753" lon="7.3733322"><ele>615.0</ele><time>2026-03-29T11:24:36.589Z</time></trkpt><trkpt lat="44.4595131" lon="7.3733501"><ele>615.0</ele><time>2026-03-29T11:24:38.59Z</time></trkpt><trkpt lat="44.4594444" lon="7.3733628"><ele>615.0</ele><time>2026-03-29T11:24:40.589Z</time></trkpt><trkpt lat="44.4593769" lon="7.3733799"><ele>615.0</ele><time>2026-03-29T11:24:42.59Z</time></trkpt><trkpt lat="44.459311" lon="7.3733882"><ele>615.0</ele><time>2026-03-29T11:24:44.589Z</time></trkpt><trkpt lat="44.4592465" lon="7.3733948"><ele>615.0</ele><time>2026-03-29T11:24:46.589Z</time></trkpt><trkpt lat="44.459178" lon="7.3734096"><ele>615.0</ele><time>2026-03-29T11:24:48.589Z</time></trkpt><trkpt lat="44.4591031" lon="7.3734229"><ele>615.0</ele><time>2026-03-29T11:24:50.59Z</time></trkpt><trkpt lat="44.4590278" lon="7.3734095"><ele>615.0</ele><time>2026-03-29T11:24:52.588Z</time></trkpt><trkpt lat="44.4589555" lon="7.3734084"><ele>615.0</ele><time>2026-03-29T11:24:54.59Z</time></trkpt><trkpt lat="44.4589008" lon="7.3734554"><ele>615.0</ele><time>2026-03-29T11:24:56.589Z</time></trkpt><trkpt lat="44.4588796" lon="7.3735436"><ele>615.0</ele><time>2026-03-29T11:24:58.59Z</time></trkpt><trkpt lat="44.4588773" lon="7.3736452"><ele>615.0</ele><time>2026-03-29T11:25:00.589Z</time></trkpt><trkpt lat="44.458875" lon="7.3737529"><ele>615.0</ele><time>2026-03-29T11:25:02.589Z</time></trkpt><trkpt lat="44.4588662" lon="7.3738563"><ele>615.0</ele><time>2026-03-29T11:25:04.59Z</time></trkpt><trkpt lat="44.4588469" lon="7.3739528"><ele>614.8333333333334</ele><time>2026-03-29T11:25:06.588Z</time></trkpt><trkpt lat="44.4588067" lon="7.3740303"><ele>614.6666666666666</ele><time>2026-03-29T11:25:08.589Z</time></trkpt><trkpt lat="44.4587136" lon="7.3740613"><ele>614.5</ele><time>2026-03-29T11:25:11.589Z</time></trkpt><trkpt lat="44.4586392" lon="7.3740607"><ele>614.3333333333333</ele><time>2026-03-29T11:25:13.589Z</time></trkpt><trkpt lat="44.4585604" lon="7.3740755"><ele>614.1666666666666</ele><time>2026-03-29T11:25:15.59Z</time></trkpt><trkpt lat="44.4584784" lon="7.3740803"><ele>614.0</ele><time>2026-03-29T11:25:17.59Z</time></trkpt><trkpt lat="44.4583948" lon="7.3740917"><ele>614.3333333333333</ele><time>2026-03-29T11:25:19.589Z</time></trkpt><trkpt lat="44.4583131" lon="7.3741126"><ele>614.6666666666666</ele><time>2026-03-29T11:25:21.59Z</time></trkpt><trkpt lat="44.4582394" lon="7.3741328"><ele>615.0</ele><time>2026-03-29T11:25:23.59Z</time></trkpt><trkpt lat="44.458172" lon="7.3741458"><ele>615.3333333333334</ele><time>2026-03-29T11:25:25.59Z</time></trkpt><trkpt lat="44.4580838" lon="7.37414"><ele>615.6666666666667</ele><time>2026-03-29T11:25:28.59Z</time></trkpt><trkpt lat="44.4580087" lon="7.374151"><ele>616.0</ele><time>2026-03-29T11:25:31.59Z</time></trkpt><trkpt lat="44.4579331" lon="7.3741576"><ele>616.0</ele><time>2026-03-29T11:25:34.589Z</time></trkpt><trkpt lat="44.4578558" lon="7.37419"><ele>616.0</ele><time>2026-03-29T11:25:38.589Z</time></trkpt></trkseg></trk></gpx>